<?xml version="1.0" encoding="UTF-8"?>
<gpx xmlns="http://www.topografix.com/GPX/1/1" xmlns:dkl="http://www.gpsware.de/DKL/1/1" xmlns:rtx="http://www.bike-gps.de/RTX/1/1" version="1.1" creator="KOMPASS Digital Map" xmlns:xsi="http://www.w3.org/2001/XMLSchema-instance" xsi:schemaLocation="http://www.topografix.com/GPX/1/1 http://www.topografix.com/GPX/1/1/gpx.xsd">
 <metadata>
 <name>KOMPASS Digital Map Track</name>
 <desc> </desc>
 <time>2010-04-29T16:53:12Z</time>
 <bounds minlat="47.284817" minlon="12.507713" maxlat="47.390785" maxlon="12.828232"/>
 </metadata>
 <trk>
 <name>2010_Glemmtal_Talschluß</name>
 <cmt>Z - Glemmtal - Bk</cmt>
 <extensions>
 <dkl:dkl>
 <dkl:format_version>1.1</dkl:format_version>
 <dkl:format>
 <dkl:color>FF0000</dkl:color>
 <dkl:style>00000000</dkl:style>
 <dkl:strength>3</dkl:strength>
 <dkl:transparent>0</dkl:transparent>
 </dkl:format>
 </dkl:dkl>
 </extensions>
 <trkseg>
 <trkpt lat="47.320351" lon="12.797117">
 <ele>822.30</ele>
 <time>2010-04-29T08:48:17Z</time>
 </trkpt>
 <trkpt lat="47.320389" lon="12.797215">
 <ele>822.94</ele>
 <time>2010-04-29T08:48:24Z</time>
 </trkpt>
 <trkpt lat="47.320503" lon="12.797425">
 <ele>822.56</ele>
 <time>2010-04-29T08:48:31Z</time>
 </trkpt>
 <trkpt lat="47.320614" lon="12.797580">
 <ele>822.70</ele>
 <time>2010-04-29T08:48:37Z</time>
 </trkpt>
 <trkpt lat="47.320709" lon="12.797731">
 <ele>822.80</ele>
 <time>2010-04-29T08:48:42Z</time>
 </trkpt>
 <trkpt lat="47.320869" lon="12.797932">
 <ele>822.71</ele>
 <time>2010-04-29T08:48:48Z</time>
 </trkpt>
 <trkpt lat="47.321060" lon="12.798212">
 <ele>823.00</ele>
 <time>2010-04-29T08:48:55Z</time>
 </trkpt>
 <trkpt lat="47.321270" lon="12.798485">
 <ele>823.17</ele>
 <time>2010-04-29T08:49:03Z</time>
 </trkpt>
 <trkpt lat="47.321487" lon="12.798690">
 <ele>823.43</ele>
 <time>2010-04-29T08:49:10Z</time>
 </trkpt>
 <trkpt lat="47.321674" lon="12.798935">
 <ele>823.74</ele>
 <time>2010-04-29T08:49:17Z</time>
 </trkpt>
 <trkpt lat="47.321781" lon="12.799220">
 <ele>823.42</ele>
 <time>2010-04-29T08:49:23Z</time>
 </trkpt>
 <trkpt lat="47.321987" lon="12.799443">
 <ele>823.23</ele>
 <time>2010-04-29T08:49:30Z</time>
 </trkpt>
 <trkpt lat="47.322144" lon="12.799433">
 <ele>822.82</ele>
 <time>2010-04-29T08:49:35Z</time>
 </trkpt>
 <trkpt lat="47.322235" lon="12.799306">
 <ele>823.53</ele>
 <time>2010-04-29T08:49:40Z</time>
 </trkpt>
 <trkpt lat="47.322330" lon="12.799393">
 <ele>823.69</ele>
 <time>2010-04-29T08:49:45Z</time>
 </trkpt>
 <trkpt lat="47.322571" lon="12.799671">
 <ele>823.93</ele>
 <time>2010-04-29T08:49:53Z</time>
 </trkpt>
 <trkpt lat="47.322838" lon="12.799859">
 <ele>823.80</ele>
 <time>2010-04-29T08:50:00Z</time>
 </trkpt>
 <trkpt lat="47.322876" lon="12.799883">
 <ele>823.64</ele>
 <time>2010-04-29T08:50:01Z</time>
 </trkpt>
 <trkpt lat="47.322960" lon="12.799917">
 <ele>823.66</ele>
 <time>2010-04-29T08:50:03Z</time>
 </trkpt>
 <trkpt lat="47.323353" lon="12.799896">
 <ele>824.00</ele>
 <time>2010-04-29T08:50:12Z</time>
 </trkpt>
 <trkpt lat="47.323441" lon="12.799874">
 <ele>824.09</ele>
 <time>2010-04-29T08:50:14Z</time>
 </trkpt>
 <trkpt lat="47.323593" lon="12.799851">
 <ele>824.36</ele>
 <time>2010-04-29T08:50:18Z</time>
 </trkpt>
 <trkpt lat="47.323841" lon="12.799751">
 <ele>825.19</ele>
 <time>2010-04-29T08:50:25Z</time>
 </trkpt>
 <trkpt lat="47.323990" lon="12.799732">
 <ele>825.28</ele>
 <time>2010-04-29T08:50:30Z</time>
 </trkpt>
 <trkpt lat="47.324104" lon="12.799910">
 <ele>824.72</ele>
 <time>2010-04-29T08:50:37Z</time>
 </trkpt>
 <trkpt lat="47.324078" lon="12.800145">
 <ele>824.24</ele>
 <time>2010-04-29T08:50:41Z</time>
 </trkpt>
 <trkpt lat="47.324131" lon="12.800403">
 <ele>823.57</ele>
 <time>2010-04-29T08:50:48Z</time>
 </trkpt>
 <trkpt lat="47.324291" lon="12.800434">
 <ele>823.40</ele>
 <time>2010-04-29T08:50:53Z</time>
 </trkpt>
 <trkpt lat="47.324512" lon="12.800367">
 <ele>823.08</ele>
 <time>2010-04-29T08:50:59Z</time>
 </trkpt>
 <trkpt lat="47.324764" lon="12.800327">
 <ele>822.48</ele>
 <time>2010-04-29T08:51:05Z</time>
 </trkpt>
 <trkpt lat="47.324856" lon="12.800318">
 <ele>822.08</ele>
 <time>2010-04-29T08:51:07Z</time>
 </trkpt>
 <trkpt lat="47.325153" lon="12.800204">
 <ele>821.34</ele>
 <time>2010-04-29T08:51:14Z</time>
 </trkpt>
 <trkpt lat="47.325359" lon="12.800133">
 <ele>822.11</ele>
 <time>2010-04-29T08:51:20Z</time>
 </trkpt>
 <trkpt lat="47.325439" lon="12.800129">
 <ele>822.39</ele>
 <time>2010-04-29T08:51:23Z</time>
 </trkpt>
 <trkpt lat="47.325603" lon="12.800038">
 <ele>823.10</ele>
 <time>2010-04-29T08:51:29Z</time>
 </trkpt>
 <trkpt lat="47.325840" lon="12.799909">
 <ele>823.58</ele>
 <time>2010-04-29T08:51:36Z</time>
 </trkpt>
 <trkpt lat="47.326176" lon="12.799650">
 <ele>823.51</ele>
 <time>2010-04-29T08:51:45Z</time>
 </trkpt>
 <trkpt lat="47.326435" lon="12.799328">
 <ele>823.37</ele>
 <time>2010-04-29T08:51:53Z</time>
 </trkpt>
 <trkpt lat="47.326599" lon="12.799103">
 <ele>822.77</ele>
 <time>2010-04-29T08:51:57Z</time>
 </trkpt>
 <trkpt lat="47.326714" lon="12.798947">
 <ele>821.30</ele>
 <time>2010-04-29T08:52:00Z</time>
 </trkpt>
 <trkpt lat="47.326775" lon="12.798847">
 <ele>820.40</ele>
 <time>2010-04-29T08:52:02Z</time>
 </trkpt>
 <trkpt lat="47.326988" lon="12.798533">
 <ele>820.21</ele>
 <time>2010-04-29T08:52:09Z</time>
 </trkpt>
 <trkpt lat="47.327244" lon="12.798129">
 <ele>819.97</ele>
 <time>2010-04-29T08:52:17Z</time>
 </trkpt>
 <trkpt lat="47.327450" lon="12.797811">
 <ele>820.14</ele>
 <time>2010-04-29T08:52:24Z</time>
 </trkpt>
 <trkpt lat="47.327740" lon="12.797390">
 <ele>820.69</ele>
 <time>2010-04-29T08:52:34Z</time>
 </trkpt>
 <trkpt lat="47.328072" lon="12.797022">
 <ele>820.37</ele>
 <time>2010-04-29T08:52:43Z</time>
 </trkpt>
 <trkpt lat="47.328373" lon="12.796828">
 <ele>819.94</ele>
 <time>2010-04-29T08:52:50Z</time>
 </trkpt>
 <trkpt lat="47.328655" lon="12.796709">
 <ele>819.45</ele>
 <time>2010-04-29T08:52:56Z</time>
 </trkpt>
 <trkpt lat="47.329033" lon="12.796643">
 <ele>819.88</ele>
 <time>2010-04-29T08:53:04Z</time>
 </trkpt>
 <trkpt lat="47.329308" lon="12.796572">
 <ele>820.44</ele>
 <time>2010-04-29T08:53:09Z</time>
 </trkpt>
 <trkpt lat="47.329479" lon="12.796595">
 <ele>820.56</ele>
 <time>2010-04-29T08:53:13Z</time>
 </trkpt>
 <trkpt lat="47.329597" lon="12.796731">
 <ele>820.64</ele>
 <time>2010-04-29T08:53:17Z</time>
 </trkpt>
 <trkpt lat="47.329830" lon="12.796826">
 <ele>820.36</ele>
 <time>2010-04-29T08:53:22Z</time>
 </trkpt>
 <trkpt lat="47.330082" lon="12.796770">
 <ele>820.23</ele>
 <time>2010-04-29T08:53:26Z</time>
 </trkpt>
 <trkpt lat="47.330345" lon="12.796866">
 <ele>819.83</ele>
 <time>2010-04-29T08:53:32Z</time>
 </trkpt>
 <trkpt lat="47.330555" lon="12.797025">
 <ele>819.38</ele>
 <time>2010-04-29T08:53:37Z</time>
 </trkpt>
 <trkpt lat="47.330650" lon="12.797089">
 <ele>819.14</ele>
 <time>2010-04-29T08:53:39Z</time>
 </trkpt>
 <trkpt lat="47.331051" lon="12.797117">
 <ele>819.14</ele>
 <time>2010-04-29T08:53:46Z</time>
 </trkpt>
 <trkpt lat="47.331310" lon="12.797105">
 <ele>819.49</ele>
 <time>2010-04-29T08:53:51Z</time>
 </trkpt>
 <trkpt lat="47.331566" lon="12.797087">
 <ele>819.73</ele>
 <time>2010-04-29T08:53:56Z</time>
 </trkpt>
 <trkpt lat="47.331841" lon="12.797026">
 <ele>819.62</ele>
 <time>2010-04-29T08:54:01Z</time>
 </trkpt>
 <trkpt lat="47.332153" lon="12.796946">
 <ele>819.87</ele>
 <time>2010-04-29T08:54:07Z</time>
 </trkpt>
 <trkpt lat="47.332386" lon="12.797017">
 <ele>819.48</ele>
 <time>2010-04-29T08:54:13Z</time>
 </trkpt>
 <trkpt lat="47.332718" lon="12.797053">
 <ele>819.07</ele>
 <time>2010-04-29T08:54:20Z</time>
 </trkpt>
 <trkpt lat="47.332909" lon="12.797103">
 <ele>818.71</ele>
 <time>2010-04-29T08:54:24Z</time>
 </trkpt>
 <trkpt lat="47.333328" lon="12.797292">
 <ele>818.79</ele>
 <time>2010-04-29T08:54:33Z</time>
 </trkpt>
 <trkpt lat="47.333641" lon="12.797486">
 <ele>819.83</ele>
 <time>2010-04-29T08:54:41Z</time>
 </trkpt>
 <trkpt lat="47.333897" lon="12.797641">
 <ele>820.07</ele>
 <time>2010-04-29T08:54:47Z</time>
 </trkpt>
 <trkpt lat="47.334145" lon="12.797776">
 <ele>819.75</ele>
 <time>2010-04-29T08:54:52Z</time>
 </trkpt>
 <trkpt lat="47.334614" lon="12.797906">
 <ele>818.90</ele>
 <time>2010-04-29T08:55:01Z</time>
 </trkpt>
 <trkpt lat="47.335022" lon="12.797979">
 <ele>819.04</ele>
 <time>2010-04-29T08:55:09Z</time>
 </trkpt>
 <trkpt lat="47.335480" lon="12.797955">
 <ele>819.27</ele>
 <time>2010-04-29T08:55:18Z</time>
 </trkpt>
 <trkpt lat="47.335823" lon="12.797834">
 <ele>819.54</ele>
 <time>2010-04-29T08:55:25Z</time>
 </trkpt>
 <trkpt lat="47.336430" lon="12.797554">
 <ele>819.53</ele>
 <time>2010-04-29T08:55:37Z</time>
 </trkpt>
 <trkpt lat="47.336853" lon="12.797414">
 <ele>819.44</ele>
 <time>2010-04-29T08:55:45Z</time>
 </trkpt>
 <trkpt lat="47.337185" lon="12.797361">
 <ele>818.78</ele>
 <time>2010-04-29T08:55:51Z</time>
 </trkpt>
 <trkpt lat="47.337616" lon="12.797404">
 <ele>818.74</ele>
 <time>2010-04-29T08:55:59Z</time>
 </trkpt>
 <trkpt lat="47.337971" lon="12.797530">
 <ele>819.22</ele>
 <time>2010-04-29T08:56:06Z</time>
 </trkpt>
 <trkpt lat="47.338379" lon="12.797750">
 <ele>819.08</ele>
 <time>2010-04-29T08:56:14Z</time>
 </trkpt>
 <trkpt lat="47.338558" lon="12.797986">
 <ele>818.93</ele>
 <time>2010-04-29T08:56:19Z</time>
 </trkpt>
 <trkpt lat="47.338631" lon="12.798098">
 <ele>818.77</ele>
 <time>2010-04-29T08:56:21Z</time>
 </trkpt>
 <trkpt lat="47.338890" lon="12.798696">
 <ele>817.99</ele>
 <time>2010-04-29T08:56:30Z</time>
 </trkpt>
 <trkpt lat="47.339024" lon="12.799300">
 <ele>817.98</ele>
 <time>2010-04-29T08:56:38Z</time>
 </trkpt>
 <trkpt lat="47.339165" lon="12.800062">
 <ele>817.28</ele>
 <time>2010-04-29T08:56:48Z</time>
 </trkpt>
 <trkpt lat="47.339275" lon="12.800978">
 <ele>817.26</ele>
 <time>2010-04-29T08:57:00Z</time>
 </trkpt>
 <trkpt lat="47.339382" lon="12.801660">
 <ele>816.64</ele>
 <time>2010-04-29T08:57:09Z</time>
 </trkpt>
 <trkpt lat="47.339493" lon="12.802157">
 <ele>816.72</ele>
 <time>2010-04-29T08:57:16Z</time>
 </trkpt>
 <trkpt lat="47.339527" lon="12.802421">
 <ele>816.37</ele>
 <time>2010-04-29T08:57:20Z</time>
 </trkpt>
 <trkpt lat="47.339527" lon="12.802605">
 <ele>816.29</ele>
 <time>2010-04-29T08:57:26Z</time>
 </trkpt>
 <trkpt lat="47.339554" lon="12.802703">
 <ele>816.23</ele>
 <time>2010-04-29T08:57:29Z</time>
 </trkpt>
 <trkpt lat="47.339687" lon="12.802708">
 <ele>816.14</ele>
 <time>2010-04-29T08:57:34Z</time>
 </trkpt>
 <trkpt lat="47.340015" lon="12.802546">
 <ele>816.68</ele>
 <time>2010-04-29T08:57:43Z</time>
 </trkpt>
 <trkpt lat="47.340168" lon="12.802502">
 <ele>816.50</ele>
 <time>2010-04-29T08:57:48Z</time>
 </trkpt>
 <trkpt lat="47.340187" lon="12.802504">
 <ele>816.48</ele>
 <time>2010-04-29T08:57:49Z</time>
 </trkpt>
 <trkpt lat="47.340244" lon="12.802642">
 <ele>816.67</ele>
 <time>2010-04-29T08:57:53Z</time>
 </trkpt>
 <trkpt lat="47.340244" lon="12.802706">
 <ele>816.70</ele>
 <time>2010-04-29T08:57:54Z</time>
 </trkpt>
 <trkpt lat="47.340267" lon="12.803274">
 <ele>817.28</ele>
 <time>2010-04-29T08:58:02Z</time>
 </trkpt>
 <trkpt lat="47.340286" lon="12.803956">
 <ele>817.54</ele>
 <time>2010-04-29T08:58:11Z</time>
 </trkpt>
 <trkpt lat="47.340328" lon="12.804735">
 <ele>817.76</ele>
 <time>2010-04-29T08:58:21Z</time>
 </trkpt>
 <trkpt lat="47.340332" lon="12.804888">
 <ele>817.74</ele>
 <time>2010-04-29T08:58:23Z</time>
 </trkpt>
 <trkpt lat="47.340424" lon="12.805126">
 <ele>817.63</ele>
 <time>2010-04-29T08:58:27Z</time>
 </trkpt>
 <trkpt lat="47.340515" lon="12.805163">
 <ele>817.48</ele>
 <time>2010-04-29T08:58:29Z</time>
 </trkpt>
 <trkpt lat="47.340847" lon="12.805226">
 <ele>817.20</ele>
 <time>2010-04-29T08:58:36Z</time>
 </trkpt>
 <trkpt lat="47.341221" lon="12.805334">
 <ele>817.63</ele>
 <time>2010-04-29T08:58:44Z</time>
 </trkpt>
 <trkpt lat="47.341373" lon="12.805359">
 <ele>817.77</ele>
 <time>2010-04-29T08:58:47Z</time>
 </trkpt>
 <trkpt lat="47.341606" lon="12.805403">
 <ele>817.72</ele>
 <time>2010-04-29T08:58:52Z</time>
 </trkpt>
 <trkpt lat="47.341789" lon="12.805313">
 <ele>818.11</ele>
 <time>2010-04-29T08:58:56Z</time>
 </trkpt>
 <trkpt lat="47.341869" lon="12.805210">
 <ele>818.35</ele>
 <time>2010-04-29T08:58:58Z</time>
 </trkpt>
 <trkpt lat="47.342079" lon="12.805086">
 <ele>818.54</ele>
 <time>2010-04-29T08:59:03Z</time>
 </trkpt>
 <trkpt lat="47.342213" lon="12.805081">
 <ele>819.00</ele>
 <time>2010-04-29T08:59:06Z</time>
 </trkpt>
 <trkpt lat="47.342346" lon="12.805099">
 <ele>819.00</ele>
 <time>2010-04-29T08:59:09Z</time>
 </trkpt>
 <trkpt lat="47.342506" lon="12.805033">
 <ele>818.97</ele>
 <time>2010-04-29T08:59:13Z</time>
 </trkpt>
 <trkpt lat="47.342552" lon="12.804931">
 <ele>819.17</ele>
 <time>2010-04-29T08:59:15Z</time>
 </trkpt>
 <trkpt lat="47.342590" lon="12.804822">
 <ele>819.23</ele>
 <time>2010-04-29T08:59:17Z</time>
 </trkpt>
 <trkpt lat="47.342747" lon="12.804773">
 <ele>819.22</ele>
 <time>2010-04-29T08:59:21Z</time>
 </trkpt>
 <trkpt lat="47.342880" lon="12.804826">
 <ele>819.61</ele>
 <time>2010-04-29T08:59:24Z</time>
 </trkpt>
 <trkpt lat="47.343025" lon="12.804998">
 <ele>819.65</ele>
 <time>2010-04-29T08:59:28Z</time>
 </trkpt>
 <trkpt lat="47.343075" lon="12.805120">
 <ele>819.87</ele>
 <time>2010-04-29T08:59:30Z</time>
 </trkpt>
 <trkpt lat="47.343269" lon="12.805341">
 <ele>819.68</ele>
 <time>2010-04-29T08:59:35Z</time>
 </trkpt>
 <trkpt lat="47.343472" lon="12.805380">
 <ele>819.67</ele>
 <time>2010-04-29T08:59:39Z</time>
 </trkpt>
 <trkpt lat="47.343517" lon="12.805372">
 <ele>819.77</ele>
 <time>2010-04-29T08:59:40Z</time>
 </trkpt>
 <trkpt lat="47.343998" lon="12.805188">
 <ele>820.16</ele>
 <time>2010-04-29T08:59:50Z</time>
 </trkpt>
 <trkpt lat="47.344475" lon="12.805050">
 <ele>820.21</ele>
 <time>2010-04-29T09:00:00Z</time>
 </trkpt>
 <trkpt lat="47.345013" lon="12.805009">
 <ele>820.78</ele>
 <time>2010-04-29T09:00:11Z</time>
 </trkpt>
 <trkpt lat="47.345531" lon="12.805010">
 <ele>821.20</ele>
 <time>2010-04-29T09:00:22Z</time>
 </trkpt>
 <trkpt lat="47.345932" lon="12.805039">
 <ele>821.99</ele>
 <time>2010-04-29T09:00:30Z</time>
 </trkpt>
 <trkpt lat="47.346226" lon="12.805049">
 <ele>822.21</ele>
 <time>2010-04-29T09:00:36Z</time>
 </trkpt>
 <trkpt lat="47.346771" lon="12.805073">
 <ele>822.47</ele>
 <time>2010-04-29T09:00:47Z</time>
 </trkpt>
 <trkpt lat="47.347202" lon="12.805091">
 <ele>822.85</ele>
 <time>2010-04-29T09:00:56Z</time>
 </trkpt>
 <trkpt lat="47.347527" lon="12.805116">
 <ele>822.84</ele>
 <time>2010-04-29T09:01:03Z</time>
 </trkpt>
 <trkpt lat="47.347950" lon="12.805139">
 <ele>823.67</ele>
 <time>2010-04-29T09:01:12Z</time>
 </trkpt>
 <trkpt lat="47.348568" lon="12.805178">
 <ele>824.40</ele>
 <time>2010-04-29T09:01:25Z</time>
 </trkpt>
 <trkpt lat="47.349079" lon="12.805208">
 <ele>824.19</ele>
 <time>2010-04-29T09:01:35Z</time>
 </trkpt>
 <trkpt lat="47.349575" lon="12.805208">
 <ele>824.70</ele>
 <time>2010-04-29T09:01:45Z</time>
 </trkpt>
 <trkpt lat="47.349720" lon="12.805187">
 <ele>824.80</ele>
 <time>2010-04-29T09:01:48Z</time>
 </trkpt>
 <trkpt lat="47.350136" lon="12.805265">
 <ele>825.42</ele>
 <time>2010-04-29T09:01:57Z</time>
 </trkpt>
 <trkpt lat="47.350277" lon="12.805291">
 <ele>825.47</ele>
 <time>2010-04-29T09:02:00Z</time>
 </trkpt>
 <trkpt lat="47.350479" lon="12.805441">
 <ele>825.85</ele>
 <time>2010-04-29T09:02:05Z</time>
 </trkpt>
 <trkpt lat="47.350739" lon="12.805795">
 <ele>826.17</ele>
 <time>2010-04-29T09:02:13Z</time>
 </trkpt>
 <trkpt lat="47.350834" lon="12.805903">
 <ele>825.97</ele>
 <time>2010-04-29T09:02:18Z</time>
 </trkpt>
 <trkpt lat="47.350937" lon="12.806016">
 <ele>825.69</ele>
 <time>2010-04-29T09:02:23Z</time>
 </trkpt>
 <trkpt lat="47.351013" lon="12.806150">
 <ele>825.71</ele>
 <time>2010-04-29T09:02:26Z</time>
 </trkpt>
 <trkpt lat="47.351307" lon="12.806512">
 <ele>825.85</ele>
 <time>2010-04-29T09:02:34Z</time>
 </trkpt>
 <trkpt lat="47.351547" lon="12.806859">
 <ele>826.11</ele>
 <time>2010-04-29T09:02:41Z</time>
 </trkpt>
 <trkpt lat="47.351620" lon="12.806956">
 <ele>826.07</ele>
 <time>2010-04-29T09:02:43Z</time>
 </trkpt>
 <trkpt lat="47.351837" lon="12.807103">
 <ele>825.92</ele>
 <time>2010-04-29T09:02:48Z</time>
 </trkpt>
 <trkpt lat="47.352032" lon="12.807165">
 <ele>826.04</ele>
 <time>2010-04-29T09:02:52Z</time>
 </trkpt>
 <trkpt lat="47.352478" lon="12.807245">
 <ele>826.13</ele>
 <time>2010-04-29T09:03:01Z</time>
 </trkpt>
 <trkpt lat="47.352867" lon="12.807383">
 <ele>826.39</ele>
 <time>2010-04-29T09:03:09Z</time>
 </trkpt>
 <trkpt lat="47.353168" lon="12.807579">
 <ele>826.79</ele>
 <time>2010-04-29T09:03:16Z</time>
 </trkpt>
 <trkpt lat="47.353531" lon="12.807707">
 <ele>827.53</ele>
 <time>2010-04-29T09:03:24Z</time>
 </trkpt>
 <trkpt lat="47.353951" lon="12.807877">
 <ele>827.76</ele>
 <time>2010-04-29T09:03:33Z</time>
 </trkpt>
 <trkpt lat="47.354328" lon="12.808055">
 <ele>827.97</ele>
 <time>2010-04-29T09:03:41Z</time>
 </trkpt>
 <trkpt lat="47.354755" lon="12.808175">
 <ele>828.17</ele>
 <time>2010-04-29T09:03:50Z</time>
 </trkpt>
 <trkpt lat="47.355000" lon="12.808212">
 <ele>828.06</ele>
 <time>2010-04-29T09:03:55Z</time>
 </trkpt>
 <trkpt lat="47.355167" lon="12.808309">
 <ele>826.50</ele>
 <time>2010-04-29T09:04:00Z</time>
 </trkpt>
 <trkpt lat="47.355278" lon="12.808338">
 <ele>825.43</ele>
 <time>2010-04-29T09:04:04Z</time>
 </trkpt>
 <trkpt lat="47.355358" lon="12.808262">
 <ele>824.77</ele>
 <time>2010-04-29T09:04:06Z</time>
 </trkpt>
 <trkpt lat="47.355537" lon="12.808066">
 <ele>823.99</ele>
 <time>2010-04-29T09:04:11Z</time>
 </trkpt>
 <trkpt lat="47.355705" lon="12.808028">
 <ele>825.87</ele>
 <time>2010-04-29T09:04:17Z</time>
 </trkpt>
 <trkpt lat="47.355850" lon="12.808040">
 <ele>826.95</ele>
 <time>2010-04-29T09:04:22Z</time>
 </trkpt>
 <trkpt lat="47.356075" lon="12.808071">
 <ele>828.16</ele>
 <time>2010-04-29T09:04:30Z</time>
 </trkpt>
 <trkpt lat="47.356194" lon="12.808075">
 <ele>828.08</ele>
 <time>2010-04-29T09:04:37Z</time>
 </trkpt>
 <trkpt lat="47.356346" lon="12.808051">
 <ele>828.29</ele>
 <time>2010-04-29T09:04:43Z</time>
 </trkpt>
 <trkpt lat="47.356537" lon="12.808042">
 <ele>828.55</ele>
 <time>2010-04-29T09:04:50Z</time>
 </trkpt>
 <trkpt lat="47.356689" lon="12.808058">
 <ele>828.68</ele>
 <time>2010-04-29T09:04:57Z</time>
 </trkpt>
 <trkpt lat="47.356876" lon="12.808046">
 <ele>828.78</ele>
 <time>2010-04-29T09:05:04Z</time>
 </trkpt>
 <trkpt lat="47.357117" lon="12.808075">
 <ele>828.82</ele>
 <time>2010-04-29T09:05:12Z</time>
 </trkpt>
 <trkpt lat="47.357319" lon="12.808126">
 <ele>828.79</ele>
 <time>2010-04-29T09:05:19Z</time>
 </trkpt>
 <trkpt lat="47.357616" lon="12.808181">
 <ele>828.87</ele>
 <time>2010-04-29T09:05:29Z</time>
 </trkpt>
 <trkpt lat="47.357826" lon="12.808196">
 <ele>828.85</ele>
 <time>2010-04-29T09:05:37Z</time>
 </trkpt>
 <trkpt lat="47.358047" lon="12.808160">
 <ele>828.86</ele>
 <time>2010-04-29T09:05:45Z</time>
 </trkpt>
 <trkpt lat="47.358112" lon="12.808151">
 <ele>828.94</ele>
 <time>2010-04-29T09:05:50Z</time>
 </trkpt>
 <trkpt lat="47.359146" lon="12.807968">
 <ele>828.95</ele>
 <time>2010-04-29T09:08:54Z</time>
 </trkpt>
 <trkpt lat="47.359463" lon="12.807946">
 <ele>829.20</ele>
 <time>2010-04-29T09:09:02Z</time>
 </trkpt>
 <trkpt lat="47.359737" lon="12.807916">
 <ele>829.52</ele>
 <time>2010-04-29T09:09:09Z</time>
 </trkpt>
 <trkpt lat="47.359974" lon="12.807871">
 <ele>829.62</ele>
 <time>2010-04-29T09:09:15Z</time>
 </trkpt>
 <trkpt lat="47.360275" lon="12.807914">
 <ele>829.39</ele>
 <time>2010-04-29T09:09:22Z</time>
 </trkpt>
 <trkpt lat="47.360363" lon="12.807932">
 <ele>829.27</ele>
 <time>2010-04-29T09:09:24Z</time>
 </trkpt>
 <trkpt lat="47.360649" lon="12.808037">
 <ele>829.03</ele>
 <time>2010-04-29T09:09:31Z</time>
 </trkpt>
 <trkpt lat="47.360783" lon="12.807990">
 <ele>829.26</ele>
 <time>2010-04-29T09:09:36Z</time>
 </trkpt>
 <trkpt lat="47.360870" lon="12.807904">
 <ele>828.98</ele>
 <time>2010-04-29T09:09:41Z</time>
 </trkpt>
 <trkpt lat="47.360947" lon="12.807652">
 <ele>829.34</ele>
 <time>2010-04-29T09:09:46Z</time>
 </trkpt>
 <trkpt lat="47.361034" lon="12.807202">
 <ele>829.77</ele>
 <time>2010-04-29T09:09:54Z</time>
 </trkpt>
 <trkpt lat="47.361069" lon="12.806935">
 <ele>829.68</ele>
 <time>2010-04-29T09:09:59Z</time>
 </trkpt>
 <trkpt lat="47.361076" lon="12.806874">
 <ele>829.62</ele>
 <time>2010-04-29T09:10:00Z</time>
 </trkpt>
 <trkpt lat="47.361137" lon="12.806200">
 <ele>829.70</ele>
 <time>2010-04-29T09:10:10Z</time>
 </trkpt>
 <trkpt lat="47.361141" lon="12.806065">
 <ele>829.77</ele>
 <time>2010-04-29T09:10:12Z</time>
 </trkpt>
 <trkpt lat="47.361084" lon="12.805551">
 <ele>830.32</ele>
 <time>2010-04-29T09:10:20Z</time>
 </trkpt>
 <trkpt lat="47.360943" lon="12.805011">
 <ele>830.69</ele>
 <time>2010-04-29T09:10:29Z</time>
 </trkpt>
 <trkpt lat="47.360832" lon="12.804665">
 <ele>831.16</ele>
 <time>2010-04-29T09:10:35Z</time>
 </trkpt>
 <trkpt lat="47.360703" lon="12.804043">
 <ele>831.30</ele>
 <time>2010-04-29T09:10:45Z</time>
 </trkpt>
 <trkpt lat="47.360546" lon="12.803216">
 <ele>831.87</ele>
 <time>2010-04-29T09:10:58Z</time>
 </trkpt>
 <trkpt lat="47.360451" lon="12.802562">
 <ele>832.28</ele>
 <time>2010-04-29T09:11:08Z</time>
 </trkpt>
 <trkpt lat="47.360405" lon="12.801953">
 <ele>832.62</ele>
 <time>2010-04-29T09:11:17Z</time>
 </trkpt>
 <trkpt lat="47.360390" lon="12.801417">
 <ele>832.88</ele>
 <time>2010-04-29T09:11:25Z</time>
 </trkpt>
 <trkpt lat="47.360405" lon="12.800712">
 <ele>832.27</ele>
 <time>2010-04-29T09:11:34Z</time>
 </trkpt>
 <trkpt lat="47.360390" lon="12.800212">
 <ele>831.05</ele>
 <time>2010-04-29T09:11:40Z</time>
 </trkpt>
 <trkpt lat="47.360390" lon="12.800117">
 <ele>830.95</ele>
 <time>2010-04-29T09:11:41Z</time>
 </trkpt>
 <trkpt lat="47.360416" lon="12.799467">
 <ele>831.59</ele>
 <time>2010-04-29T09:11:49Z</time>
 </trkpt>
 <trkpt lat="47.360462" lon="12.798852">
 <ele>833.26</ele>
 <time>2010-04-29T09:11:59Z</time>
 </trkpt>
 <trkpt lat="47.360523" lon="12.798342">
 <ele>834.48</ele>
 <time>2010-04-29T09:12:08Z</time>
 </trkpt>
 <trkpt lat="47.360649" lon="12.797637">
 <ele>835.80</ele>
 <time>2010-04-29T09:12:21Z</time>
 </trkpt>
 <trkpt lat="47.360779" lon="12.796932">
 <ele>836.17</ele>
 <time>2010-04-29T09:12:34Z</time>
 </trkpt>
 <trkpt lat="47.360809" lon="12.796829">
 <ele>836.42</ele>
 <time>2010-04-29T09:12:36Z</time>
 </trkpt>
 <trkpt lat="47.360867" lon="12.796744">
 <ele>836.45</ele>
 <time>2010-04-29T09:12:38Z</time>
 </trkpt>
 <trkpt lat="47.361065" lon="12.796342">
 <ele>836.68</ele>
 <time>2010-04-29T09:12:46Z</time>
 </trkpt>
 <trkpt lat="47.361275" lon="12.795913">
 <ele>837.24</ele>
 <time>2010-04-29T09:12:55Z</time>
 </trkpt>
 <trkpt lat="47.361526" lon="12.795551">
 <ele>837.70</ele>
 <time>2010-04-29T09:13:04Z</time>
 </trkpt>
 <trkpt lat="47.361858" lon="12.795132">
 <ele>838.30</ele>
 <time>2010-04-29T09:13:15Z</time>
 </trkpt>
 <trkpt lat="47.362141" lon="12.794762">
 <ele>838.78</ele>
 <time>2010-04-29T09:13:24Z</time>
 </trkpt>
 <trkpt lat="47.362423" lon="12.794311">
 <ele>838.96</ele>
 <time>2010-04-29T09:13:33Z</time>
 </trkpt>
 <trkpt lat="47.362667" lon="12.793833">
 <ele>839.62</ele>
 <time>2010-04-29T09:13:42Z</time>
 </trkpt>
 <trkpt lat="47.362812" lon="12.793473">
 <ele>840.13</ele>
 <time>2010-04-29T09:13:49Z</time>
 </trkpt>
 <trkpt lat="47.363003" lon="12.792875">
 <ele>840.59</ele>
 <time>2010-04-29T09:13:59Z</time>
 </trkpt>
 <trkpt lat="47.363174" lon="12.792186">
 <ele>840.89</ele>
 <time>2010-04-29T09:14:10Z</time>
 </trkpt>
 <trkpt lat="47.363300" lon="12.791472">
 <ele>841.69</ele>
 <time>2010-04-29T09:14:21Z</time>
 </trkpt>
 <trkpt lat="47.363377" lon="12.790874">
 <ele>842.55</ele>
 <time>2010-04-29T09:14:30Z</time>
 </trkpt>
 <trkpt lat="47.363461" lon="12.790017">
 <ele>843.51</ele>
 <time>2010-04-29T09:14:43Z</time>
 </trkpt>
 <trkpt lat="47.363525" lon="12.789208">
 <ele>844.21</ele>
 <time>2010-04-29T09:14:55Z</time>
 </trkpt>
 <trkpt lat="47.363613" lon="12.788204">
 <ele>845.40</ele>
 <time>2010-04-29T09:15:10Z</time>
 </trkpt>
 <trkpt lat="47.363701" lon="12.787333">
 <ele>845.93</ele>
 <time>2010-04-29T09:15:23Z</time>
 </trkpt>
 <trkpt lat="47.363792" lon="12.786669">
 <ele>846.56</ele>
 <time>2010-04-29T09:15:33Z</time>
 </trkpt>
 <trkpt lat="47.363895" lon="12.786063">
 <ele>847.35</ele>
 <time>2010-04-29T09:15:42Z</time>
 </trkpt>
 <trkpt lat="47.364044" lon="12.785420">
 <ele>848.06</ele>
 <time>2010-04-29T09:15:52Z</time>
 </trkpt>
 <trkpt lat="47.364216" lon="12.784796">
 <ele>849.09</ele>
 <time>2010-04-29T09:16:02Z</time>
 </trkpt>
 <trkpt lat="47.364471" lon="12.783947">
 <ele>850.11</ele>
 <time>2010-04-29T09:16:16Z</time>
 </trkpt>
 <trkpt lat="47.364681" lon="12.783259">
 <ele>852.08</ele>
 <time>2010-04-29T09:16:28Z</time>
 </trkpt>
 <trkpt lat="47.364834" lon="12.782588">
 <ele>853.05</ele>
 <time>2010-04-29T09:16:39Z</time>
 </trkpt>
 <trkpt lat="47.364906" lon="12.781953">
 <ele>853.48</ele>
 <time>2010-04-29T09:16:48Z</time>
 </trkpt>
 <trkpt lat="47.364883" lon="12.781466">
 <ele>853.45</ele>
 <time>2010-04-29T09:16:55Z</time>
 </trkpt>
 <trkpt lat="47.364765" lon="12.780711">
 <ele>853.79</ele>
 <time>2010-04-29T09:17:06Z</time>
 </trkpt>
 <trkpt lat="47.364712" lon="12.780066">
 <ele>854.36</ele>
 <time>2010-04-29T09:17:15Z</time>
 </trkpt>
 <trkpt lat="47.364761" lon="12.779354">
 <ele>854.76</ele>
 <time>2010-04-29T09:17:25Z</time>
 </trkpt>
 <trkpt lat="47.364872" lon="12.778773">
 <ele>855.39</ele>
 <time>2010-04-29T09:17:34Z</time>
 </trkpt>
 <trkpt lat="47.365112" lon="12.777895">
 <ele>856.40</ele>
 <time>2010-04-29T09:17:48Z</time>
 </trkpt>
 <trkpt lat="47.365322" lon="12.777069">
 <ele>857.47</ele>
 <time>2010-04-29T09:18:01Z</time>
 </trkpt>
 <trkpt lat="47.365417" lon="12.776399">
 <ele>858.67</ele>
 <time>2010-04-29T09:18:11Z</time>
 </trkpt>
 <trkpt lat="47.365467" lon="12.775650">
 <ele>859.12</ele>
 <time>2010-04-29T09:18:22Z</time>
 </trkpt>
 <trkpt lat="47.365543" lon="12.774892">
 <ele>860.50</ele>
 <time>2010-04-29T09:18:33Z</time>
 </trkpt>
 <trkpt lat="47.365681" lon="12.774362">
 <ele>861.12</ele>
 <time>2010-04-29T09:18:41Z</time>
 </trkpt>
 <trkpt lat="47.365913" lon="12.773826">
 <ele>862.17</ele>
 <time>2010-04-29T09:18:50Z</time>
 </trkpt>
 <trkpt lat="47.366211" lon="12.773075">
 <ele>862.94</ele>
 <time>2010-04-29T09:19:02Z</time>
 </trkpt>
 <trkpt lat="47.366325" lon="12.772429">
 <ele>863.40</ele>
 <time>2010-04-29T09:19:11Z</time>
 </trkpt>
 <trkpt lat="47.366333" lon="12.771843">
 <ele>863.47</ele>
 <time>2010-04-29T09:19:19Z</time>
 </trkpt>
 <trkpt lat="47.366257" lon="12.771135">
 <ele>864.29</ele>
 <time>2010-04-29T09:19:29Z</time>
 </trkpt>
 <trkpt lat="47.366104" lon="12.770464">
 <ele>864.99</ele>
 <time>2010-04-29T09:19:39Z</time>
 </trkpt>
 <trkpt lat="47.365860" lon="12.769686">
 <ele>866.23</ele>
 <time>2010-04-29T09:19:52Z</time>
 </trkpt>
 <trkpt lat="47.365616" lon="12.769014">
 <ele>867.60</ele>
 <time>2010-04-29T09:20:04Z</time>
 </trkpt>
 <trkpt lat="47.365391" lon="12.768347">
 <ele>868.77</ele>
 <time>2010-04-29T09:20:16Z</time>
 </trkpt>
 <trkpt lat="47.365253" lon="12.767760">
 <ele>870.30</ele>
 <time>2010-04-29T09:20:26Z</time>
 </trkpt>
 <trkpt lat="47.365185" lon="12.767271">
 <ele>871.29</ele>
 <time>2010-04-29T09:20:34Z</time>
 </trkpt>
 <trkpt lat="47.365189" lon="12.766707">
 <ele>872.49</ele>
 <time>2010-04-29T09:20:43Z</time>
 </trkpt>
 <trkpt lat="47.365250" lon="12.766128">
 <ele>873.43</ele>
 <time>2010-04-29T09:20:52Z</time>
 </trkpt>
 <trkpt lat="47.365334" lon="12.765334">
 <ele>874.35</ele>
 <time>2010-04-29T09:21:04Z</time>
 </trkpt>
 <trkpt lat="47.365334" lon="12.764710">
 <ele>874.57</ele>
 <time>2010-04-29T09:21:13Z</time>
 </trkpt>
 <trkpt lat="47.365280" lon="12.763950">
 <ele>875.06</ele>
 <time>2010-04-29T09:21:24Z</time>
 </trkpt>
 <trkpt lat="47.365231" lon="12.763292">
 <ele>875.36</ele>
 <time>2010-04-29T09:21:34Z</time>
 </trkpt>
 <trkpt lat="47.365143" lon="12.762320">
 <ele>876.96</ele>
 <time>2010-04-29T09:21:49Z</time>
 </trkpt>
 <trkpt lat="47.365067" lon="12.761555">
 <ele>877.91</ele>
 <time>2010-04-29T09:22:01Z</time>
 </trkpt>
 <trkpt lat="47.364929" lon="12.760936">
 <ele>878.90</ele>
 <time>2010-04-29T09:22:11Z</time>
 </trkpt>
 <trkpt lat="47.364708" lon="12.760407">
 <ele>880.38</ele>
 <time>2010-04-29T09:22:21Z</time>
 </trkpt>
 <trkpt lat="47.364380" lon="12.759884">
 <ele>881.02</ele>
 <time>2010-04-29T09:22:32Z</time>
 </trkpt>
 <trkpt lat="47.364090" lon="12.759326">
 <ele>881.62</ele>
 <time>2010-04-29T09:22:43Z</time>
 </trkpt>
 <trkpt lat="47.363934" lon="12.758803">
 <ele>881.77</ele>
 <time>2010-04-29T09:22:52Z</time>
 </trkpt>
 <trkpt lat="47.363861" lon="12.758179">
 <ele>883.12</ele>
 <time>2010-04-29T09:23:02Z</time>
 </trkpt>
 <trkpt lat="47.363831" lon="12.757502">
 <ele>884.55</ele>
 <time>2010-04-29T09:23:13Z</time>
 </trkpt>
 <trkpt lat="47.363770" lon="12.756996">
 <ele>885.04</ele>
 <time>2010-04-29T09:23:21Z</time>
 </trkpt>
 <trkpt lat="47.363644" lon="12.756378">
 <ele>885.68</ele>
 <time>2010-04-29T09:23:31Z</time>
 </trkpt>
 <trkpt lat="47.363586" lon="12.755762">
 <ele>886.52</ele>
 <time>2010-04-29T09:23:41Z</time>
 </trkpt>
 <trkpt lat="47.363617" lon="12.755229">
 <ele>887.45</ele>
 <time>2010-04-29T09:23:49Z</time>
 </trkpt>
 <trkpt lat="47.363697" lon="12.754731">
 <ele>888.65</ele>
 <time>2010-04-29T09:23:57Z</time>
 </trkpt>
 <trkpt lat="47.363853" lon="12.754204">
 <ele>889.91</ele>
 <time>2010-04-29T09:24:06Z</time>
 </trkpt>
 <trkpt lat="47.364063" lon="12.753610">
 <ele>891.16</ele>
 <time>2010-04-29T09:24:16Z</time>
 </trkpt>
 <trkpt lat="47.364182" lon="12.753223">
 <ele>891.79</ele>
 <time>2010-04-29T09:24:22Z</time>
 </trkpt>
 <trkpt lat="47.364246" lon="12.752925">
 <ele>891.91</ele>
 <time>2010-04-29T09:24:26Z</time>
 </trkpt>
 <trkpt lat="47.364258" lon="12.752486">
 <ele>892.92</ele>
 <time>2010-04-29T09:24:33Z</time>
 </trkpt>
 <trkpt lat="47.364254" lon="12.752435">
 <ele>892.89</ele>
 <time>2010-04-29T09:24:34Z</time>
 </trkpt>
 <trkpt lat="47.364246" lon="12.752267">
 <ele>893.02</ele>
 <time>2010-04-29T09:24:37Z</time>
 </trkpt>
 <trkpt lat="47.364250" lon="12.752084">
 <ele>893.15</ele>
 <time>2010-04-29T09:24:40Z</time>
 </trkpt>
 <trkpt lat="47.364296" lon="12.751512">
 <ele>893.66</ele>
 <time>2010-04-29T09:24:49Z</time>
 </trkpt>
 <trkpt lat="47.364384" lon="12.750901">
 <ele>894.49</ele>
 <time>2010-04-29T09:24:58Z</time>
 </trkpt>
 <trkpt lat="47.364487" lon="12.750252">
 <ele>895.64</ele>
 <time>2010-04-29T09:25:08Z</time>
 </trkpt>
 <trkpt lat="47.364639" lon="12.749596">
 <ele>896.72</ele>
 <time>2010-04-29T09:25:19Z</time>
 </trkpt>
 <trkpt lat="47.364799" lon="12.749072">
 <ele>897.69</ele>
 <time>2010-04-29T09:25:28Z</time>
 </trkpt>
 <trkpt lat="47.364960" lon="12.748582">
 <ele>898.45</ele>
 <time>2010-04-29T09:25:36Z</time>
 </trkpt>
 <trkpt lat="47.365120" lon="12.748069">
 <ele>898.88</ele>
 <time>2010-04-29T09:25:43Z</time>
 </trkpt>
 <trkpt lat="47.365322" lon="12.747454">
 <ele>899.68</ele>
 <time>2010-04-29T09:25:53Z</time>
 </trkpt>
 <trkpt lat="47.365379" lon="12.747059">
 <ele>900.36</ele>
 <time>2010-04-29T09:26:00Z</time>
 </trkpt>
 <trkpt lat="47.365417" lon="12.746666">
 <ele>901.34</ele>
 <time>2010-04-29T09:26:07Z</time>
 </trkpt>
 <trkpt lat="47.365448" lon="12.746265">
 <ele>901.67</ele>
 <time>2010-04-29T09:26:14Z</time>
 </trkpt>
 <trkpt lat="47.365528" lon="12.745611">
 <ele>903.04</ele>
 <time>2010-04-29T09:26:25Z</time>
 </trkpt>
 <trkpt lat="47.365623" lon="12.745004">
 <ele>904.22</ele>
 <time>2010-04-29T09:26:35Z</time>
 </trkpt>
 <trkpt lat="47.365772" lon="12.744456">
 <ele>905.52</ele>
 <time>2010-04-29T09:26:44Z</time>
 </trkpt>
 <trkpt lat="47.365971" lon="12.743922">
 <ele>906.22</ele>
 <time>2010-04-29T09:26:53Z</time>
 </trkpt>
 <trkpt lat="47.366177" lon="12.743484">
 <ele>906.68</ele>
 <time>2010-04-29T09:27:01Z</time>
 </trkpt>
 <trkpt lat="47.366405" lon="12.742886">
 <ele>907.38</ele>
 <time>2010-04-29T09:27:11Z</time>
 </trkpt>
 <trkpt lat="47.366516" lon="12.742360">
 <ele>907.36</ele>
 <time>2010-04-29T09:27:19Z</time>
 </trkpt>
 <trkpt lat="47.366547" lon="12.741821">
 <ele>907.37</ele>
 <time>2010-04-29T09:27:27Z</time>
 </trkpt>
 <trkpt lat="47.366501" lon="12.741220">
 <ele>907.52</ele>
 <time>2010-04-29T09:27:36Z</time>
 </trkpt>
 <trkpt lat="47.366379" lon="12.740374">
 <ele>908.38</ele>
 <time>2010-04-29T09:27:49Z</time>
 </trkpt>
 <trkpt lat="47.366268" lon="12.739591">
 <ele>909.03</ele>
 <time>2010-04-29T09:28:01Z</time>
 </trkpt>
 <trkpt lat="47.366184" lon="12.738889">
 <ele>910.25</ele>
 <time>2010-04-29T09:28:12Z</time>
 </trkpt>
 <trkpt lat="47.366093" lon="12.738085">
 <ele>911.87</ele>
 <time>2010-04-29T09:28:25Z</time>
 </trkpt>
 <trkpt lat="47.366001" lon="12.737391">
 <ele>913.09</ele>
 <time>2010-04-29T09:28:36Z</time>
 </trkpt>
 <trkpt lat="47.365955" lon="12.736753">
 <ele>914.14</ele>
 <time>2010-04-29T09:28:46Z</time>
 </trkpt>
 <trkpt lat="47.365967" lon="12.736023">
 <ele>914.74</ele>
 <time>2010-04-29T09:28:57Z</time>
 </trkpt>
 <trkpt lat="47.366035" lon="12.735546">
 <ele>914.93</ele>
 <time>2010-04-29T09:29:04Z</time>
 </trkpt>
 <trkpt lat="47.366138" lon="12.734852">
 <ele>915.44</ele>
 <time>2010-04-29T09:29:14Z</time>
 </trkpt>
 <trkpt lat="47.366173" lon="12.734078">
 <ele>915.55</ele>
 <time>2010-04-29T09:29:25Z</time>
 </trkpt>
 <trkpt lat="47.366150" lon="12.733405">
 <ele>915.43</ele>
 <time>2010-04-29T09:29:35Z</time>
 </trkpt>
 <trkpt lat="47.366093" lon="12.732583">
 <ele>916.85</ele>
 <time>2010-04-29T09:29:47Z</time>
 </trkpt>
 <trkpt lat="47.366100" lon="12.731915">
 <ele>917.58</ele>
 <time>2010-04-29T09:29:57Z</time>
 </trkpt>
 <trkpt lat="47.366108" lon="12.731333">
 <ele>918.35</ele>
 <time>2010-04-29T09:30:06Z</time>
 </trkpt>
 <trkpt lat="47.366219" lon="12.730355">
 <ele>920.06</ele>
 <time>2010-04-29T09:30:21Z</time>
 </trkpt>
 <trkpt lat="47.366310" lon="12.729637">
 <ele>921.10</ele>
 <time>2010-04-29T09:30:32Z</time>
 </trkpt>
 <trkpt lat="47.366409" lon="12.728943">
 <ele>922.67</ele>
 <time>2010-04-29T09:30:43Z</time>
 </trkpt>
 <trkpt lat="47.366478" lon="12.728334">
 <ele>922.92</ele>
 <time>2010-04-29T09:30:52Z</time>
 </trkpt>
 <trkpt lat="47.366570" lon="12.727665">
 <ele>923.75</ele>
 <time>2010-04-29T09:31:02Z</time>
 </trkpt>
 <trkpt lat="47.366684" lon="12.726797">
 <ele>924.30</ele>
 <time>2010-04-29T09:31:15Z</time>
 </trkpt>
 <trkpt lat="47.366810" lon="12.725828">
 <ele>925.94</ele>
 <time>2010-04-29T09:31:30Z</time>
 </trkpt>
 <trkpt lat="47.366909" lon="12.725108">
 <ele>926.30</ele>
 <time>2010-04-29T09:31:41Z</time>
 </trkpt>
 <trkpt lat="47.367031" lon="12.724183">
 <ele>927.18</ele>
 <time>2010-04-29T09:31:55Z</time>
 </trkpt>
 <trkpt lat="47.367085" lon="12.723593">
 <ele>927.81</ele>
 <time>2010-04-29T09:32:04Z</time>
 </trkpt>
 <trkpt lat="47.367023" lon="12.722990">
 <ele>928.83</ele>
 <time>2010-04-29T09:32:13Z</time>
 </trkpt>
 <trkpt lat="47.366928" lon="12.722380">
 <ele>929.58</ele>
 <time>2010-04-29T09:32:22Z</time>
 </trkpt>
 <trkpt lat="47.366840" lon="12.722011">
 <ele>930.10</ele>
 <time>2010-04-29T09:32:28Z</time>
 </trkpt>
 <trkpt lat="47.366692" lon="12.721746">
 <ele>930.25</ele>
 <time>2010-04-29T09:32:33Z</time>
 </trkpt>
 <trkpt lat="47.366573" lon="12.721514">
 <ele>930.60</ele>
 <time>2010-04-29T09:32:37Z</time>
 </trkpt>
 <trkpt lat="47.366375" lon="12.721068">
 <ele>931.18</ele>
 <time>2010-04-29T09:32:45Z</time>
 </trkpt>
 <trkpt lat="47.366138" lon="12.720622">
 <ele>932.77</ele>
 <time>2010-04-29T09:32:54Z</time>
 </trkpt>
 <trkpt lat="47.365902" lon="12.720089">
 <ele>933.74</ele>
 <time>2010-04-29T09:33:04Z</time>
 </trkpt>
 <trkpt lat="47.365658" lon="12.719471">
 <ele>934.03</ele>
 <time>2010-04-29T09:33:15Z</time>
 </trkpt>
 <trkpt lat="47.365452" lon="12.719002">
 <ele>933.67</ele>
 <time>2010-04-29T09:33:22Z</time>
 </trkpt>
 <trkpt lat="47.365421" lon="12.718715">
 <ele>933.67</ele>
 <time>2010-04-29T09:33:26Z</time>
 </trkpt>
 <trkpt lat="47.365456" lon="12.718102">
 <ele>934.87</ele>
 <time>2010-04-29T09:33:35Z</time>
 </trkpt>
 <trkpt lat="47.365452" lon="12.717362">
 <ele>935.73</ele>
 <time>2010-04-29T09:33:46Z</time>
 </trkpt>
 <trkpt lat="47.365456" lon="12.716753">
 <ele>936.76</ele>
 <time>2010-04-29T09:33:55Z</time>
 </trkpt>
 <trkpt lat="47.365498" lon="12.716000">
 <ele>936.99</ele>
 <time>2010-04-29T09:34:06Z</time>
 </trkpt>
 <trkpt lat="47.365559" lon="12.715406">
 <ele>937.84</ele>
 <time>2010-04-29T09:34:15Z</time>
 </trkpt>
 <trkpt lat="47.365665" lon="12.714906">
 <ele>938.60</ele>
 <time>2010-04-29T09:34:23Z</time>
 </trkpt>
 <trkpt lat="47.365788" lon="12.714366">
 <ele>939.88</ele>
 <time>2010-04-29T09:34:32Z</time>
 </trkpt>
 <trkpt lat="47.365929" lon="12.713693">
 <ele>941.05</ele>
 <time>2010-04-29T09:34:43Z</time>
 </trkpt>
 <trkpt lat="47.366035" lon="12.713127">
 <ele>941.61</ele>
 <time>2010-04-29T09:34:52Z</time>
 </trkpt>
 <trkpt lat="47.366215" lon="12.712518">
 <ele>942.12</ele>
 <time>2010-04-29T09:35:02Z</time>
 </trkpt>
 <trkpt lat="47.366402" lon="12.711910">
 <ele>942.81</ele>
 <time>2010-04-29T09:35:12Z</time>
 </trkpt>
 <trkpt lat="47.366531" lon="12.711293">
 <ele>943.66</ele>
 <time>2010-04-29T09:35:22Z</time>
 </trkpt>
 <trkpt lat="47.366554" lon="12.710805">
 <ele>943.79</ele>
 <time>2010-04-29T09:35:29Z</time>
 </trkpt>
 <trkpt lat="47.366550" lon="12.710203">
 <ele>944.94</ele>
 <time>2010-04-29T09:35:38Z</time>
 </trkpt>
 <trkpt lat="47.366543" lon="12.709882">
 <ele>945.53</ele>
 <time>2010-04-29T09:35:43Z</time>
 </trkpt>
 <trkpt lat="47.366608" lon="12.709581">
 <ele>946.16</ele>
 <time>2010-04-29T09:35:48Z</time>
 </trkpt>
 <trkpt lat="47.366707" lon="12.709468">
 <ele>946.27</ele>
 <time>2010-04-29T09:35:51Z</time>
 </trkpt>
 <trkpt lat="47.367111" lon="12.709115">
 <ele>947.30</ele>
 <time>2010-04-29T09:36:02Z</time>
 </trkpt>
 <trkpt lat="47.367367" lon="12.708761">
 <ele>947.97</ele>
 <time>2010-04-29T09:36:10Z</time>
 </trkpt>
 <trkpt lat="47.367538" lon="12.708396">
 <ele>948.70</ele>
 <time>2010-04-29T09:36:17Z</time>
 </trkpt>
 <trkpt lat="47.367710" lon="12.707850">
 <ele>949.58</ele>
 <time>2010-04-29T09:36:26Z</time>
 </trkpt>
 <trkpt lat="47.367867" lon="12.707326">
 <ele>950.49</ele>
 <time>2010-04-29T09:36:35Z</time>
 </trkpt>
 <trkpt lat="47.367985" lon="12.706930">
 <ele>951.52</ele>
 <time>2010-04-29T09:36:43Z</time>
 </trkpt>
 <trkpt lat="47.367989" lon="12.706893">
 <ele>951.65</ele>
 <time>2010-04-29T09:36:44Z</time>
 </trkpt>
 <trkpt lat="47.367901" lon="12.706810">
 <ele>952.14</ele>
 <time>2010-04-29T09:36:49Z</time>
 </trkpt>
 <trkpt lat="47.367851" lon="12.706797">
 <ele>952.25</ele>
 <time>2010-04-29T09:36:51Z</time>
 </trkpt>
 <trkpt lat="47.367828" lon="12.706652">
 <ele>952.49</ele>
 <time>2010-04-29T09:36:55Z</time>
 </trkpt>
 <trkpt lat="47.367844" lon="12.706596">
 <ele>952.40</ele>
 <time>2010-04-29T09:36:56Z</time>
 </trkpt>
 <trkpt lat="47.367908" lon="12.706223">
 <ele>953.89</ele>
 <time>2010-04-29T09:37:03Z</time>
 </trkpt>
 <trkpt lat="47.367935" lon="12.705900">
 <ele>955.31</ele>
 <time>2010-04-29T09:37:09Z</time>
 </trkpt>
 <trkpt lat="47.368015" lon="12.705628">
 <ele>955.14</ele>
 <time>2010-04-29T09:37:14Z</time>
 </trkpt>
 <trkpt lat="47.368111" lon="12.705226">
 <ele>956.20</ele>
 <time>2010-04-29T09:37:21Z</time>
 </trkpt>
 <trkpt lat="47.368275" lon="12.704850">
 <ele>956.14</ele>
 <time>2010-04-29T09:37:28Z</time>
 </trkpt>
 <trkpt lat="47.368324" lon="12.704754">
 <ele>955.94</ele>
 <time>2010-04-29T09:37:30Z</time>
 </trkpt>
 <trkpt lat="47.368549" lon="12.704382">
 <ele>957.64</ele>
 <time>2010-04-29T09:37:38Z</time>
 </trkpt>
 <trkpt lat="47.368652" lon="12.704174">
 <ele>957.92</ele>
 <time>2010-04-29T09:37:42Z</time>
 </trkpt>
 <trkpt lat="47.368839" lon="12.703600">
 <ele>958.80</ele>
 <time>2010-04-29T09:37:52Z</time>
 </trkpt>
 <trkpt lat="47.368900" lon="12.703101">
 <ele>959.15</ele>
 <time>2010-04-29T09:38:00Z</time>
 </trkpt>
 <trkpt lat="47.368881" lon="12.702572">
 <ele>959.31</ele>
 <time>2010-04-29T09:38:08Z</time>
 </trkpt>
 <trkpt lat="47.368774" lon="12.702094">
 <ele>959.51</ele>
 <time>2010-04-29T09:38:15Z</time>
 </trkpt>
 <trkpt lat="47.368607" lon="12.701530">
 <ele>959.47</ele>
 <time>2010-04-29T09:38:24Z</time>
 </trkpt>
 <trkpt lat="47.368504" lon="12.701046">
 <ele>960.60</ele>
 <time>2010-04-29T09:38:32Z</time>
 </trkpt>
 <trkpt lat="47.368450" lon="12.700678">
 <ele>961.47</ele>
 <time>2010-04-29T09:38:38Z</time>
 </trkpt>
 <trkpt lat="47.368530" lon="12.700506">
 <ele>962.05</ele>
 <time>2010-04-29T09:38:42Z</time>
 </trkpt>
 <trkpt lat="47.368641" lon="12.700480">
 <ele>962.24</ele>
 <time>2010-04-29T09:38:45Z</time>
 </trkpt>
 <trkpt lat="47.368698" lon="12.700450">
 <ele>962.39</ele>
 <time>2010-04-29T09:38:47Z</time>
 </trkpt>
 <trkpt lat="47.368755" lon="12.700252">
 <ele>962.57</ele>
 <time>2010-04-29T09:38:51Z</time>
 </trkpt>
 <trkpt lat="47.368782" lon="12.699650">
 <ele>962.78</ele>
 <time>2010-04-29T09:39:00Z</time>
 </trkpt>
 <trkpt lat="47.368881" lon="12.699096">
 <ele>963.34</ele>
 <time>2010-04-29T09:39:08Z</time>
 </trkpt>
 <trkpt lat="47.369083" lon="12.698433">
 <ele>963.80</ele>
 <time>2010-04-29T09:39:18Z</time>
 </trkpt>
 <trkpt lat="47.369362" lon="12.697848">
 <ele>964.88</ele>
 <time>2010-04-29T09:39:28Z</time>
 </trkpt>
 <trkpt lat="47.369602" lon="12.697419">
 <ele>965.63</ele>
 <time>2010-04-29T09:39:36Z</time>
 </trkpt>
 <trkpt lat="47.369900" lon="12.696947">
 <ele>966.10</ele>
 <time>2010-04-29T09:39:45Z</time>
 </trkpt>
 <trkpt lat="47.370155" lon="12.696582">
 <ele>967.11</ele>
 <time>2010-04-29T09:39:53Z</time>
 </trkpt>
 <trkpt lat="47.370476" lon="12.696141">
 <ele>967.30</ele>
 <time>2010-04-29T09:40:02Z</time>
 </trkpt>
 <trkpt lat="47.370880" lon="12.695589">
 <ele>968.17</ele>
 <time>2010-04-29T09:40:14Z</time>
 </trkpt>
 <trkpt lat="47.371262" lon="12.695089">
 <ele>969.00</ele>
 <time>2010-04-29T09:40:25Z</time>
 </trkpt>
 <trkpt lat="47.371586" lon="12.694618">
 <ele>969.74</ele>
 <time>2010-04-29T09:40:35Z</time>
 </trkpt>
 <trkpt lat="47.371819" lon="12.694203">
 <ele>970.73</ele>
 <time>2010-04-29T09:40:43Z</time>
 </trkpt>
 <trkpt lat="47.372086" lon="12.693586">
 <ele>971.75</ele>
 <time>2010-04-29T09:40:54Z</time>
 </trkpt>
 <trkpt lat="47.372276" lon="12.693088">
 <ele>972.98</ele>
 <time>2010-04-29T09:41:03Z</time>
 </trkpt>
 <trkpt lat="47.372410" lon="12.692686">
 <ele>973.90</ele>
 <time>2010-04-29T09:41:11Z</time>
 </trkpt>
 <trkpt lat="47.372410" lon="12.692636">
 <ele>973.77</ele>
 <time>2010-04-29T09:41:12Z</time>
 </trkpt>
 <trkpt lat="47.372303" lon="12.692420">
 <ele>973.45</ele>
 <time>2010-04-29T09:41:17Z</time>
 </trkpt>
 <trkpt lat="47.372337" lon="12.692197">
 <ele>973.83</ele>
 <time>2010-04-29T09:41:21Z</time>
 </trkpt>
 <trkpt lat="47.372360" lon="12.692149">
 <ele>973.83</ele>
 <time>2010-04-29T09:41:22Z</time>
 </trkpt>
 <trkpt lat="47.372417" lon="12.692056">
 <ele>973.90</ele>
 <time>2010-04-29T09:41:24Z</time>
 </trkpt>
 <trkpt lat="47.372540" lon="12.691813">
 <ele>974.23</ele>
 <time>2010-04-29T09:41:30Z</time>
 </trkpt>
 <trkpt lat="47.372662" lon="12.691664">
 <ele>974.03</ele>
 <time>2010-04-29T09:41:36Z</time>
 </trkpt>
 <trkpt lat="47.372818" lon="12.691466">
 <ele>974.83</ele>
 <time>2010-04-29T09:41:42Z</time>
 </trkpt>
 <trkpt lat="47.372990" lon="12.691246">
 <ele>974.84</ele>
 <time>2010-04-29T09:41:48Z</time>
 </trkpt>
 <trkpt lat="47.373260" lon="12.690891">
 <ele>975.18</ele>
 <time>2010-04-29T09:41:56Z</time>
 </trkpt>
 <trkpt lat="47.373470" lon="12.690563">
 <ele>975.79</ele>
 <time>2010-04-29T09:42:03Z</time>
 </trkpt>
 <trkpt lat="47.373711" lon="12.690093">
 <ele>976.63</ele>
 <time>2010-04-29T09:42:12Z</time>
 </trkpt>
 <trkpt lat="47.373734" lon="12.690040">
 <ele>976.64</ele>
 <time>2010-04-29T09:42:13Z</time>
 </trkpt>
 <trkpt lat="47.373905" lon="12.689531">
 <ele>977.09</ele>
 <time>2010-04-29T09:42:22Z</time>
 </trkpt>
 <trkpt lat="47.374039" lon="12.688920">
 <ele>978.07</ele>
 <time>2010-04-29T09:42:32Z</time>
 </trkpt>
 <trkpt lat="47.374187" lon="12.688438">
 <ele>978.60</ele>
 <time>2010-04-29T09:42:40Z</time>
 </trkpt>
 <trkpt lat="47.374382" lon="12.687965">
 <ele>979.06</ele>
 <time>2010-04-29T09:42:48Z</time>
 </trkpt>
 <trkpt lat="47.374577" lon="12.687450">
 <ele>979.69</ele>
 <time>2010-04-29T09:42:57Z</time>
 </trkpt>
 <trkpt lat="47.374619" lon="12.687277">
 <ele>979.89</ele>
 <time>2010-04-29T09:43:00Z</time>
 </trkpt>
 <trkpt lat="47.374821" lon="12.686666">
 <ele>980.62</ele>
 <time>2010-04-29T09:43:10Z</time>
 </trkpt>
 <trkpt lat="47.374958" lon="12.686263">
 <ele>980.99</ele>
 <time>2010-04-29T09:43:17Z</time>
 </trkpt>
 <trkpt lat="47.375103" lon="12.685791">
 <ele>981.90</ele>
 <time>2010-04-29T09:43:25Z</time>
 </trkpt>
 <trkpt lat="47.375191" lon="12.685474">
 <ele>983.65</ele>
 <time>2010-04-29T09:43:32Z</time>
 </trkpt>
 <trkpt lat="47.375290" lon="12.685151">
 <ele>984.68</ele>
 <time>2010-04-29T09:43:39Z</time>
 </trkpt>
 <trkpt lat="47.375450" lon="12.684912">
 <ele>985.08</ele>
 <time>2010-04-29T09:43:45Z</time>
 </trkpt>
 <trkpt lat="47.375732" lon="12.684545">
 <ele>985.23</ele>
 <time>2010-04-29T09:43:54Z</time>
 </trkpt>
 <trkpt lat="47.375801" lon="12.684460">
 <ele>985.27</ele>
 <time>2010-04-29T09:43:56Z</time>
 </trkpt>
 <trkpt lat="47.375984" lon="12.684080">
 <ele>986.39</ele>
 <time>2010-04-29T09:44:03Z</time>
 </trkpt>
 <trkpt lat="47.376053" lon="12.683911">
 <ele>986.67</ele>
 <time>2010-04-29T09:44:06Z</time>
 </trkpt>
 <trkpt lat="47.376106" lon="12.683740">
 <ele>987.11</ele>
 <time>2010-04-29T09:44:09Z</time>
 </trkpt>
 <trkpt lat="47.376305" lon="12.683227">
 <ele>988.58</ele>
 <time>2010-04-29T09:44:18Z</time>
 </trkpt>
 <trkpt lat="47.376373" lon="12.683068">
 <ele>989.05</ele>
 <time>2010-04-29T09:44:21Z</time>
 </trkpt>
 <trkpt lat="47.376579" lon="12.682702">
 <ele>990.14</ele>
 <time>2010-04-29T09:44:29Z</time>
 </trkpt>
 <trkpt lat="47.376682" lon="12.682386">
 <ele>990.25</ele>
 <time>2010-04-29T09:44:35Z</time>
 </trkpt>
 <trkpt lat="47.376740" lon="12.682114">
 <ele>990.70</ele>
 <time>2010-04-29T09:44:40Z</time>
 </trkpt>
 <trkpt lat="47.376881" lon="12.681863">
 <ele>991.43</ele>
 <time>2010-04-29T09:44:46Z</time>
 </trkpt>
 <trkpt lat="47.377007" lon="12.681742">
 <ele>991.72</ele>
 <time>2010-04-29T09:44:51Z</time>
 </trkpt>
 <trkpt lat="47.377094" lon="12.681718">
 <ele>991.89</ele>
 <time>2010-04-29T09:44:55Z</time>
 </trkpt>
 <trkpt lat="47.377254" lon="12.681635">
 <ele>992.47</ele>
 <time>2010-04-29T09:45:01Z</time>
 </trkpt>
 <trkpt lat="47.377541" lon="12.681560">
 <ele>992.36</ele>
 <time>2010-04-29T09:45:09Z</time>
 </trkpt>
 <trkpt lat="47.377861" lon="12.681556">
 <ele>992.41</ele>
 <time>2010-04-29T09:45:17Z</time>
 </trkpt>
 <trkpt lat="47.378040" lon="12.681499">
 <ele>993.04</ele>
 <time>2010-04-29T09:45:23Z</time>
 </trkpt>
 <trkpt lat="47.378132" lon="12.681353">
 <ele>993.00</ele>
 <time>2010-04-29T09:45:28Z</time>
 </trkpt>
 <trkpt lat="47.378284" lon="12.681079">
 <ele>993.14</ele>
 <time>2010-04-29T09:45:34Z</time>
 </trkpt>
 <trkpt lat="47.378429" lon="12.680741">
 <ele>993.76</ele>
 <time>2010-04-29T09:45:41Z</time>
 </trkpt>
 <trkpt lat="47.378548" lon="12.680319">
 <ele>993.61</ele>
 <time>2010-04-29T09:45:48Z</time>
 </trkpt>
 <trkpt lat="47.378605" lon="12.679992">
 <ele>993.83</ele>
 <time>2010-04-29T09:45:53Z</time>
 </trkpt>
 <trkpt lat="47.378555" lon="12.679612">
 <ele>994.08</ele>
 <time>2010-04-29T09:45:59Z</time>
 </trkpt>
 <trkpt lat="47.378487" lon="12.679222">
 <ele>995.09</ele>
 <time>2010-04-29T09:46:06Z</time>
 </trkpt>
 <trkpt lat="47.378399" lon="12.678946">
 <ele>996.62</ele>
 <time>2010-04-29T09:46:13Z</time>
 </trkpt>
 <trkpt lat="47.378353" lon="12.678717">
 <ele>998.07</ele>
 <time>2010-04-29T09:46:20Z</time>
 </trkpt>
 <trkpt lat="47.378342" lon="12.678556">
 <ele>999.20</ele>
 <time>2010-04-29T09:46:26Z</time>
 </trkpt>
 <trkpt lat="47.378330" lon="12.678344">
 <ele>999.66</ele>
 <time>2010-04-29T09:46:33Z</time>
 </trkpt>
 <trkpt lat="47.378292" lon="12.678136">
 <ele>1000.13</ele>
 <time>2010-04-29T09:46:40Z</time>
 </trkpt>
 <trkpt lat="47.378265" lon="12.677942">
 <ele>1000.52</ele>
 <time>2010-04-29T09:46:46Z</time>
 </trkpt>
 <trkpt lat="47.378269" lon="12.677696">
 <ele>1000.82</ele>
 <time>2010-04-29T09:46:53Z</time>
 </trkpt>
 <trkpt lat="47.378288" lon="12.677442">
 <ele>1000.51</ele>
 <time>2010-04-29T09:47:00Z</time>
 </trkpt>
 <trkpt lat="47.378330" lon="12.677131">
 <ele>1000.70</ele>
 <time>2010-04-29T09:47:07Z</time>
 </trkpt>
 <trkpt lat="47.378426" lon="12.676840">
 <ele>1000.63</ele>
 <time>2010-04-29T09:47:14Z</time>
 </trkpt>
 <trkpt lat="47.378567" lon="12.676713">
 <ele>1000.13</ele>
 <time>2010-04-29T09:47:19Z</time>
 </trkpt>
 <trkpt lat="47.378864" lon="12.676649">
 <ele>998.94</ele>
 <time>2010-04-29T09:47:27Z</time>
 </trkpt>
 <trkpt lat="47.378948" lon="12.676661">
 <ele>998.50</ele>
 <time>2010-04-29T09:47:29Z</time>
 </trkpt>
 <trkpt lat="47.379150" lon="12.676617">
 <ele>997.77</ele>
 <time>2010-04-29T09:47:35Z</time>
 </trkpt>
 <trkpt lat="47.379181" lon="12.676602">
 <ele>997.69</ele>
 <time>2010-04-29T09:47:39Z</time>
 </trkpt>
 <trkpt lat="47.379185" lon="12.676523">
 <ele>997.57</ele>
 <time>2010-04-29T09:47:43Z</time>
 </trkpt>
 <trkpt lat="47.379211" lon="12.676165">
 <ele>997.79</ele>
 <time>2010-04-29T09:47:51Z</time>
 </trkpt>
 <trkpt lat="47.379253" lon="12.675641">
 <ele>997.88</ele>
 <time>2010-04-29T09:48:01Z</time>
 </trkpt>
 <trkpt lat="47.379284" lon="12.675366">
 <ele>998.40</ele>
 <time>2010-04-29T09:48:08Z</time>
 </trkpt>
 <trkpt lat="47.379292" lon="12.675164">
 <ele>998.92</ele>
 <time>2010-04-29T09:48:14Z</time>
 </trkpt>
 <trkpt lat="47.379318" lon="12.674818">
 <ele>999.10</ele>
 <time>2010-04-29T09:48:20Z</time>
 </trkpt>
 <trkpt lat="47.379364" lon="12.674253">
 <ele>999.95</ele>
 <time>2010-04-29T09:48:29Z</time>
 </trkpt>
 <trkpt lat="47.379406" lon="12.673947">
 <ele>1000.40</ele>
 <time>2010-04-29T09:48:34Z</time>
 </trkpt>
 <trkpt lat="47.379433" lon="12.673821">
 <ele>1000.44</ele>
 <time>2010-04-29T09:48:36Z</time>
 </trkpt>
 <trkpt lat="47.379559" lon="12.673326">
 <ele>1000.50</ele>
 <time>2010-04-29T09:48:44Z</time>
 </trkpt>
 <trkpt lat="47.379646" lon="12.672678">
 <ele>1000.72</ele>
 <time>2010-04-29T09:48:54Z</time>
 </trkpt>
 <trkpt lat="47.379723" lon="12.672064">
 <ele>1001.86</ele>
 <time>2010-04-29T09:49:04Z</time>
 </trkpt>
 <trkpt lat="47.379818" lon="12.671601">
 <ele>1002.60</ele>
 <time>2010-04-29T09:49:12Z</time>
 </trkpt>
 <trkpt lat="47.379974" lon="12.671055">
 <ele>1003.37</ele>
 <time>2010-04-29T09:49:22Z</time>
 </trkpt>
 <trkpt lat="47.380112" lon="12.670645">
 <ele>1004.44</ele>
 <time>2010-04-29T09:49:30Z</time>
 </trkpt>
 <trkpt lat="47.380234" lon="12.670326">
 <ele>1005.40</ele>
 <time>2010-04-29T09:49:36Z</time>
 </trkpt>
 <trkpt lat="47.380451" lon="12.669828">
 <ele>1006.12</ele>
 <time>2010-04-29T09:49:46Z</time>
 </trkpt>
 <trkpt lat="47.380566" lon="12.669484">
 <ele>1007.04</ele>
 <time>2010-04-29T09:49:53Z</time>
 </trkpt>
 <trkpt lat="47.380585" lon="12.669433">
 <ele>1006.97</ele>
 <time>2010-04-29T09:49:54Z</time>
 </trkpt>
 <trkpt lat="47.380707" lon="12.668927">
 <ele>1008.03</ele>
 <time>2010-04-29T09:50:03Z</time>
 </trkpt>
 <trkpt lat="47.380760" lon="12.668474">
 <ele>1009.47</ele>
 <time>2010-04-29T09:50:12Z</time>
 </trkpt>
 <trkpt lat="47.380856" lon="12.668199">
 <ele>1010.34</ele>
 <time>2010-04-29T09:50:18Z</time>
 </trkpt>
 <trkpt lat="47.380997" lon="12.667867">
 <ele>1010.46</ele>
 <time>2010-04-29T09:50:25Z</time>
 </trkpt>
 <trkpt lat="47.381191" lon="12.667559">
 <ele>1010.79</ele>
 <time>2010-04-29T09:50:33Z</time>
 </trkpt>
 <trkpt lat="47.381409" lon="12.667317">
 <ele>1011.25</ele>
 <time>2010-04-29T09:50:41Z</time>
 </trkpt>
 <trkpt lat="47.381580" lon="12.667176">
 <ele>1012.55</ele>
 <time>2010-04-29T09:50:47Z</time>
 </trkpt>
 <trkpt lat="47.381844" lon="12.667065">
 <ele>1012.61</ele>
 <time>2010-04-29T09:50:54Z</time>
 </trkpt>
 <trkpt lat="47.382168" lon="12.666914">
 <ele>1012.77</ele>
 <time>2010-04-29T09:51:03Z</time>
 </trkpt>
 <trkpt lat="47.382439" lon="12.666718">
 <ele>1013.46</ele>
 <time>2010-04-29T09:51:11Z</time>
 </trkpt>
 <trkpt lat="47.382687" lon="12.666478">
 <ele>1015.40</ele>
 <time>2010-04-29T09:51:20Z</time>
 </trkpt>
 <trkpt lat="47.382915" lon="12.666183">
 <ele>1016.71</ele>
 <time>2010-04-29T09:51:29Z</time>
 </trkpt>
 <trkpt lat="47.383099" lon="12.665825">
 <ele>1017.02</ele>
 <time>2010-04-29T09:51:37Z</time>
 </trkpt>
 <trkpt lat="47.383217" lon="12.665467">
 <ele>1017.10</ele>
 <time>2010-04-29T09:51:45Z</time>
 </trkpt>
 <trkpt lat="47.383274" lon="12.665254">
 <ele>1016.99</ele>
 <time>2010-04-29T09:51:53Z</time>
 </trkpt>
 <trkpt lat="47.383263" lon="12.665062">
 <ele>1017.10</ele>
 <time>2010-04-29T09:51:57Z</time>
 </trkpt>
 <trkpt lat="47.383255" lon="12.664782">
 <ele>1017.06</ele>
 <time>2010-04-29T09:52:02Z</time>
 </trkpt>
 <trkpt lat="47.383121" lon="12.664135">
 <ele>1017.75</ele>
 <time>2010-04-29T09:52:13Z</time>
 </trkpt>
 <trkpt lat="47.382980" lon="12.663659">
 <ele>1018.26</ele>
 <time>2010-04-29T09:52:21Z</time>
 </trkpt>
 <trkpt lat="47.382877" lon="12.663217">
 <ele>1018.89</ele>
 <time>2010-04-29T09:52:28Z</time>
 </trkpt>
 <trkpt lat="47.382854" lon="12.663092">
 <ele>1019.22</ele>
 <time>2010-04-29T09:52:30Z</time>
 </trkpt>
 <trkpt lat="47.382881" lon="12.662648">
 <ele>1019.69</ele>
 <time>2010-04-29T09:52:37Z</time>
 </trkpt>
 <trkpt lat="47.383007" lon="12.662157">
 <ele>1019.61</ele>
 <time>2010-04-29T09:52:45Z</time>
 </trkpt>
 <trkpt lat="47.383190" lon="12.661773">
 <ele>1020.15</ele>
 <time>2010-04-29T09:52:52Z</time>
 </trkpt>
 <trkpt lat="47.383320" lon="12.661564">
 <ele>1020.16</ele>
 <time>2010-04-29T09:52:56Z</time>
 </trkpt>
 <trkpt lat="47.383400" lon="12.661241">
 <ele>1020.48</ele>
 <time>2010-04-29T09:53:02Z</time>
 </trkpt>
 <trkpt lat="47.383476" lon="12.661023">
 <ele>1021.83</ele>
 <time>2010-04-29T09:53:07Z</time>
 </trkpt>
 <trkpt lat="47.383595" lon="12.660777">
 <ele>1022.84</ele>
 <time>2010-04-29T09:53:13Z</time>
 </trkpt>
 <trkpt lat="47.383678" lon="12.660456">
 <ele>1024.47</ele>
 <time>2010-04-29T09:53:21Z</time>
 </trkpt>
 <trkpt lat="47.383774" lon="12.660121">
 <ele>1026.79</ele>
 <time>2010-04-29T09:53:30Z</time>
 </trkpt>
 <trkpt lat="47.383884" lon="12.659873">
 <ele>1028.79</ele>
 <time>2010-04-29T09:53:37Z</time>
 </trkpt>
 <trkpt lat="47.383911" lon="12.659783">
 <ele>1029.01</ele>
 <time>2010-04-29T09:53:39Z</time>
 </trkpt>
 <trkpt lat="47.383934" lon="12.659665">
 <ele>1028.91</ele>
 <time>2010-04-29T09:53:41Z</time>
 </trkpt>
 <trkpt lat="47.384090" lon="12.659298">
 <ele>1026.70</ele>
 <time>2010-04-29T09:53:47Z</time>
 </trkpt>
 <trkpt lat="47.384350" lon="12.658886">
 <ele>1024.74</ele>
 <time>2010-04-29T09:53:53Z</time>
 </trkpt>
 <trkpt lat="47.384544" lon="12.658512">
 <ele>1024.46</ele>
 <time>2010-04-29T09:53:59Z</time>
 </trkpt>
 <trkpt lat="47.384686" lon="12.658224">
 <ele>1024.85</ele>
 <time>2010-04-29T09:54:05Z</time>
 </trkpt>
 <trkpt lat="47.384819" lon="12.657925">
 <ele>1025.43</ele>
 <time>2010-04-29T09:54:11Z</time>
 </trkpt>
 <trkpt lat="47.384945" lon="12.657665">
 <ele>1025.68</ele>
 <time>2010-04-29T09:54:17Z</time>
 </trkpt>
 <trkpt lat="47.385090" lon="12.657452">
 <ele>1026.76</ele>
 <time>2010-04-29T09:54:24Z</time>
 </trkpt>
 <trkpt lat="47.385204" lon="12.657258">
 <ele>1028.25</ele>
 <time>2010-04-29T09:54:31Z</time>
 </trkpt>
 <trkpt lat="47.385365" lon="12.656951">
 <ele>1029.31</ele>
 <time>2010-04-29T09:54:40Z</time>
 </trkpt>
 <trkpt lat="47.385513" lon="12.656538">
 <ele>1030.13</ele>
 <time>2010-04-29T09:54:50Z</time>
 </trkpt>
 <trkpt lat="47.385555" lon="12.656163">
 <ele>1030.29</ele>
 <time>2010-04-29T09:54:57Z</time>
 </trkpt>
 <trkpt lat="47.385529" lon="12.655818">
 <ele>1030.41</ele>
 <time>2010-04-29T09:55:03Z</time>
 </trkpt>
 <trkpt lat="47.385490" lon="12.655518">
 <ele>1030.52</ele>
 <time>2010-04-29T09:55:09Z</time>
 </trkpt>
 <trkpt lat="47.385471" lon="12.655186">
 <ele>1031.28</ele>
 <time>2010-04-29T09:55:16Z</time>
 </trkpt>
 <trkpt lat="47.385487" lon="12.654902">
 <ele>1031.07</ele>
 <time>2010-04-29T09:55:21Z</time>
 </trkpt>
 <trkpt lat="47.385509" lon="12.654490">
 <ele>1031.18</ele>
 <time>2010-04-29T09:55:28Z</time>
 </trkpt>
 <trkpt lat="47.385536" lon="12.654315">
 <ele>1031.28</ele>
 <time>2010-04-29T09:55:31Z</time>
 </trkpt>
 <trkpt lat="47.385612" lon="12.653908">
 <ele>1031.30</ele>
 <time>2010-04-29T09:55:38Z</time>
 </trkpt>
 <trkpt lat="47.385750" lon="12.653296">
 <ele>1032.32</ele>
 <time>2010-04-29T09:55:49Z</time>
 </trkpt>
 <trkpt lat="47.385841" lon="12.652929">
 <ele>1032.84</ele>
 <time>2010-04-29T09:55:56Z</time>
 </trkpt>
 <trkpt lat="47.385960" lon="12.652499">
 <ele>1033.79</ele>
 <time>2010-04-29T09:56:04Z</time>
 </trkpt>
 <trkpt lat="47.386078" lon="12.652035">
 <ele>1033.93</ele>
 <time>2010-04-29T09:56:12Z</time>
 </trkpt>
 <trkpt lat="47.386105" lon="12.651735">
 <ele>1035.23</ele>
 <time>2010-04-29T09:56:18Z</time>
 </trkpt>
 <trkpt lat="47.386116" lon="12.651682">
 <ele>1035.34</ele>
 <time>2010-04-29T09:56:19Z</time>
 </trkpt>
 <trkpt lat="47.386261" lon="12.651257">
 <ele>1035.05</ele>
 <time>2010-04-29T09:56:27Z</time>
 </trkpt>
 <trkpt lat="47.386372" lon="12.650900">
 <ele>1036.59</ele>
 <time>2010-04-29T09:56:35Z</time>
 </trkpt>
 <trkpt lat="47.386482" lon="12.650671">
 <ele>1037.76</ele>
 <time>2010-04-29T09:56:42Z</time>
 </trkpt>
 <trkpt lat="47.386608" lon="12.650399">
 <ele>1037.48</ele>
 <time>2010-04-29T09:56:49Z</time>
 </trkpt>
 <trkpt lat="47.386635" lon="12.650348">
 <ele>1037.35</ele>
 <time>2010-04-29T09:56:50Z</time>
 </trkpt>
 <trkpt lat="47.386822" lon="12.649878">
 <ele>1036.18</ele>
 <time>2010-04-29T09:56:58Z</time>
 </trkpt>
 <trkpt lat="47.386978" lon="12.649479">
 <ele>1036.56</ele>
 <time>2010-04-29T09:57:06Z</time>
 </trkpt>
 <trkpt lat="47.387127" lon="12.649041">
 <ele>1037.00</ele>
 <time>2010-04-29T09:57:15Z</time>
 </trkpt>
 <trkpt lat="47.387161" lon="12.648809">
 <ele>1038.15</ele>
 <time>2010-04-29T09:57:21Z</time>
 </trkpt>
 <trkpt lat="47.387188" lon="12.648507">
 <ele>1040.27</ele>
 <time>2010-04-29T09:57:30Z</time>
 </trkpt>
 <trkpt lat="47.387199" lon="12.648276">
 <ele>1041.78</ele>
 <time>2010-04-29T09:57:37Z</time>
 </trkpt>
 <trkpt lat="47.387192" lon="12.648004">
 <ele>1043.79</ele>
 <time>2010-04-29T09:57:45Z</time>
 </trkpt>
 <trkpt lat="47.387180" lon="12.647774">
 <ele>1045.92</ele>
 <time>2010-04-29T09:57:52Z</time>
 </trkpt>
 <trkpt lat="47.387230" lon="12.647547">
 <ele>1046.52</ele>
 <time>2010-04-29T09:57:58Z</time>
 </trkpt>
 <trkpt lat="47.387260" lon="12.647246">
 <ele>1046.79</ele>
 <time>2010-04-29T09:58:05Z</time>
 </trkpt>
 <trkpt lat="47.387295" lon="12.647143">
 <ele>1046.45</ele>
 <time>2010-04-29T09:58:07Z</time>
 </trkpt>
 <trkpt lat="47.387417" lon="12.646969">
 <ele>1044.53</ele>
 <time>2010-04-29T09:58:11Z</time>
 </trkpt>
 <trkpt lat="47.387745" lon="12.646718">
 <ele>1042.56</ele>
 <time>2010-04-29T09:58:17Z</time>
 </trkpt>
 <trkpt lat="47.388035" lon="12.646411">
 <ele>1041.36</ele>
 <time>2010-04-29T09:58:23Z</time>
 </trkpt>
 <trkpt lat="47.388248" lon="12.646007">
 <ele>1039.89</ele>
 <time>2010-04-29T09:58:29Z</time>
 </trkpt>
 <trkpt lat="47.388382" lon="12.645596">
 <ele>1041.06</ele>
 <time>2010-04-29T09:58:36Z</time>
 </trkpt>
 <trkpt lat="47.388470" lon="12.645246">
 <ele>1041.20</ele>
 <time>2010-04-29T09:58:42Z</time>
 </trkpt>
 <trkpt lat="47.388523" lon="12.644830">
 <ele>1041.97</ele>
 <time>2010-04-29T09:58:49Z</time>
 </trkpt>
 <trkpt lat="47.388561" lon="12.644295">
 <ele>1042.67</ele>
 <time>2010-04-29T09:58:58Z</time>
 </trkpt>
 <trkpt lat="47.388603" lon="12.643716">
 <ele>1043.28</ele>
 <time>2010-04-29T09:59:08Z</time>
 </trkpt>
 <trkpt lat="47.388630" lon="12.643322">
 <ele>1044.00</ele>
 <time>2010-04-29T09:59:15Z</time>
 </trkpt>
 <trkpt lat="47.388668" lon="12.643068">
 <ele>1044.21</ele>
 <time>2010-04-29T09:59:20Z</time>
 </trkpt>
 <trkpt lat="47.388702" lon="12.642876">
 <ele>1044.45</ele>
 <time>2010-04-29T09:59:24Z</time>
 </trkpt>
 <trkpt lat="47.388744" lon="12.642659">
 <ele>1044.75</ele>
 <time>2010-04-29T09:59:28Z</time>
 </trkpt>
 <trkpt lat="47.388760" lon="12.642259">
 <ele>1045.57</ele>
 <time>2010-04-29T09:59:36Z</time>
 </trkpt>
 <trkpt lat="47.388756" lon="12.641863">
 <ele>1046.01</ele>
 <time>2010-04-29T09:59:44Z</time>
 </trkpt>
 <trkpt lat="47.388790" lon="12.641508">
 <ele>1046.98</ele>
 <time>2010-04-29T09:59:51Z</time>
 </trkpt>
 <trkpt lat="47.388813" lon="12.641224">
 <ele>1047.78</ele>
 <time>2010-04-29T09:59:57Z</time>
 </trkpt>
 <trkpt lat="47.388840" lon="12.641051">
 <ele>1047.98</ele>
 <time>2010-04-29T10:00:02Z</time>
 </trkpt>
 <trkpt lat="47.388885" lon="12.640947">
 <ele>1048.30</ele>
 <time>2010-04-29T10:00:07Z</time>
 </trkpt>
 <trkpt lat="47.388893" lon="12.640937">
 <ele>1048.33</ele>
 <time>2010-04-29T10:00:08Z</time>
 </trkpt>
 <trkpt lat="47.388874" lon="12.640860">
 <ele>1048.46</ele>
 <time>2010-04-29T10:00:16Z</time>
 </trkpt>
 <trkpt lat="47.388802" lon="12.640894">
 <ele>1048.26</ele>
 <time>2010-04-29T10:01:13Z</time>
 </trkpt>
 <trkpt lat="47.388824" lon="12.640820">
 <ele>1048.32</ele>
 <time>2010-04-29T10:01:19Z</time>
 </trkpt>
 <trkpt lat="47.388882" lon="12.640680">
 <ele>1048.55</ele>
 <time>2010-04-29T10:01:24Z</time>
 </trkpt>
 <trkpt lat="47.388943" lon="12.640410">
 <ele>1049.51</ele>
 <time>2010-04-29T10:01:32Z</time>
 </trkpt>
 <trkpt lat="47.388969" lon="12.640267">
 <ele>1049.79</ele>
 <time>2010-04-29T10:01:36Z</time>
 </trkpt>
 <trkpt lat="47.389069" lon="12.640058">
 <ele>1049.29</ele>
 <time>2010-04-29T10:01:42Z</time>
 </trkpt>
 <trkpt lat="47.389214" lon="12.639905">
 <ele>1049.03</ele>
 <time>2010-04-29T10:01:47Z</time>
 </trkpt>
 <trkpt lat="47.389317" lon="12.639742">
 <ele>1049.26</ele>
 <time>2010-04-29T10:01:51Z</time>
 </trkpt>
 <trkpt lat="47.389427" lon="12.639539">
 <ele>1049.75</ele>
 <time>2010-04-29T10:01:56Z</time>
 </trkpt>
 <trkpt lat="47.389515" lon="12.639337">
 <ele>1049.82</ele>
 <time>2010-04-29T10:02:01Z</time>
 </trkpt>
 <trkpt lat="47.389507" lon="12.639099">
 <ele>1049.72</ele>
 <time>2010-04-29T10:02:06Z</time>
 </trkpt>
 <trkpt lat="47.389488" lon="12.638825">
 <ele>1049.56</ele>
 <time>2010-04-29T10:02:11Z</time>
 </trkpt>
 <trkpt lat="47.389397" lon="12.638386">
 <ele>1049.59</ele>
 <time>2010-04-29T10:02:19Z</time>
 </trkpt>
 <trkpt lat="47.389263" lon="12.637942">
 <ele>1050.07</ele>
 <time>2010-04-29T10:02:28Z</time>
 </trkpt>
 <trkpt lat="47.389217" lon="12.637770">
 <ele>1050.19</ele>
 <time>2010-04-29T10:02:33Z</time>
 </trkpt>
 <trkpt lat="47.389221" lon="12.637745">
 <ele>1050.42</ele>
 <time>2010-04-29T10:02:36Z</time>
 </trkpt>
 <trkpt lat="47.389210" lon="12.637728">
 <ele>1050.46</ele>
 <time>2010-04-29T10:02:40Z</time>
 </trkpt>
 <trkpt lat="47.389153" lon="12.637522">
 <ele>1050.21</ele>
 <time>2010-04-29T10:02:49Z</time>
 </trkpt>
 <trkpt lat="47.389118" lon="12.637127">
 <ele>1050.48</ele>
 <time>2010-04-29T10:02:57Z</time>
 </trkpt>
 <trkpt lat="47.389133" lon="12.636684">
 <ele>1050.30</ele>
 <time>2010-04-29T10:03:06Z</time>
 </trkpt>
 <trkpt lat="47.389133" lon="12.636360">
 <ele>1050.63</ele>
 <time>2010-04-29T10:03:13Z</time>
 </trkpt>
 <trkpt lat="47.389168" lon="12.636014">
 <ele>1051.40</ele>
 <time>2010-04-29T10:03:21Z</time>
 </trkpt>
 <trkpt lat="47.389233" lon="12.635779">
 <ele>1053.43</ele>
 <time>2010-04-29T10:03:27Z</time>
 </trkpt>
 <trkpt lat="47.389282" lon="12.635488">
 <ele>1054.41</ele>
 <time>2010-04-29T10:03:34Z</time>
 </trkpt>
 <trkpt lat="47.389404" lon="12.635152">
 <ele>1055.78</ele>
 <time>2010-04-29T10:03:43Z</time>
 </trkpt>
 <trkpt lat="47.389553" lon="12.634845">
 <ele>1056.05</ele>
 <time>2010-04-29T10:03:52Z</time>
 </trkpt>
 <trkpt lat="47.389580" lon="12.634796">
 <ele>1056.05</ele>
 <time>2010-04-29T10:03:53Z</time>
 </trkpt>
 <trkpt lat="47.389622" lon="12.634684">
 <ele>1055.43</ele>
 <time>2010-04-29T10:03:55Z</time>
 </trkpt>
 <trkpt lat="47.389744" lon="12.634455">
 <ele>1053.58</ele>
 <time>2010-04-29T10:03:59Z</time>
 </trkpt>
 <trkpt lat="47.389938" lon="12.634165">
 <ele>1053.52</ele>
 <time>2010-04-29T10:04:06Z</time>
 </trkpt>
 <trkpt lat="47.390102" lon="12.633857">
 <ele>1054.10</ele>
 <time>2010-04-29T10:04:14Z</time>
 </trkpt>
 <trkpt lat="47.390263" lon="12.633520">
 <ele>1054.47</ele>
 <time>2010-04-29T10:04:22Z</time>
 </trkpt>
 <trkpt lat="47.390408" lon="12.633106">
 <ele>1054.86</ele>
 <time>2010-04-29T10:04:32Z</time>
 </trkpt>
 <trkpt lat="47.390465" lon="12.632780">
 <ele>1054.93</ele>
 <time>2010-04-29T10:04:38Z</time>
 </trkpt>
 <trkpt lat="47.390434" lon="12.632286">
 <ele>1055.17</ele>
 <time>2010-04-29T10:04:46Z</time>
 </trkpt>
 <trkpt lat="47.390423" lon="12.632171">
 <ele>1055.05</ele>
 <time>2010-04-29T10:04:48Z</time>
 </trkpt>
 <trkpt lat="47.390408" lon="12.631748">
 <ele>1056.13</ele>
 <time>2010-04-29T10:04:55Z</time>
 </trkpt>
 <trkpt lat="47.390423" lon="12.631236">
 <ele>1056.75</ele>
 <time>2010-04-29T10:05:03Z</time>
 </trkpt>
 <trkpt lat="47.390446" lon="12.630993">
 <ele>1057.32</ele>
 <time>2010-04-29T10:05:07Z</time>
 </trkpt>
 <trkpt lat="47.390476" lon="12.630751">
 <ele>1057.56</ele>
 <time>2010-04-29T10:05:11Z</time>
 </trkpt>
 <trkpt lat="47.390533" lon="12.630212">
 <ele>1057.39</ele>
 <time>2010-04-29T10:05:20Z</time>
 </trkpt>
 <trkpt lat="47.390530" lon="12.630117">
 <ele>1057.46</ele>
 <time>2010-04-29T10:05:22Z</time>
 </trkpt>
 <trkpt lat="47.390430" lon="12.630024">
 <ele>1057.23</ele>
 <time>2010-04-29T10:05:26Z</time>
 </trkpt>
 <trkpt lat="47.390228" lon="12.629908">
 <ele>1057.51</ele>
 <time>2010-04-29T10:05:32Z</time>
 </trkpt>
 <trkpt lat="47.390255" lon="12.629631">
 <ele>1057.70</ele>
 <time>2010-04-29T10:05:37Z</time>
 </trkpt>
 <trkpt lat="47.390297" lon="12.629398">
 <ele>1058.34</ele>
 <time>2010-04-29T10:05:41Z</time>
 </trkpt>
 <trkpt lat="47.390388" lon="12.629018">
 <ele>1058.64</ele>
 <time>2010-04-29T10:05:48Z</time>
 </trkpt>
 <trkpt lat="47.390446" lon="12.628633">
 <ele>1059.47</ele>
 <time>2010-04-29T10:05:56Z</time>
 </trkpt>
 <trkpt lat="47.390442" lon="12.628412">
 <ele>1059.50</ele>
 <time>2010-04-29T10:06:00Z</time>
 </trkpt>
 <trkpt lat="47.390320" lon="12.628192">
 <ele>1059.65</ele>
 <time>2010-04-29T10:06:05Z</time>
 </trkpt>
 <trkpt lat="47.390160" lon="12.627933">
 <ele>1061.09</ele>
 <time>2010-04-29T10:06:12Z</time>
 </trkpt>
 <trkpt lat="47.389977" lon="12.627629">
 <ele>1061.85</ele>
 <time>2010-04-29T10:06:19Z</time>
 </trkpt>
 <trkpt lat="47.389835" lon="12.627304">
 <ele>1062.05</ele>
 <time>2010-04-29T10:06:26Z</time>
 </trkpt>
 <trkpt lat="47.389767" lon="12.627013">
 <ele>1062.49</ele>
 <time>2010-04-29T10:06:31Z</time>
 </trkpt>
 <trkpt lat="47.389660" lon="12.626513">
 <ele>1062.11</ele>
 <time>2010-04-29T10:06:39Z</time>
 </trkpt>
 <trkpt lat="47.389530" lon="12.625942">
 <ele>1062.26</ele>
 <time>2010-04-29T10:06:48Z</time>
 </trkpt>
 <trkpt lat="47.389294" lon="12.625408">
 <ele>1062.70</ele>
 <time>2010-04-29T10:06:57Z</time>
 </trkpt>
 <trkpt lat="47.389145" lon="12.625024">
 <ele>1063.93</ele>
 <time>2010-04-29T10:07:04Z</time>
 </trkpt>
 <trkpt lat="47.389038" lon="12.624515">
 <ele>1065.36</ele>
 <time>2010-04-29T10:07:13Z</time>
 </trkpt>
 <trkpt lat="47.388931" lon="12.624051">
 <ele>1066.75</ele>
 <time>2010-04-29T10:07:21Z</time>
 </trkpt>
 <trkpt lat="47.388874" lon="12.623695">
 <ele>1066.80</ele>
 <time>2010-04-29T10:07:27Z</time>
 </trkpt>
 <trkpt lat="47.388714" lon="12.623282">
 <ele>1066.68</ele>
 <time>2010-04-29T10:07:34Z</time>
 </trkpt>
 <trkpt lat="47.388538" lon="12.622777">
 <ele>1066.84</ele>
 <time>2010-04-29T10:07:42Z</time>
 </trkpt>
 <trkpt lat="47.388420" lon="12.622364">
 <ele>1067.31</ele>
 <time>2010-04-29T10:07:49Z</time>
 </trkpt>
 <trkpt lat="47.388256" lon="12.621855">
 <ele>1068.47</ele>
 <time>2010-04-29T10:07:58Z</time>
 </trkpt>
 <trkpt lat="47.388062" lon="12.621380">
 <ele>1069.57</ele>
 <time>2010-04-29T10:08:07Z</time>
 </trkpt>
 <trkpt lat="47.387939" lon="12.620895">
 <ele>1069.82</ele>
 <time>2010-04-29T10:08:15Z</time>
 </trkpt>
 <trkpt lat="47.387905" lon="12.620630">
 <ele>1069.78</ele>
 <time>2010-04-29T10:08:19Z</time>
 </trkpt>
 <trkpt lat="47.387772" lon="12.620040">
 <ele>1070.06</ele>
 <time>2010-04-29T10:08:28Z</time>
 </trkpt>
 <trkpt lat="47.387695" lon="12.619629">
 <ele>1069.95</ele>
 <time>2010-04-29T10:08:34Z</time>
 </trkpt>
 <trkpt lat="47.387600" lon="12.619113">
 <ele>1068.80</ele>
 <time>2010-04-29T10:08:41Z</time>
 </trkpt>
 <trkpt lat="47.387569" lon="12.618942">
 <ele>1069.04</ele>
 <time>2010-04-29T10:08:45Z</time>
 </trkpt>
 <trkpt lat="47.387524" lon="12.618650">
 <ele>1069.16</ele>
 <time>2010-04-29T10:08:51Z</time>
 </trkpt>
 <trkpt lat="47.387470" lon="12.618320">
 <ele>1069.47</ele>
 <time>2010-04-29T10:08:57Z</time>
 </trkpt>
 <trkpt lat="47.387356" lon="12.617940">
 <ele>1070.09</ele>
 <time>2010-04-29T10:09:04Z</time>
 </trkpt>
 <trkpt lat="47.387276" lon="12.617705">
 <ele>1071.23</ele>
 <time>2010-04-29T10:09:10Z</time>
 </trkpt>
 <trkpt lat="47.387192" lon="12.617444">
 <ele>1070.92</ele>
 <time>2010-04-29T10:09:16Z</time>
 </trkpt>
 <trkpt lat="47.387089" lon="12.617158">
 <ele>1071.48</ele>
 <time>2010-04-29T10:09:22Z</time>
 </trkpt>
 <trkpt lat="47.386826" lon="12.616640">
 <ele>1072.05</ele>
 <time>2010-04-29T10:09:33Z</time>
 </trkpt>
 <trkpt lat="47.386600" lon="12.616260">
 <ele>1073.08</ele>
 <time>2010-04-29T10:09:42Z</time>
 </trkpt>
 <trkpt lat="47.386433" lon="12.616011">
 <ele>1074.84</ele>
 <time>2010-04-29T10:09:49Z</time>
 </trkpt>
 <trkpt lat="47.386372" lon="12.615912">
 <ele>1075.25</ele>
 <time>2010-04-29T10:09:54Z</time>
 </trkpt>
 <trkpt lat="47.386318" lon="12.615831">
 <ele>1075.67</ele>
 <time>2010-04-29T10:09:59Z</time>
 </trkpt>
 <trkpt lat="47.386211" lon="12.615657">
 <ele>1075.61</ele>
 <time>2010-04-29T10:10:04Z</time>
 </trkpt>
 <trkpt lat="47.386070" lon="12.615407">
 <ele>1075.64</ele>
 <time>2010-04-29T10:10:10Z</time>
 </trkpt>
 <trkpt lat="47.385895" lon="12.615090">
 <ele>1075.95</ele>
 <time>2010-04-29T10:10:17Z</time>
 </trkpt>
 <trkpt lat="47.385838" lon="12.615005">
 <ele>1075.78</ele>
 <time>2010-04-29T10:10:19Z</time>
 </trkpt>
 <trkpt lat="47.385609" lon="12.614849">
 <ele>1075.78</ele>
 <time>2010-04-29T10:10:26Z</time>
 </trkpt>
 <trkpt lat="47.385559" lon="12.614815">
 <ele>1076.17</ele>
 <time>2010-04-29T10:10:29Z</time>
 </trkpt>
 <trkpt lat="47.385597" lon="12.614635">
 <ele>1076.11</ele>
 <time>2010-04-29T10:10:34Z</time>
 </trkpt>
 <trkpt lat="47.385609" lon="12.614591">
 <ele>1076.11</ele>
 <time>2010-04-29T10:10:35Z</time>
 </trkpt>
 <trkpt lat="47.385532" lon="12.614414">
 <ele>1076.07</ele>
 <time>2010-04-29T10:10:41Z</time>
 </trkpt>
 <trkpt lat="47.385296" lon="12.614124">
 <ele>1075.83</ele>
 <time>2010-04-29T10:10:48Z</time>
 </trkpt>
 <trkpt lat="47.385258" lon="12.614084">
 <ele>1075.94</ele>
 <time>2010-04-29T10:10:49Z</time>
 </trkpt>
 <trkpt lat="47.384895" lon="12.613504">
 <ele>1077.06</ele>
 <time>2010-04-29T10:11:01Z</time>
 </trkpt>
 <trkpt lat="47.384617" lon="12.612818">
 <ele>1078.01</ele>
 <time>2010-04-29T10:11:13Z</time>
 </trkpt>
 <trkpt lat="47.384491" lon="12.612316">
 <ele>1078.33</ele>
 <time>2010-04-29T10:11:21Z</time>
 </trkpt>
 <trkpt lat="47.384415" lon="12.611790">
 <ele>1079.46</ele>
 <time>2010-04-29T10:11:29Z</time>
 </trkpt>
 <trkpt lat="47.384369" lon="12.611195">
 <ele>1080.04</ele>
 <time>2010-04-29T10:11:38Z</time>
 </trkpt>
 <trkpt lat="47.384319" lon="12.610538">
 <ele>1081.50</ele>
 <time>2010-04-29T10:11:48Z</time>
 </trkpt>
 <trkpt lat="47.384239" lon="12.609713">
 <ele>1081.50</ele>
 <time>2010-04-29T10:12:00Z</time>
 </trkpt>
 <trkpt lat="47.384117" lon="12.609055">
 <ele>1082.37</ele>
 <time>2010-04-29T10:12:10Z</time>
 </trkpt>
 <trkpt lat="47.383957" lon="12.608426">
 <ele>1082.68</ele>
 <time>2010-04-29T10:12:20Z</time>
 </trkpt>
 <trkpt lat="47.383846" lon="12.607982">
 <ele>1083.30</ele>
 <time>2010-04-29T10:12:27Z</time>
 </trkpt>
 <trkpt lat="47.383652" lon="12.607297">
 <ele>1084.35</ele>
 <time>2010-04-29T10:12:38Z</time>
 </trkpt>
 <trkpt lat="47.383438" lon="12.606685">
 <ele>1084.95</ele>
 <time>2010-04-29T10:12:48Z</time>
 </trkpt>
 <trkpt lat="47.383224" lon="12.606076">
 <ele>1085.50</ele>
 <time>2010-04-29T10:12:58Z</time>
 </trkpt>
 <trkpt lat="47.383026" lon="12.605527">
 <ele>1086.37</ele>
 <time>2010-04-29T10:13:07Z</time>
 </trkpt>
 <trkpt lat="47.382828" lon="12.604990">
 <ele>1087.09</ele>
 <time>2010-04-29T10:13:16Z</time>
 </trkpt>
 <trkpt lat="47.382774" lon="12.604805">
 <ele>1087.44</ele>
 <time>2010-04-29T10:13:19Z</time>
 </trkpt>
 <trkpt lat="47.382603" lon="12.604439">
 <ele>1088.53</ele>
 <time>2010-04-29T10:13:26Z</time>
 </trkpt>
 <trkpt lat="47.382477" lon="12.604380">
 <ele>1088.78</ele>
 <time>2010-04-29T10:13:29Z</time>
 </trkpt>
 <trkpt lat="47.382298" lon="12.604364">
 <ele>1089.26</ele>
 <time>2010-04-29T10:13:33Z</time>
 </trkpt>
 <trkpt lat="47.382092" lon="12.604241">
 <ele>1089.61</ele>
 <time>2010-04-29T10:13:38Z</time>
 </trkpt>
 <trkpt lat="47.382027" lon="12.604087">
 <ele>1089.73</ele>
 <time>2010-04-29T10:13:41Z</time>
 </trkpt>
 <trkpt lat="47.381886" lon="12.603570">
 <ele>1090.44</ele>
 <time>2010-04-29T10:13:50Z</time>
 </trkpt>
 <trkpt lat="47.381763" lon="12.603120">
 <ele>1091.35</ele>
 <time>2010-04-29T10:13:58Z</time>
 </trkpt>
 <trkpt lat="47.381626" lon="12.602730">
 <ele>1092.38</ele>
 <time>2010-04-29T10:14:06Z</time>
 </trkpt>
 <trkpt lat="47.381470" lon="12.602383">
 <ele>1093.45</ele>
 <time>2010-04-29T10:14:14Z</time>
 </trkpt>
 <trkpt lat="47.381241" lon="12.601977">
 <ele>1094.35</ele>
 <time>2010-04-29T10:14:24Z</time>
 </trkpt>
 <trkpt lat="47.381176" lon="12.601858">
 <ele>1094.87</ele>
 <time>2010-04-29T10:14:28Z</time>
 </trkpt>
 <trkpt lat="47.381023" lon="12.601735">
 <ele>1095.67</ele>
 <time>2010-04-29T10:14:33Z</time>
 </trkpt>
 <trkpt lat="47.380817" lon="12.601586">
 <ele>1095.77</ele>
 <time>2010-04-29T10:14:39Z</time>
 </trkpt>
 <trkpt lat="47.380600" lon="12.601472">
 <ele>1095.54</ele>
 <time>2010-04-29T10:14:45Z</time>
 </trkpt>
 <trkpt lat="47.380341" lon="12.601321">
 <ele>1094.99</ele>
 <time>2010-04-29T10:14:52Z</time>
 </trkpt>
 <trkpt lat="47.380062" lon="12.601122">
 <ele>1094.76</ele>
 <time>2010-04-29T10:14:59Z</time>
 </trkpt>
 <trkpt lat="47.379742" lon="12.600762">
 <ele>1094.82</ele>
 <time>2010-04-29T10:15:08Z</time>
 </trkpt>
 <trkpt lat="47.379623" lon="12.600589">
 <ele>1095.03</ele>
 <time>2010-04-29T10:15:12Z</time>
 </trkpt>
 <trkpt lat="47.379406" lon="12.600146">
 <ele>1095.66</ele>
 <time>2010-04-29T10:15:21Z</time>
 </trkpt>
 <trkpt lat="47.379181" lon="12.599559">
 <ele>1096.73</ele>
 <time>2010-04-29T10:15:32Z</time>
 </trkpt>
 <trkpt lat="47.379017" lon="12.598970">
 <ele>1097.09</ele>
 <time>2010-04-29T10:15:42Z</time>
 </trkpt>
 <trkpt lat="47.378902" lon="12.598369">
 <ele>1097.72</ele>
 <time>2010-04-29T10:15:52Z</time>
 </trkpt>
 <trkpt lat="47.378849" lon="12.597975">
 <ele>1098.09</ele>
 <time>2010-04-29T10:15:59Z</time>
 </trkpt>
 <trkpt lat="47.378815" lon="12.597490">
 <ele>1098.82</ele>
 <time>2010-04-29T10:16:07Z</time>
 </trkpt>
 <trkpt lat="47.378746" lon="12.597005">
 <ele>1099.31</ele>
 <time>2010-04-29T10:16:15Z</time>
 </trkpt>
 <trkpt lat="47.378716" lon="12.596700">
 <ele>1099.92</ele>
 <time>2010-04-29T10:16:20Z</time>
 </trkpt>
 <trkpt lat="47.378666" lon="12.596216">
 <ele>1100.50</ele>
 <time>2010-04-29T10:16:28Z</time>
 </trkpt>
 <trkpt lat="47.378662" lon="12.596155">
 <ele>1100.61</ele>
 <time>2010-04-29T10:16:29Z</time>
 </trkpt>
 <trkpt lat="47.378658" lon="12.595676">
 <ele>1101.13</ele>
 <time>2010-04-29T10:16:37Z</time>
 </trkpt>
 <trkpt lat="47.378605" lon="12.595351">
 <ele>1101.72</ele>
 <time>2010-04-29T10:16:44Z</time>
 </trkpt>
 <trkpt lat="47.378567" lon="12.595044">
 <ele>1102.07</ele>
 <time>2010-04-29T10:16:50Z</time>
 </trkpt>
 <trkpt lat="47.378563" lon="12.594988">
 <ele>1102.13</ele>
 <time>2010-04-29T10:16:51Z</time>
 </trkpt>
 <trkpt lat="47.378548" lon="12.594628">
 <ele>1102.53</ele>
 <time>2010-04-29T10:16:57Z</time>
 </trkpt>
 <trkpt lat="47.378510" lon="12.594207">
 <ele>1103.44</ele>
 <time>2010-04-29T10:17:04Z</time>
 </trkpt>
 <trkpt lat="47.378456" lon="12.593841">
 <ele>1103.99</ele>
 <time>2010-04-29T10:17:10Z</time>
 </trkpt>
 <trkpt lat="47.378345" lon="12.593224">
 <ele>1104.15</ele>
 <time>2010-04-29T10:17:20Z</time>
 </trkpt>
 <trkpt lat="47.378223" lon="12.592678">
 <ele>1104.95</ele>
 <time>2010-04-29T10:17:29Z</time>
 </trkpt>
 <trkpt lat="47.378063" lon="12.591894">
 <ele>1106.00</ele>
 <time>2010-04-29T10:17:42Z</time>
 </trkpt>
 <trkpt lat="47.378025" lon="12.591655">
 <ele>1106.49</ele>
 <time>2010-04-29T10:17:46Z</time>
 </trkpt>
 <trkpt lat="47.377918" lon="12.591014">
 <ele>1108.07</ele>
 <time>2010-04-29T10:17:57Z</time>
 </trkpt>
 <trkpt lat="47.377869" lon="12.590731">
 <ele>1108.82</ele>
 <time>2010-04-29T10:18:02Z</time>
 </trkpt>
 <trkpt lat="47.377762" lon="12.590252">
 <ele>1109.88</ele>
 <time>2010-04-29T10:18:11Z</time>
 </trkpt>
 <trkpt lat="47.377754" lon="12.590103">
 <ele>1110.00</ele>
 <time>2010-04-29T10:18:15Z</time>
 </trkpt>
 <trkpt lat="47.377750" lon="12.590077">
 <ele>1110.31</ele>
 <time>2010-04-29T10:18:18Z</time>
 </trkpt>
 <trkpt lat="47.377743" lon="12.589984">
 <ele>1110.29</ele>
 <time>2010-04-29T10:18:28Z</time>
 </trkpt>
 <trkpt lat="47.377701" lon="12.589911">
 <ele>1110.37</ele>
 <time>2010-04-29T10:18:30Z</time>
 </trkpt>
 <trkpt lat="47.377392" lon="12.589654">
 <ele>1110.47</ele>
 <time>2010-04-29T10:18:38Z</time>
 </trkpt>
 <trkpt lat="47.377190" lon="12.589353">
 <ele>1111.34</ele>
 <time>2010-04-29T10:18:45Z</time>
 </trkpt>
 <trkpt lat="47.376984" lon="12.588917">
 <ele>1111.80</ele>
 <time>2010-04-29T10:18:53Z</time>
 </trkpt>
 <trkpt lat="47.376850" lon="12.588259">
 <ele>1112.31</ele>
 <time>2010-04-29T10:19:03Z</time>
 </trkpt>
 <trkpt lat="47.376766" lon="12.587644">
 <ele>1112.44</ele>
 <time>2010-04-29T10:19:12Z</time>
 </trkpt>
 <trkpt lat="47.376675" lon="12.586924">
 <ele>1112.97</ele>
 <time>2010-04-29T10:19:23Z</time>
 </trkpt>
 <trkpt lat="47.376583" lon="12.586327">
 <ele>1113.83</ele>
 <time>2010-04-29T10:19:32Z</time>
 </trkpt>
 <trkpt lat="47.376495" lon="12.585746">
 <ele>1114.90</ele>
 <time>2010-04-29T10:19:41Z</time>
 </trkpt>
 <trkpt lat="47.376385" lon="12.585071">
 <ele>1116.52</ele>
 <time>2010-04-29T10:19:52Z</time>
 </trkpt>
 <trkpt lat="47.376259" lon="12.584393">
 <ele>1117.97</ele>
 <time>2010-04-29T10:20:03Z</time>
 </trkpt>
 <trkpt lat="47.376099" lon="12.583600">
 <ele>1118.87</ele>
 <time>2010-04-29T10:20:16Z</time>
 </trkpt>
 <trkpt lat="47.375954" lon="12.582942">
 <ele>1120.24</ele>
 <time>2010-04-29T10:20:27Z</time>
 </trkpt>
 <trkpt lat="47.375797" lon="12.582228">
 <ele>1120.83</ele>
 <time>2010-04-29T10:20:39Z</time>
 </trkpt>
 <trkpt lat="47.375690" lon="12.581602">
 <ele>1121.99</ele>
 <time>2010-04-29T10:20:49Z</time>
 </trkpt>
 <trkpt lat="47.375610" lon="12.581037">
 <ele>1122.54</ele>
 <time>2010-04-29T10:20:58Z</time>
 </trkpt>
 <trkpt lat="47.375553" lon="12.580451">
 <ele>1122.86</ele>
 <time>2010-04-29T10:21:07Z</time>
 </trkpt>
 <trkpt lat="47.375519" lon="12.579801">
 <ele>1123.56</ele>
 <time>2010-04-29T10:21:17Z</time>
 </trkpt>
 <trkpt lat="47.375450" lon="12.579025">
 <ele>1124.63</ele>
 <time>2010-04-29T10:21:29Z</time>
 </trkpt>
 <trkpt lat="47.375389" lon="12.578526">
 <ele>1124.98</ele>
 <time>2010-04-29T10:21:37Z</time>
 </trkpt>
 <trkpt lat="47.375263" lon="12.577862">
 <ele>1126.02</ele>
 <time>2010-04-29T10:21:48Z</time>
 </trkpt>
 <trkpt lat="47.375183" lon="12.577242">
 <ele>1127.13</ele>
 <time>2010-04-29T10:21:58Z</time>
 </trkpt>
 <trkpt lat="47.375191" lon="12.576738">
 <ele>1127.81</ele>
 <time>2010-04-29T10:22:06Z</time>
 </trkpt>
 <trkpt lat="47.375240" lon="12.575975">
 <ele>1128.55</ele>
 <time>2010-04-29T10:22:18Z</time>
 </trkpt>
 <trkpt lat="47.375340" lon="12.575235">
 <ele>1129.23</ele>
 <time>2010-04-29T10:22:30Z</time>
 </trkpt>
 <trkpt lat="47.375435" lon="12.574552">
 <ele>1130.52</ele>
 <time>2010-04-29T10:22:41Z</time>
 </trkpt>
 <trkpt lat="47.375515" lon="12.573944">
 <ele>1131.55</ele>
 <time>2010-04-29T10:22:51Z</time>
 </trkpt>
 <trkpt lat="47.375534" lon="12.573441">
 <ele>1132.75</ele>
 <time>2010-04-29T10:22:59Z</time>
 </trkpt>
 <trkpt lat="47.375500" lon="12.572649">
 <ele>1133.63</ele>
 <time>2010-04-29T10:23:11Z</time>
 </trkpt>
 <trkpt lat="47.375446" lon="12.572142">
 <ele>1134.58</ele>
 <time>2010-04-29T10:23:19Z</time>
 </trkpt>
 <trkpt lat="47.375378" lon="12.571423">
 <ele>1135.52</ele>
 <time>2010-04-29T10:23:30Z</time>
 </trkpt>
 <trkpt lat="47.375313" lon="12.570808">
 <ele>1136.58</ele>
 <time>2010-04-29T10:23:40Z</time>
 </trkpt>
 <trkpt lat="47.375244" lon="12.570126">
 <ele>1137.86</ele>
 <time>2010-04-29T10:23:51Z</time>
 </trkpt>
 <trkpt lat="47.375206" lon="12.569411">
 <ele>1137.94</ele>
 <time>2010-04-29T10:24:02Z</time>
 </trkpt>
 <trkpt lat="47.375187" lon="12.568739">
 <ele>1138.97</ele>
 <time>2010-04-29T10:24:13Z</time>
 </trkpt>
 <trkpt lat="47.375172" lon="12.568164">
 <ele>1140.48</ele>
 <time>2010-04-29T10:24:23Z</time>
 </trkpt>
 <trkpt lat="47.375153" lon="12.567618">
 <ele>1141.69</ele>
 <time>2010-04-29T10:24:33Z</time>
 </trkpt>
 <trkpt lat="47.375134" lon="12.567168">
 <ele>1142.78</ele>
 <time>2010-04-29T10:24:41Z</time>
 </trkpt>
 <trkpt lat="47.375126" lon="12.566637">
 <ele>1143.77</ele>
 <time>2010-04-29T10:24:51Z</time>
 </trkpt>
 <trkpt lat="47.375149" lon="12.566275">
 <ele>1145.23</ele>
 <time>2010-04-29T10:24:58Z</time>
 </trkpt>
 <trkpt lat="47.375175" lon="12.566110">
 <ele>1145.64</ele>
 <time>2010-04-29T10:25:03Z</time>
 </trkpt>
 <trkpt lat="47.375179" lon="12.566098">
 <ele>1146.03</ele>
 <time>2010-04-29T10:25:05Z</time>
 </trkpt>
 <trkpt lat="47.375137" lon="12.566184">
 <ele>1145.64</ele>
 <time>2010-04-29T10:25:13Z</time>
 </trkpt>
 <trkpt lat="47.375214" lon="12.566189">
 <ele>1145.66</ele>
 <time>2010-04-29T10:25:16Z</time>
 </trkpt>
 <trkpt lat="47.375252" lon="12.566123">
 <ele>1145.99</ele>
 <time>2010-04-29T10:25:18Z</time>
 </trkpt>
 <trkpt lat="47.375408" lon="12.565632">
 <ele>1147.17</ele>
 <time>2010-04-29T10:25:29Z</time>
 </trkpt>
 <trkpt lat="47.375511" lon="12.565234">
 <ele>1148.62</ele>
 <time>2010-04-29T10:25:38Z</time>
 </trkpt>
 <trkpt lat="47.375565" lon="12.564879">
 <ele>1150.35</ele>
 <time>2010-04-29T10:25:46Z</time>
 </trkpt>
 <trkpt lat="47.375584" lon="12.564477">
 <ele>1152.19</ele>
 <time>2010-04-29T10:25:55Z</time>
 </trkpt>
 <trkpt lat="47.375595" lon="12.564051">
 <ele>1153.10</ele>
 <time>2010-04-29T10:26:04Z</time>
 </trkpt>
 <trkpt lat="47.375599" lon="12.563692">
 <ele>1153.83</ele>
 <time>2010-04-29T10:26:11Z</time>
 </trkpt>
 <trkpt lat="47.375656" lon="12.563219">
 <ele>1154.47</ele>
 <time>2010-04-29T10:26:20Z</time>
 </trkpt>
 <trkpt lat="47.375694" lon="12.562826">
 <ele>1155.07</ele>
 <time>2010-04-29T10:26:27Z</time>
 </trkpt>
 <trkpt lat="47.375690" lon="12.562636">
 <ele>1155.33</ele>
 <time>2010-04-29T10:26:30Z</time>
 </trkpt>
 <trkpt lat="47.375603" lon="12.562322">
 <ele>1154.56</ele>
 <time>2010-04-29T10:26:35Z</time>
 </trkpt>
 <trkpt lat="47.375420" lon="12.561974">
 <ele>1153.94</ele>
 <time>2010-04-29T10:26:41Z</time>
 </trkpt>
 <trkpt lat="47.375114" lon="12.561549">
 <ele>1153.63</ele>
 <time>2010-04-29T10:26:49Z</time>
 </trkpt>
 <trkpt lat="47.375080" lon="12.561493">
 <ele>1153.57</ele>
 <time>2010-04-29T10:26:50Z</time>
 </trkpt>
 <trkpt lat="47.374817" lon="12.560917">
 <ele>1154.60</ele>
 <time>2010-04-29T10:27:00Z</time>
 </trkpt>
 <trkpt lat="47.374649" lon="12.560310">
 <ele>1155.62</ele>
 <time>2010-04-29T10:27:10Z</time>
 </trkpt>
 <trkpt lat="47.374538" lon="12.559707">
 <ele>1156.57</ele>
 <time>2010-04-29T10:27:20Z</time>
 </trkpt>
 <trkpt lat="47.374451" lon="12.559195">
 <ele>1157.82</ele>
 <time>2010-04-29T10:27:29Z</time>
 </trkpt>
 <trkpt lat="47.374363" lon="12.558696">
 <ele>1158.64</ele>
 <time>2010-04-29T10:27:38Z</time>
 </trkpt>
 <trkpt lat="47.374287" lon="12.558257">
 <ele>1159.26</ele>
 <time>2010-04-29T10:27:46Z</time>
 </trkpt>
 <trkpt lat="47.374256" lon="12.557770">
 <ele>1159.88</ele>
 <time>2010-04-29T10:27:55Z</time>
 </trkpt>
 <trkpt lat="47.374279" lon="12.557329">
 <ele>1161.30</ele>
 <time>2010-04-29T10:28:03Z</time>
 </trkpt>
 <trkpt lat="47.374359" lon="12.556847">
 <ele>1163.18</ele>
 <time>2010-04-29T10:28:12Z</time>
 </trkpt>
 <trkpt lat="47.374470" lon="12.556375">
 <ele>1165.23</ele>
 <time>2010-04-29T10:28:21Z</time>
 </trkpt>
 <trkpt lat="47.374508" lon="12.555996">
 <ele>1166.13</ele>
 <time>2010-04-29T10:28:28Z</time>
 </trkpt>
 <trkpt lat="47.374439" lon="12.555538">
 <ele>1167.09</ele>
 <time>2010-04-29T10:28:36Z</time>
 </trkpt>
 <trkpt lat="47.374443" lon="12.555284">
 <ele>1167.19</ele>
 <time>2010-04-29T10:28:40Z</time>
 </trkpt>
 <trkpt lat="47.374374" lon="12.554939">
 <ele>1167.56</ele>
 <time>2010-04-29T10:28:46Z</time>
 </trkpt>
 <trkpt lat="47.374195" lon="12.554695">
 <ele>1167.64</ele>
 <time>2010-04-29T10:28:52Z</time>
 </trkpt>
 <trkpt lat="47.374035" lon="12.554432">
 <ele>1167.52</ele>
 <time>2010-04-29T10:28:58Z</time>
 </trkpt>
 <trkpt lat="47.373940" lon="12.554110">
 <ele>1167.82</ele>
 <time>2010-04-29T10:29:04Z</time>
 </trkpt>
 <trkpt lat="47.373898" lon="12.553671">
 <ele>1168.86</ele>
 <time>2010-04-29T10:29:12Z</time>
 </trkpt>
 <trkpt lat="47.373898" lon="12.553177">
 <ele>1169.75</ele>
 <time>2010-04-29T10:29:21Z</time>
 </trkpt>
 <trkpt lat="47.373882" lon="12.552721">
 <ele>1170.46</ele>
 <time>2010-04-29T10:29:29Z</time>
 </trkpt>
 <trkpt lat="47.373882" lon="12.552342">
 <ele>1171.08</ele>
 <time>2010-04-29T10:29:36Z</time>
 </trkpt>
 <trkpt lat="47.373840" lon="12.552004">
 <ele>1171.91</ele>
 <time>2010-04-29T10:29:42Z</time>
 </trkpt>
 <trkpt lat="47.373749" lon="12.551439">
 <ele>1172.42</ele>
 <time>2010-04-29T10:29:52Z</time>
 </trkpt>
 <trkpt lat="47.373753" lon="12.550987">
 <ele>1173.68</ele>
 <time>2010-04-29T10:30:00Z</time>
 </trkpt>
 <trkpt lat="47.373867" lon="12.550690">
 <ele>1174.56</ele>
 <time>2010-04-29T10:30:06Z</time>
 </trkpt>
 <trkpt lat="47.373959" lon="12.550508">
 <ele>1174.76</ele>
 <time>2010-04-29T10:30:10Z</time>
 </trkpt>
 <trkpt lat="47.374008" lon="12.550158">
 <ele>1174.92</ele>
 <time>2010-04-29T10:30:16Z</time>
 </trkpt>
 <trkpt lat="47.374001" lon="12.550033">
 <ele>1174.86</ele>
 <time>2010-04-29T10:30:18Z</time>
 </trkpt>
 <trkpt lat="47.373920" lon="12.549397">
 <ele>1175.25</ele>
 <time>2010-04-29T10:30:28Z</time>
 </trkpt>
 <trkpt lat="47.373863" lon="12.548796">
 <ele>1176.15</ele>
 <time>2010-04-29T10:30:38Z</time>
 </trkpt>
 <trkpt lat="47.373810" lon="12.548216">
 <ele>1177.17</ele>
 <time>2010-04-29T10:30:48Z</time>
 </trkpt>
 <trkpt lat="47.373756" lon="12.547497">
 <ele>1178.55</ele>
 <time>2010-04-29T10:31:00Z</time>
 </trkpt>
 <trkpt lat="47.373772" lon="12.546953">
 <ele>1179.43</ele>
 <time>2010-04-29T10:31:09Z</time>
 </trkpt>
 <trkpt lat="47.373791" lon="12.546496">
 <ele>1181.35</ele>
 <time>2010-04-29T10:31:17Z</time>
 </trkpt>
 <trkpt lat="47.373726" lon="12.546041">
 <ele>1182.07</ele>
 <time>2010-04-29T10:31:25Z</time>
 </trkpt>
 <trkpt lat="47.373711" lon="12.545923">
 <ele>1181.91</ele>
 <time>2010-04-29T10:31:27Z</time>
 </trkpt>
 <trkpt lat="47.373692" lon="12.545445">
 <ele>1183.12</ele>
 <time>2010-04-29T10:31:35Z</time>
 </trkpt>
 <trkpt lat="47.373646" lon="12.544899">
 <ele>1183.75</ele>
 <time>2010-04-29T10:31:44Z</time>
 </trkpt>
 <trkpt lat="47.373547" lon="12.544342">
 <ele>1183.90</ele>
 <time>2010-04-29T10:31:53Z</time>
 </trkpt>
 <trkpt lat="47.373512" lon="12.543890">
 <ele>1183.97</ele>
 <time>2010-04-29T10:32:00Z</time>
 </trkpt>
 <trkpt lat="47.373440" lon="12.543214">
 <ele>1185.30</ele>
 <time>2010-04-29T10:32:11Z</time>
 </trkpt>
 <trkpt lat="47.373386" lon="12.542733">
 <ele>1186.04</ele>
 <time>2010-04-29T10:32:19Z</time>
 </trkpt>
 <trkpt lat="47.373398" lon="12.542240">
 <ele>1187.92</ele>
 <time>2010-04-29T10:32:28Z</time>
 </trkpt>
 <trkpt lat="47.373383" lon="12.541772">
 <ele>1189.22</ele>
 <time>2010-04-29T10:32:37Z</time>
 </trkpt>
 <trkpt lat="47.373341" lon="12.541239">
 <ele>1188.73</ele>
 <time>2010-04-29T10:32:46Z</time>
 </trkpt>
 <trkpt lat="47.373238" lon="12.540724">
 <ele>1188.84</ele>
 <time>2010-04-29T10:32:54Z</time>
 </trkpt>
 <trkpt lat="47.373081" lon="12.540299">
 <ele>1189.41</ele>
 <time>2010-04-29T10:33:02Z</time>
 </trkpt>
 <trkpt lat="47.372883" lon="12.539773">
 <ele>1190.17</ele>
 <time>2010-04-29T10:33:12Z</time>
 </trkpt>
 <trkpt lat="47.372757" lon="12.539302">
 <ele>1191.64</ele>
 <time>2010-04-29T10:33:21Z</time>
 </trkpt>
 <trkpt lat="47.372719" lon="12.538888">
 <ele>1192.74</ele>
 <time>2010-04-29T10:33:29Z</time>
 </trkpt>
 <trkpt lat="47.372673" lon="12.538429">
 <ele>1194.01</ele>
 <time>2010-04-29T10:33:38Z</time>
 </trkpt>
 <trkpt lat="47.372669" lon="12.538404">
 <ele>1194.26</ele>
 <time>2010-04-29T10:33:41Z</time>
 </trkpt>
 <trkpt lat="47.372662" lon="12.538306">
 <ele>1194.44</ele>
 <time>2010-04-29T10:33:57Z</time>
 </trkpt>
 <trkpt lat="47.372662" lon="12.538299">
 <ele>1194.65</ele>
 <time>2010-04-29T10:33:59Z</time>
 </trkpt>
 <trkpt lat="47.372635" lon="12.538215">
 <ele>1194.46</ele>
 <time>2010-04-29T10:34:03Z</time>
 </trkpt>
 <trkpt lat="47.372562" lon="12.538018">
 <ele>1194.66</ele>
 <time>2010-04-29T10:34:08Z</time>
 </trkpt>
 <trkpt lat="47.372391" lon="12.537711">
 <ele>1194.95</ele>
 <time>2010-04-29T10:34:16Z</time>
 </trkpt>
 <trkpt lat="47.372158" lon="12.537349">
 <ele>1195.46</ele>
 <time>2010-04-29T10:34:25Z</time>
 </trkpt>
 <trkpt lat="47.371895" lon="12.536838">
 <ele>1196.39</ele>
 <time>2010-04-29T10:34:37Z</time>
 </trkpt>
 <trkpt lat="47.371735" lon="12.536482">
 <ele>1197.06</ele>
 <time>2010-04-29T10:34:45Z</time>
 </trkpt>
 <trkpt lat="47.371517" lon="12.535993">
 <ele>1197.67</ele>
 <time>2010-04-29T10:34:56Z</time>
 </trkpt>
 <trkpt lat="47.371346" lon="12.535589">
 <ele>1198.86</ele>
 <time>2010-04-29T10:35:05Z</time>
 </trkpt>
 <trkpt lat="47.371197" lon="12.535238">
 <ele>1199.48</ele>
 <time>2010-04-29T10:35:13Z</time>
 </trkpt>
 <trkpt lat="47.371033" lon="12.534917">
 <ele>1199.91</ele>
 <time>2010-04-29T10:35:21Z</time>
 </trkpt>
 <trkpt lat="47.370834" lon="12.534429">
 <ele>1201.23</ele>
 <time>2010-04-29T10:35:32Z</time>
 </trkpt>
 <trkpt lat="47.370701" lon="12.533989">
 <ele>1202.58</ele>
 <time>2010-04-29T10:35:42Z</time>
 </trkpt>
 <trkpt lat="47.370609" lon="12.533625">
 <ele>1203.25</ele>
 <time>2010-04-29T10:35:50Z</time>
 </trkpt>
 <trkpt lat="47.370487" lon="12.533257">
 <ele>1204.15</ele>
 <time>2010-04-29T10:35:59Z</time>
 </trkpt>
 <trkpt lat="47.370327" lon="12.533030">
 <ele>1204.83</ele>
 <time>2010-04-29T10:36:06Z</time>
 </trkpt>
 <trkpt lat="47.370125" lon="12.532750">
 <ele>1205.62</ele>
 <time>2010-04-29T10:36:15Z</time>
 </trkpt>
 <trkpt lat="47.369968" lon="12.532422">
 <ele>1206.49</ele>
 <time>2010-04-29T10:36:24Z</time>
 </trkpt>
 <trkpt lat="47.369862" lon="12.532008">
 <ele>1207.44</ele>
 <time>2010-04-29T10:36:34Z</time>
 </trkpt>
 <trkpt lat="47.369812" lon="12.531599">
 <ele>1208.63</ele>
 <time>2010-04-29T10:36:43Z</time>
 </trkpt>
 <trkpt lat="47.369770" lon="12.531152">
 <ele>1210.16</ele>
 <time>2010-04-29T10:36:53Z</time>
 </trkpt>
 <trkpt lat="47.369778" lon="12.530741">
 <ele>1210.92</ele>
 <time>2010-04-29T10:37:02Z</time>
 </trkpt>
 <trkpt lat="47.369785" lon="12.530329">
 <ele>1211.15</ele>
 <time>2010-04-29T10:37:11Z</time>
 </trkpt>
 <trkpt lat="47.369740" lon="12.529976">
 <ele>1212.47</ele>
 <time>2010-04-29T10:37:19Z</time>
 </trkpt>
 <trkpt lat="47.369633" lon="12.529516">
 <ele>1213.53</ele>
 <time>2010-04-29T10:37:30Z</time>
 </trkpt>
 <trkpt lat="47.369610" lon="12.529170">
 <ele>1214.29</ele>
 <time>2010-04-29T10:37:38Z</time>
 </trkpt>
 <trkpt lat="47.369648" lon="12.528898">
 <ele>1215.79</ele>
 <time>2010-04-29T10:37:45Z</time>
 </trkpt>
 <trkpt lat="47.369675" lon="12.528729">
 <ele>1216.30</ele>
 <time>2010-04-29T10:37:50Z</time>
 </trkpt>
 <trkpt lat="47.369789" lon="12.528445">
 <ele>1217.07</ele>
 <time>2010-04-29T10:37:57Z</time>
 </trkpt>
 <trkpt lat="47.369862" lon="12.528196">
 <ele>1217.78</ele>
 <time>2010-04-29T10:38:03Z</time>
 </trkpt>
 <trkpt lat="47.369919" lon="12.527849">
 <ele>1218.60</ele>
 <time>2010-04-29T10:38:11Z</time>
 </trkpt>
 <trkpt lat="47.369957" lon="12.527465">
 <ele>1219.68</ele>
 <time>2010-04-29T10:38:20Z</time>
 </trkpt>
 <trkpt lat="47.369999" lon="12.527125">
 <ele>1220.41</ele>
 <time>2010-04-29T10:38:28Z</time>
 </trkpt>
 <trkpt lat="47.370075" lon="12.526822">
 <ele>1221.42</ele>
 <time>2010-04-29T10:38:36Z</time>
 </trkpt>
 <trkpt lat="47.370197" lon="12.526486">
 <ele>1222.04</ele>
 <time>2010-04-29T10:38:45Z</time>
 </trkpt>
 <trkpt lat="47.370235" lon="12.526150">
 <ele>1221.95</ele>
 <time>2010-04-29T10:38:53Z</time>
 </trkpt>
 <trkpt lat="47.370216" lon="12.525802">
 <ele>1222.83</ele>
 <time>2010-04-29T10:39:01Z</time>
 </trkpt>
 <trkpt lat="47.370152" lon="12.525516">
 <ele>1223.41</ele>
 <time>2010-04-29T10:39:08Z</time>
 </trkpt>
 <trkpt lat="47.370037" lon="12.525237">
 <ele>1224.59</ele>
 <time>2010-04-29T10:39:16Z</time>
 </trkpt>
 <trkpt lat="47.369884" lon="12.524918">
 <ele>1226.56</ele>
 <time>2010-04-29T10:39:26Z</time>
 </trkpt>
 <trkpt lat="47.369846" lon="12.524696">
 <ele>1227.40</ele>
 <time>2010-04-29T10:39:32Z</time>
 </trkpt>
 <trkpt lat="47.369774" lon="12.524362">
 <ele>1228.41</ele>
 <time>2010-04-29T10:39:41Z</time>
 </trkpt>
 <trkpt lat="47.369759" lon="12.524090">
 <ele>1229.28</ele>
 <time>2010-04-29T10:39:48Z</time>
 </trkpt>
 <trkpt lat="47.369736" lon="12.523748">
 <ele>1230.70</ele>
 <time>2010-04-29T10:39:57Z</time>
 </trkpt>
 <trkpt lat="47.369720" lon="12.523517">
 <ele>1231.98</ele>
 <time>2010-04-29T10:40:03Z</time>
 </trkpt>
 <trkpt lat="47.369770" lon="12.523277">
 <ele>1232.26</ele>
 <time>2010-04-29T10:40:09Z</time>
 </trkpt>
 <trkpt lat="47.369759" lon="12.522996">
 <ele>1233.13</ele>
 <time>2010-04-29T10:40:16Z</time>
 </trkpt>
 <trkpt lat="47.369762" lon="12.522803">
 <ele>1234.04</ele>
 <time>2010-04-29T10:40:21Z</time>
 </trkpt>
 <trkpt lat="47.369698" lon="12.522435">
 <ele>1234.56</ele>
 <time>2010-04-29T10:40:30Z</time>
 </trkpt>
 <trkpt lat="47.369640" lon="12.522259">
 <ele>1235.17</ele>
 <time>2010-04-29T10:40:35Z</time>
 </trkpt>
 <trkpt lat="47.369656" lon="12.522027">
 <ele>1236.64</ele>
 <time>2010-04-29T10:40:42Z</time>
 </trkpt>
 <trkpt lat="47.369717" lon="12.521674">
 <ele>1238.39</ele>
 <time>2010-04-29T10:40:53Z</time>
 </trkpt>
 <trkpt lat="47.369766" lon="12.521381">
 <ele>1239.86</ele>
 <time>2010-04-29T10:41:02Z</time>
 </trkpt>
 <trkpt lat="47.369820" lon="12.521129">
 <ele>1240.93</ele>
 <time>2010-04-29T10:41:10Z</time>
 </trkpt>
 <trkpt lat="47.369877" lon="12.520849">
 <ele>1242.89</ele>
 <time>2010-04-29T10:41:19Z</time>
 </trkpt>
 <trkpt lat="47.369884" lon="12.520582">
 <ele>1245.12</ele>
 <time>2010-04-29T10:41:28Z</time>
 </trkpt>
 <trkpt lat="47.369888" lon="12.520424">
 <ele>1245.50</ele>
 <time>2010-04-29T10:41:34Z</time>
 </trkpt>
 <trkpt lat="47.369942" lon="12.520283">
 <ele>1246.53</ele>
 <time>2010-04-29T10:41:40Z</time>
 </trkpt>
 <trkpt lat="47.370071" lon="12.520099">
 <ele>1247.36</ele>
 <time>2010-04-29T10:41:49Z</time>
 </trkpt>
 <trkpt lat="47.370193" lon="12.519967">
 <ele>1249.64</ele>
 <time>2010-04-29T10:41:57Z</time>
 </trkpt>
 <trkpt lat="47.370270" lon="12.519804">
 <ele>1251.27</ele>
 <time>2010-04-29T10:42:05Z</time>
 </trkpt>
 <trkpt lat="47.370239" lon="12.519656">
 <ele>1252.31</ele>
 <time>2010-04-29T10:42:11Z</time>
 </trkpt>
 <trkpt lat="47.370174" lon="12.519479">
 <ele>1254.07</ele>
 <time>2010-04-29T10:42:19Z</time>
 </trkpt>
 <trkpt lat="47.370106" lon="12.519338">
 <ele>1255.49</ele>
 <time>2010-04-29T10:42:27Z</time>
 </trkpt>
 <trkpt lat="47.370049" lon="12.519150">
 <ele>1257.80</ele>
 <time>2010-04-29T10:42:37Z</time>
 </trkpt>
 <trkpt lat="47.370049" lon="12.518994">
 <ele>1259.25</ele>
 <time>2010-04-29T10:42:45Z</time>
 </trkpt>
 <trkpt lat="47.370052" lon="12.518850">
 <ele>1260.02</ele>
 <time>2010-04-29T10:42:52Z</time>
 </trkpt>
 <trkpt lat="47.370052" lon="12.518603">
 <ele>1261.35</ele>
 <time>2010-04-29T10:43:03Z</time>
 </trkpt>
 <trkpt lat="47.370003" lon="12.518372">
 <ele>1263.20</ele>
 <time>2010-04-29T10:43:14Z</time>
 </trkpt>
 <trkpt lat="47.369949" lon="12.518207">
 <ele>1264.66</ele>
 <time>2010-04-29T10:43:22Z</time>
 </trkpt>
 <trkpt lat="47.369892" lon="12.518084">
 <ele>1266.55</ele>
 <time>2010-04-29T10:43:29Z</time>
 </trkpt>
 <trkpt lat="47.369823" lon="12.517940">
 <ele>1268.29</ele>
 <time>2010-04-29T10:43:37Z</time>
 </trkpt>
 <trkpt lat="47.369766" lon="12.517796">
 <ele>1269.84</ele>
 <time>2010-04-29T10:43:45Z</time>
 </trkpt>
 <trkpt lat="47.369717" lon="12.517620">
 <ele>1271.38</ele>
 <time>2010-04-29T10:43:54Z</time>
 </trkpt>
 <trkpt lat="47.369678" lon="12.517476">
 <ele>1272.38</ele>
 <time>2010-04-29T10:44:01Z</time>
 </trkpt>
 <trkpt lat="47.369617" lon="12.517357">
 <ele>1273.50</ele>
 <time>2010-04-29T10:44:08Z</time>
 </trkpt>
 <trkpt lat="47.369511" lon="12.517239">
 <ele>1274.17</ele>
 <time>2010-04-29T10:44:16Z</time>
 </trkpt>
 <trkpt lat="47.369400" lon="12.517146">
 <ele>1274.86</ele>
 <time>2010-04-29T10:44:24Z</time>
 </trkpt>
 <trkpt lat="47.369305" lon="12.517027">
 <ele>1275.52</ele>
 <time>2010-04-29T10:44:32Z</time>
 </trkpt>
 <trkpt lat="47.369202" lon="12.516880">
 <ele>1276.70</ele>
 <time>2010-04-29T10:44:41Z</time>
 </trkpt>
 <trkpt lat="47.369080" lon="12.516800">
 <ele>1277.50</ele>
 <time>2010-04-29T10:44:49Z</time>
 </trkpt>
 <trkpt lat="47.368942" lon="12.516713">
 <ele>1278.18</ele>
 <time>2010-04-29T10:44:58Z</time>
 </trkpt>
 <trkpt lat="47.368828" lon="12.516586">
 <ele>1279.68</ele>
 <time>2010-04-29T10:45:06Z</time>
 </trkpt>
 <trkpt lat="47.368744" lon="12.516442">
 <ele>1281.03</ele>
 <time>2010-04-29T10:45:14Z</time>
 </trkpt>
 <trkpt lat="47.368649" lon="12.516226">
 <ele>1283.01</ele>
 <time>2010-04-29T10:45:25Z</time>
 </trkpt>
 <trkpt lat="47.368568" lon="12.516051">
 <ele>1285.13</ele>
 <time>2010-04-29T10:45:34Z</time>
 </trkpt>
 <trkpt lat="47.368477" lon="12.515889">
 <ele>1286.55</ele>
 <time>2010-04-29T10:45:43Z</time>
 </trkpt>
 <trkpt lat="47.368401" lon="12.515775">
 <ele>1287.89</ele>
 <time>2010-04-29T10:45:50Z</time>
 </trkpt>
 <trkpt lat="47.368313" lon="12.515629">
 <ele>1289.76</ele>
 <time>2010-04-29T10:45:59Z</time>
 </trkpt>
 <trkpt lat="47.368252" lon="12.515483">
 <ele>1290.99</ele>
 <time>2010-04-29T10:46:07Z</time>
 </trkpt>
 <trkpt lat="47.368202" lon="12.515311">
 <ele>1291.73</ele>
 <time>2010-04-29T10:46:15Z</time>
 </trkpt>
 <trkpt lat="47.368118" lon="12.515144">
 <ele>1292.64</ele>
 <time>2010-04-29T10:46:24Z</time>
 </trkpt>
 <trkpt lat="47.368000" lon="12.515035">
 <ele>1293.97</ele>
 <time>2010-04-29T10:46:33Z</time>
 </trkpt>
 <trkpt lat="47.367886" lon="12.514895">
 <ele>1295.40</ele>
 <time>2010-04-29T10:46:42Z</time>
 </trkpt>
 <trkpt lat="47.367805" lon="12.514709">
 <ele>1297.09</ele>
 <time>2010-04-29T10:46:51Z</time>
 </trkpt>
 <trkpt lat="47.367756" lon="12.514480">
 <ele>1298.16</ele>
 <time>2010-04-29T10:47:02Z</time>
 </trkpt>
 <trkpt lat="47.367752" lon="12.514311">
 <ele>1299.80</ele>
 <time>2010-04-29T10:47:10Z</time>
 </trkpt>
 <trkpt lat="47.367771" lon="12.514105">
 <ele>1301.48</ele>
 <time>2010-04-29T10:47:19Z</time>
 </trkpt>
 <trkpt lat="47.367767" lon="12.513921">
 <ele>1302.52</ele>
 <time>2010-04-29T10:47:27Z</time>
 </trkpt>
 <trkpt lat="47.367722" lon="12.513744">
 <ele>1303.58</ele>
 <time>2010-04-29T10:47:35Z</time>
 </trkpt>
 <trkpt lat="47.367596" lon="12.513547">
 <ele>1305.08</ele>
 <time>2010-04-29T10:47:46Z</time>
 </trkpt>
 <trkpt lat="47.367504" lon="12.513383">
 <ele>1307.21</ele>
 <time>2010-04-29T10:47:55Z</time>
 </trkpt>
 <trkpt lat="47.367435" lon="12.513198">
 <ele>1308.78</ele>
 <time>2010-04-29T10:48:04Z</time>
 </trkpt>
 <trkpt lat="47.367371" lon="12.512963">
 <ele>1310.52</ele>
 <time>2010-04-29T10:48:15Z</time>
 </trkpt>
 <trkpt lat="47.367352" lon="12.512794">
 <ele>1311.30</ele>
 <time>2010-04-29T10:48:23Z</time>
 </trkpt>
 <trkpt lat="47.367294" lon="12.512604">
 <ele>1313.20</ele>
 <time>2010-04-29T10:48:32Z</time>
 </trkpt>
 <trkpt lat="47.367207" lon="12.512444">
 <ele>1314.16</ele>
 <time>2010-04-29T10:48:40Z</time>
 </trkpt>
 <trkpt lat="47.367153" lon="12.512303">
 <ele>1314.26</ele>
 <time>2010-04-29T10:48:46Z</time>
 </trkpt>
 <trkpt lat="47.367123" lon="12.512105">
 <ele>1315.26</ele>
 <time>2010-04-29T10:48:54Z</time>
 </trkpt>
 <trkpt lat="47.367058" lon="12.511937">
 <ele>1315.42</ele>
 <time>2010-04-29T10:49:01Z</time>
 </trkpt>
 <trkpt lat="47.366936" lon="12.511707">
 <ele>1315.05</ele>
 <time>2010-04-29T10:49:07Z</time>
 </trkpt>
 <trkpt lat="47.366798" lon="12.511588">
 <ele>1314.43</ele>
 <time>2010-04-29T10:49:12Z</time>
 </trkpt>
 <trkpt lat="47.366596" lon="12.511509">
 <ele>1314.98</ele>
 <time>2010-04-29T10:49:20Z</time>
 </trkpt>
 <trkpt lat="47.366440" lon="12.511404">
 <ele>1314.92</ele>
 <time>2010-04-29T10:49:26Z</time>
 </trkpt>
 <trkpt lat="47.366268" lon="12.511263">
 <ele>1316.07</ele>
 <time>2010-04-29T10:49:34Z</time>
 </trkpt>
 <trkpt lat="47.366207" lon="12.511148">
 <ele>1316.58</ele>
 <time>2010-04-29T10:49:40Z</time>
 </trkpt>
 <trkpt lat="47.366203" lon="12.511130">
 <ele>1316.46</ele>
 <time>2010-04-29T10:49:41Z</time>
 </trkpt>
 <trkpt lat="47.366154" lon="12.510922">
 <ele>1316.42</ele>
 <time>2010-04-29T10:49:50Z</time>
 </trkpt>
 <trkpt lat="47.366116" lon="12.510800">
 <ele>1317.03</ele>
 <time>2010-04-29T10:49:56Z</time>
 </trkpt>
 <trkpt lat="47.366104" lon="12.510739">
 <ele>1317.54</ele>
 <time>2010-04-29T10:50:01Z</time>
 </trkpt>
 <trkpt lat="47.366013" lon="12.510586">
 <ele>1318.59</ele>
 <time>2010-04-29T10:50:25Z</time>
 </trkpt>
 <trkpt lat="47.366005" lon="12.510439">
 <ele>1320.50</ele>
 <time>2010-04-29T10:50:32Z</time>
 </trkpt>
 <trkpt lat="47.365982" lon="12.510304">
 <ele>1321.69</ele>
 <time>2010-04-29T10:50:39Z</time>
 </trkpt>
 <trkpt lat="47.365978" lon="12.510267">
 <ele>1322.43</ele>
 <time>2010-04-29T10:50:41Z</time>
 </trkpt>
 <trkpt lat="47.365936" lon="12.510075">
 <ele>1324.41</ele>
 <time>2010-04-29T10:50:51Z</time>
 </trkpt>
 <trkpt lat="47.365906" lon="12.509922">
 <ele>1326.22</ele>
 <time>2010-04-29T10:50:59Z</time>
 </trkpt>
 <trkpt lat="47.365871" lon="12.509744">
 <ele>1327.99</ele>
 <time>2010-04-29T10:51:08Z</time>
 </trkpt>
 <trkpt lat="47.365864" lon="12.509580">
 <ele>1328.89</ele>
 <time>2010-04-29T10:51:16Z</time>
 </trkpt>
 <trkpt lat="47.365852" lon="12.509394">
 <ele>1330.35</ele>
 <time>2010-04-29T10:51:25Z</time>
 </trkpt>
 <trkpt lat="47.365818" lon="12.509211">
 <ele>1331.98</ele>
 <time>2010-04-29T10:51:34Z</time>
 </trkpt>
 <trkpt lat="47.365776" lon="12.508997">
 <ele>1333.60</ele>
 <time>2010-04-29T10:51:44Z</time>
 </trkpt>
 <trkpt lat="47.365734" lon="12.508785">
 <ele>1335.20</ele>
 <time>2010-04-29T10:51:54Z</time>
 </trkpt>
 <trkpt lat="47.365685" lon="12.508602">
 <ele>1336.59</ele>
 <time>2010-04-29T10:52:03Z</time>
 </trkpt>
 <trkpt lat="47.365681" lon="12.508428">
 <ele>1337.53</ele>
 <time>2010-04-29T10:52:11Z</time>
 </trkpt>
 <trkpt lat="47.365662" lon="12.508284">
 <ele>1338.25</ele>
 <time>2010-04-29T10:52:18Z</time>
 </trkpt>
 <trkpt lat="47.365646" lon="12.508078">
 <ele>1339.27</ele>
 <time>2010-04-29T10:52:28Z</time>
 </trkpt>
 <trkpt lat="47.365627" lon="12.507934">
 <ele>1339.89</ele>
 <time>2010-04-29T10:52:36Z</time>
 </trkpt>
 <trkpt lat="47.365620" lon="12.507842">
 <ele>1339.99</ele>
 <time>2010-04-29T10:52:42Z</time>
 </trkpt>
 <trkpt lat="47.365620" lon="12.507840">
 <ele>1340.08</ele>
 <time>2010-04-29T10:52:43Z</time>
 </trkpt>
 <trkpt lat="47.365555" lon="12.507751">
 <ele>1340.15</ele>
 <time>2010-04-29T10:52:56Z</time>
 </trkpt>
 <trkpt lat="47.365551" lon="12.507748">
 <ele>1340.09</ele>
 <time>2010-04-29T10:52:58Z</time>
 </trkpt>
 <trkpt lat="47.365555" lon="12.507713">
 <ele>1340.25</ele>
 <time>2010-04-29T10:53:24Z</time>
 </trkpt>
 <trkpt lat="47.365562" lon="12.507713">
 <ele>1340.38</ele>
 <time>2010-04-29T10:53:25Z</time>
 </trkpt>
 <trkpt lat="47.365570" lon="12.507723">
 <ele>1340.50</ele>
 <time>2010-04-29T10:53:27Z</time>
 </trkpt>
 <trkpt lat="47.365589" lon="12.507803">
 <ele>1340.46</ele>
 <time>2010-04-29T10:53:32Z</time>
 </trkpt>
 <trkpt lat="47.365616" lon="12.508014">
 <ele>1340.39</ele>
 <time>2010-04-29T10:53:39Z</time>
 </trkpt>
 <trkpt lat="47.365627" lon="12.508244">
 <ele>1339.88</ele>
 <time>2010-04-29T10:53:45Z</time>
 </trkpt>
 <trkpt lat="47.365639" lon="12.508321">
 <ele>1339.48</ele>
 <time>2010-04-29T10:53:48Z</time>
 </trkpt>
 <trkpt lat="47.365738" lon="12.508463">
 <ele>1338.71</ele>
 <time>2010-04-29T10:53:54Z</time>
 </trkpt>
 <trkpt lat="47.365795" lon="12.508493">
 <ele>1338.79</ele>
 <time>2010-04-29T10:53:57Z</time>
 </trkpt>
 <trkpt lat="47.365860" lon="12.508550">
 <ele>1340.04</ele>
 <time>2010-04-29T10:54:02Z</time>
 </trkpt>
 <trkpt lat="47.365971" lon="12.508669">
 <ele>1341.90</ele>
 <time>2010-04-29T10:54:11Z</time>
 </trkpt>
 <trkpt lat="47.366032" lon="12.508747">
 <ele>1342.89</ele>
 <time>2010-04-29T10:54:16Z</time>
 </trkpt>
 <trkpt lat="47.366093" lon="12.508739">
 <ele>1344.19</ele>
 <time>2010-04-29T10:54:22Z</time>
 </trkpt>
 <trkpt lat="47.366093" lon="12.508730">
 <ele>1344.49</ele>
 <time>2010-04-29T10:54:24Z</time>
 </trkpt>
 <trkpt lat="47.365852" lon="12.509357">
 <ele>1346.56</ele>
 <time>2010-04-29T10:58:25Z</time>
 </trkpt>
 <trkpt lat="47.365868" lon="12.509287">
 <ele>1346.53</ele>
 <time>2010-04-29T10:58:26Z</time>
 </trkpt>
 <trkpt lat="47.365856" lon="12.509343">
 <ele>1346.52</ele>
 <time>2010-04-29T10:58:28Z</time>
 </trkpt>
 <trkpt lat="47.365948" lon="12.508650">
 <ele>1344.79</ele>
 <time>2010-04-29T11:02:39Z</time>
 </trkpt>
 <trkpt lat="47.365795" lon="12.508473">
 <ele>1342.05</ele>
 <time>2010-04-29T11:02:48Z</time>
 </trkpt>
 <trkpt lat="47.365726" lon="12.508438">
 <ele>1340.99</ele>
 <time>2010-04-29T11:02:51Z</time>
 </trkpt>
 <trkpt lat="47.365673" lon="12.508551">
 <ele>1339.93</ele>
 <time>2010-04-29T11:02:56Z</time>
 </trkpt>
 <trkpt lat="47.365677" lon="12.508596">
 <ele>1339.74</ele>
 <time>2010-04-29T11:02:57Z</time>
 </trkpt>
 <trkpt lat="47.365746" lon="12.509039">
 <ele>1337.11</ele>
 <time>2010-04-29T11:03:05Z</time>
 </trkpt>
 <trkpt lat="47.365791" lon="12.509351">
 <ele>1334.61</ele>
 <time>2010-04-29T11:03:10Z</time>
 </trkpt>
 <trkpt lat="47.365807" lon="12.509652">
 <ele>1332.01</ele>
 <time>2010-04-29T11:03:15Z</time>
 </trkpt>
 <trkpt lat="47.365856" lon="12.509981">
 <ele>1329.75</ele>
 <time>2010-04-29T11:03:21Z</time>
 </trkpt>
 <trkpt lat="47.365944" lon="12.510333">
 <ele>1326.00</ele>
 <time>2010-04-29T11:03:28Z</time>
 </trkpt>
 <trkpt lat="47.366009" lon="12.510590">
 <ele>1322.45</ele>
 <time>2010-04-29T11:03:34Z</time>
 </trkpt>
 <trkpt lat="47.366062" lon="12.510717">
 <ele>1320.82</ele>
 <time>2010-04-29T11:03:39Z</time>
 </trkpt>
 <trkpt lat="47.366074" lon="12.510764">
 <ele>1320.04</ele>
 <time>2010-04-29T11:03:43Z</time>
 </trkpt>
 <trkpt lat="47.365948" lon="12.510965">
 <ele>1319.21</ele>
 <time>2010-04-29T11:05:04Z</time>
 </trkpt>
 <trkpt lat="47.365936" lon="12.511034">
 <ele>1318.80</ele>
 <time>2010-04-29T11:05:06Z</time>
 </trkpt>
 <trkpt lat="47.365948" lon="12.511291">
 <ele>1316.62</ele>
 <time>2010-04-29T11:05:11Z</time>
 </trkpt>
 <trkpt lat="47.366005" lon="12.511512">
 <ele>1313.98</ele>
 <time>2010-04-29T11:05:15Z</time>
 </trkpt>
 <trkpt lat="47.366154" lon="12.511772">
 <ele>1310.78</ele>
 <time>2010-04-29T11:05:20Z</time>
 </trkpt>
 <trkpt lat="47.366257" lon="12.511943">
 <ele>1308.34</ele>
 <time>2010-04-29T11:05:23Z</time>
 </trkpt>
 <trkpt lat="47.366322" lon="12.512062">
 <ele>1307.64</ele>
 <time>2010-04-29T11:05:25Z</time>
 </trkpt>
 <trkpt lat="47.366428" lon="12.512325">
 <ele>1305.44</ele>
 <time>2010-04-29T11:05:29Z</time>
 </trkpt>
 <trkpt lat="47.366455" lon="12.512390">
 <ele>1305.14</ele>
 <time>2010-04-29T11:05:30Z</time>
 </trkpt>
 <trkpt lat="47.366524" lon="12.512670">
 <ele>1305.70</ele>
 <time>2010-04-29T11:05:35Z</time>
 </trkpt>
 <trkpt lat="47.366528" lon="12.512831">
 <ele>1306.45</ele>
 <time>2010-04-29T11:05:40Z</time>
 </trkpt>
 <trkpt lat="47.366547" lon="12.513022">
 <ele>1306.41</ele>
 <time>2010-04-29T11:05:46Z</time>
 </trkpt>
 <trkpt lat="47.366604" lon="12.513373">
 <ele>1306.91</ele>
 <time>2010-04-29T11:05:54Z</time>
 </trkpt>
 <trkpt lat="47.366638" lon="12.513850">
 <ele>1306.36</ele>
 <time>2010-04-29T11:06:02Z</time>
 </trkpt>
 <trkpt lat="47.366657" lon="12.513975">
 <ele>1306.10</ele>
 <time>2010-04-29T11:06:04Z</time>
 </trkpt>
 <trkpt lat="47.366802" lon="12.514452">
 <ele>1305.59</ele>
 <time>2010-04-29T11:06:12Z</time>
 </trkpt>
 <trkpt lat="47.366924" lon="12.514906">
 <ele>1304.61</ele>
 <time>2010-04-29T11:06:19Z</time>
 </trkpt>
 <trkpt lat="47.367016" lon="12.515416">
 <ele>1304.20</ele>
 <time>2010-04-29T11:06:26Z</time>
 </trkpt>
 <trkpt lat="47.367050" lon="12.515644">
 <ele>1303.65</ele>
 <time>2010-04-29T11:06:29Z</time>
 </trkpt>
 <trkpt lat="47.367161" lon="12.515926">
 <ele>1303.07</ele>
 <time>2010-04-29T11:06:33Z</time>
 </trkpt>
 <trkpt lat="47.367420" lon="12.516366">
 <ele>1301.04</ele>
 <time>2010-04-29T11:06:40Z</time>
 </trkpt>
 <trkpt lat="47.367481" lon="12.516495">
 <ele>1300.60</ele>
 <time>2010-04-29T11:06:42Z</time>
 </trkpt>
 <trkpt lat="47.367710" lon="12.516867">
 <ele>1297.99</ele>
 <time>2010-04-29T11:06:49Z</time>
 </trkpt>
 <trkpt lat="47.367908" lon="12.517276">
 <ele>1295.09</ele>
 <time>2010-04-29T11:06:55Z</time>
 </trkpt>
 <trkpt lat="47.368061" lon="12.517748">
 <ele>1291.96</ele>
 <time>2010-04-29T11:07:02Z</time>
 </trkpt>
 <trkpt lat="47.368172" lon="12.518319">
 <ele>1288.34</ele>
 <time>2010-04-29T11:07:09Z</time>
 </trkpt>
 <trkpt lat="47.368217" lon="12.518975">
 <ele>1283.04</ele>
 <time>2010-04-29T11:07:17Z</time>
 </trkpt>
 <trkpt lat="47.368198" lon="12.519222">
 <ele>1281.70</ele>
 <time>2010-04-29T11:07:20Z</time>
 </trkpt>
 <trkpt lat="47.368092" lon="12.519640">
 <ele>1278.77</ele>
 <time>2010-04-29T11:07:25Z</time>
 </trkpt>
 <trkpt lat="47.368061" lon="12.520136">
 <ele>1276.55</ele>
 <time>2010-04-29T11:07:31Z</time>
 </trkpt>
 <trkpt lat="47.368114" lon="12.520383">
 <ele>1274.97</ele>
 <time>2010-04-29T11:07:35Z</time>
 </trkpt>
 <trkpt lat="47.368210" lon="12.520615">
 <ele>1273.38</ele>
 <time>2010-04-29T11:07:39Z</time>
 </trkpt>
 <trkpt lat="47.368256" lon="12.520971">
 <ele>1271.35</ele>
 <time>2010-04-29T11:07:44Z</time>
 </trkpt>
 <trkpt lat="47.368237" lon="12.521645">
 <ele>1268.07</ele>
 <time>2010-04-29T11:07:52Z</time>
 </trkpt>
 <trkpt lat="47.368301" lon="12.522222">
 <ele>1265.12</ele>
 <time>2010-04-29T11:07:59Z</time>
 </trkpt>
 <trkpt lat="47.368389" lon="12.522487">
 <ele>1263.51</ele>
 <time>2010-04-29T11:08:03Z</time>
 </trkpt>
 <trkpt lat="47.368553" lon="12.522971">
 <ele>1260.36</ele>
 <time>2010-04-29T11:08:11Z</time>
 </trkpt>
 <trkpt lat="47.368671" lon="12.523474">
 <ele>1257.60</ele>
 <time>2010-04-29T11:08:18Z</time>
 </trkpt>
 <trkpt lat="47.368774" lon="12.523888">
 <ele>1255.47</ele>
 <time>2010-04-29T11:08:24Z</time>
 </trkpt>
 <trkpt lat="47.368816" lon="12.524179">
 <ele>1253.97</ele>
 <time>2010-04-29T11:08:29Z</time>
 </trkpt>
 <trkpt lat="47.368824" lon="12.524555">
 <ele>1251.72</ele>
 <time>2010-04-29T11:08:36Z</time>
 </trkpt>
 <trkpt lat="47.368820" lon="12.524581">
 <ele>1251.02</ele>
 <time>2010-04-29T11:08:40Z</time>
 </trkpt>
 <trkpt lat="47.368801" lon="12.524756">
 <ele>1249.98</ele>
 <time>2010-04-29T11:08:52Z</time>
 </trkpt>
 <trkpt lat="47.368816" lon="12.525031">
 <ele>1248.71</ele>
 <time>2010-04-29T11:08:57Z</time>
 </trkpt>
 <trkpt lat="47.368843" lon="12.525151">
 <ele>1247.91</ele>
 <time>2010-04-29T11:09:01Z</time>
 </trkpt>
 <trkpt lat="47.368855" lon="12.525171">
 <ele>1247.35</ele>
 <time>2010-04-29T11:09:05Z</time>
 </trkpt>
 <trkpt lat="47.368942" lon="12.525375">
 <ele>1246.99</ele>
 <time>2010-04-29T11:09:13Z</time>
 </trkpt>
 <trkpt lat="47.369072" lon="12.525910">
 <ele>1243.82</ele>
 <time>2010-04-29T11:09:22Z</time>
 </trkpt>
 <trkpt lat="47.369118" lon="12.526235">
 <ele>1241.43</ele>
 <time>2010-04-29T11:09:28Z</time>
 </trkpt>
 <trkpt lat="47.369263" lon="12.526517">
 <ele>1238.32</ele>
 <time>2010-04-29T11:09:34Z</time>
 </trkpt>
 <trkpt lat="47.369312" lon="12.526610">
 <ele>1237.83</ele>
 <time>2010-04-29T11:09:36Z</time>
 </trkpt>
 <trkpt lat="47.369446" lon="12.527099">
 <ele>1233.22</ele>
 <time>2010-04-29T11:09:44Z</time>
 </trkpt>
 <trkpt lat="47.369518" lon="12.527603">
 <ele>1228.69</ele>
 <time>2010-04-29T11:09:52Z</time>
 </trkpt>
 <trkpt lat="47.369522" lon="12.528155">
 <ele>1223.82</ele>
 <time>2010-04-29T11:10:01Z</time>
 </trkpt>
 <trkpt lat="47.369469" lon="12.528496">
 <ele>1221.67</ele>
 <time>2010-04-29T11:10:08Z</time>
 </trkpt>
 <trkpt lat="47.369503" lon="12.528676">
 <ele>1220.23</ele>
 <time>2010-04-29T11:10:12Z</time>
 </trkpt>
 <trkpt lat="47.369583" lon="12.528828">
 <ele>1218.64</ele>
 <time>2010-04-29T11:10:17Z</time>
 </trkpt>
 <trkpt lat="47.369591" lon="12.528877">
 <ele>1218.21</ele>
 <time>2010-04-29T11:10:18Z</time>
 </trkpt>
 <trkpt lat="47.369568" lon="12.529254">
 <ele>1215.95</ele>
 <time>2010-04-29T11:10:23Z</time>
 </trkpt>
 <trkpt lat="47.369568" lon="12.529347">
 <ele>1215.51</ele>
 <time>2010-04-29T11:10:24Z</time>
 </trkpt>
 <trkpt lat="47.369637" lon="12.529838">
 <ele>1213.95</ele>
 <time>2010-04-29T11:10:29Z</time>
 </trkpt>
 <trkpt lat="47.369720" lon="12.530283">
 <ele>1212.76</ele>
 <time>2010-04-29T11:10:34Z</time>
 </trkpt>
 <trkpt lat="47.369728" lon="12.530586">
 <ele>1212.36</ele>
 <time>2010-04-29T11:10:38Z</time>
 </trkpt>
 <trkpt lat="47.369740" lon="12.530892">
 <ele>1211.82</ele>
 <time>2010-04-29T11:10:43Z</time>
 </trkpt>
 <trkpt lat="47.369720" lon="12.531078">
 <ele>1211.20</ele>
 <time>2010-04-29T11:10:46Z</time>
 </trkpt>
 <trkpt lat="47.369747" lon="12.531514">
 <ele>1210.46</ele>
 <time>2010-04-29T11:10:52Z</time>
 </trkpt>
 <trkpt lat="47.369785" lon="12.531958">
 <ele>1209.44</ele>
 <time>2010-04-29T11:10:57Z</time>
 </trkpt>
 <trkpt lat="47.369965" lon="12.532602">
 <ele>1207.29</ele>
 <time>2010-04-29T11:11:04Z</time>
 </trkpt>
 <trkpt lat="47.370201" lon="12.532984">
 <ele>1206.15</ele>
 <time>2010-04-29T11:11:09Z</time>
 </trkpt>
 <trkpt lat="47.370396" lon="12.533225">
 <ele>1205.17</ele>
 <time>2010-04-29T11:11:13Z</time>
 </trkpt>
 <trkpt lat="47.370567" lon="12.533665">
 <ele>1204.17</ele>
 <time>2010-04-29T11:11:19Z</time>
 </trkpt>
 <trkpt lat="47.370766" lon="12.534389">
 <ele>1202.01</ele>
 <time>2010-04-29T11:11:27Z</time>
 </trkpt>
 <trkpt lat="47.371037" lon="12.535019">
 <ele>1200.27</ele>
 <time>2010-04-29T11:11:34Z</time>
 </trkpt>
 <trkpt lat="47.371490" lon="12.536037">
 <ele>1198.28</ele>
 <time>2010-04-29T11:11:45Z</time>
 </trkpt>
 <trkpt lat="47.371815" lon="12.536802">
 <ele>1196.61</ele>
 <time>2010-04-29T11:11:53Z</time>
 </trkpt>
 <trkpt lat="47.372204" lon="12.537530">
 <ele>1195.17</ele>
 <time>2010-04-29T11:12:01Z</time>
 </trkpt>
 <trkpt lat="47.372532" lon="12.538100">
 <ele>1194.71</ele>
 <time>2010-04-29T11:12:08Z</time>
 </trkpt>
 <trkpt lat="47.372658" lon="12.538598">
 <ele>1193.97</ele>
 <time>2010-04-29T11:12:13Z</time>
 </trkpt>
 <trkpt lat="47.372757" lon="12.539393">
 <ele>1192.07</ele>
 <time>2010-04-29T11:12:20Z</time>
 </trkpt>
 <trkpt lat="47.373009" lon="12.540184">
 <ele>1189.92</ele>
 <time>2010-04-29T11:12:27Z</time>
 </trkpt>
 <trkpt lat="47.373302" lon="12.540980">
 <ele>1188.33</ele>
 <time>2010-04-29T11:12:34Z</time>
 </trkpt>
 <trkpt lat="47.373379" lon="12.541459">
 <ele>1188.07</ele>
 <time>2010-04-29T11:12:38Z</time>
 </trkpt>
 <trkpt lat="47.373425" lon="12.542249">
 <ele>1188.49</ele>
 <time>2010-04-29T11:12:45Z</time>
 </trkpt>
 <trkpt lat="47.373440" lon="12.542999">
 <ele>1186.49</ele>
 <time>2010-04-29T11:12:51Z</time>
 </trkpt>
 <trkpt lat="47.373535" lon="12.543805">
 <ele>1184.62</ele>
 <time>2010-04-29T11:12:57Z</time>
 </trkpt>
 <trkpt lat="47.373596" lon="12.544582">
 <ele>1183.59</ele>
 <time>2010-04-29T11:13:03Z</time>
 </trkpt>
 <trkpt lat="47.373695" lon="12.545415">
 <ele>1183.94</ele>
 <time>2010-04-29T11:13:10Z</time>
 </trkpt>
 <trkpt lat="47.373730" lon="12.546151">
 <ele>1182.82</ele>
 <time>2010-04-29T11:13:16Z</time>
 </trkpt>
 <trkpt lat="47.373775" lon="12.546528">
 <ele>1182.14</ele>
 <time>2010-04-29T11:13:19Z</time>
 </trkpt>
 <trkpt lat="47.373749" lon="12.547370">
 <ele>1179.77</ele>
 <time>2010-04-29T11:13:25Z</time>
 </trkpt>
 <trkpt lat="47.373783" lon="12.548209">
 <ele>1177.63</ele>
 <time>2010-04-29T11:13:31Z</time>
 </trkpt>
 <trkpt lat="47.373928" lon="12.549844">
 <ele>1174.85</ele>
 <time>2010-04-29T11:13:43Z</time>
 </trkpt>
 <trkpt lat="47.373974" lon="12.550218">
 <ele>1174.67</ele>
 <time>2010-04-29T11:13:46Z</time>
 </trkpt>
 <trkpt lat="47.373882" lon="12.550655">
 <ele>1174.68</ele>
 <time>2010-04-29T11:13:50Z</time>
 </trkpt>
 <trkpt lat="47.373795" lon="12.550840">
 <ele>1174.79</ele>
 <time>2010-04-29T11:13:52Z</time>
 </trkpt>
 <trkpt lat="47.373692" lon="12.551267">
 <ele>1174.37</ele>
 <time>2010-04-29T11:13:56Z</time>
 </trkpt>
 <trkpt lat="47.373695" lon="12.551506">
 <ele>1173.80</ele>
 <time>2010-04-29T11:13:58Z</time>
 </trkpt>
 <trkpt lat="47.373806" lon="12.552228">
 <ele>1172.26</ele>
 <time>2010-04-29T11:14:04Z</time>
 </trkpt>
 <trkpt lat="47.373802" lon="12.552861">
 <ele>1170.57</ele>
 <time>2010-04-29T11:14:09Z</time>
 </trkpt>
 <trkpt lat="47.373795" lon="12.553754">
 <ele>1169.65</ele>
 <time>2010-04-29T11:14:16Z</time>
 </trkpt>
 <trkpt lat="47.373810" lon="12.554122">
 <ele>1169.03</ele>
 <time>2010-04-29T11:14:19Z</time>
 </trkpt>
 <trkpt lat="47.373943" lon="12.554544">
 <ele>1167.75</ele>
 <time>2010-04-29T11:14:23Z</time>
 </trkpt>
 <trkpt lat="47.374119" lon="12.554794">
 <ele>1167.49</ele>
 <time>2010-04-29T11:14:26Z</time>
 </trkpt>
 <trkpt lat="47.374252" lon="12.554940">
 <ele>1167.60</ele>
 <time>2010-04-29T11:14:28Z</time>
 </trkpt>
 <trkpt lat="47.374382" lon="12.555341">
 <ele>1167.21</ele>
 <time>2010-04-29T11:14:32Z</time>
 </trkpt>
 <trkpt lat="47.374432" lon="12.555990">
 <ele>1166.77</ele>
 <time>2010-04-29T11:14:38Z</time>
 </trkpt>
 <trkpt lat="47.374443" lon="12.556097">
 <ele>1166.59</ele>
 <time>2010-04-29T11:14:39Z</time>
 </trkpt>
 <trkpt lat="47.374355" lon="12.556633">
 <ele>1165.33</ele>
 <time>2010-04-29T11:14:44Z</time>
 </trkpt>
 <trkpt lat="47.374229" lon="12.557361">
 <ele>1162.93</ele>
 <time>2010-04-29T11:14:50Z</time>
 </trkpt>
 <trkpt lat="47.374210" lon="12.557631">
 <ele>1161.68</ele>
 <time>2010-04-29T11:14:52Z</time>
 </trkpt>
 <trkpt lat="47.374207" lon="12.557770">
 <ele>1161.18</ele>
 <time>2010-04-29T11:14:53Z</time>
 </trkpt>
 <trkpt lat="47.374210" lon="12.558048">
 <ele>1160.08</ele>
 <time>2010-04-29T11:14:55Z</time>
 </trkpt>
 <trkpt lat="47.374222" lon="12.558185">
 <ele>1159.65</ele>
 <time>2010-04-29T11:14:56Z</time>
 </trkpt>
 <trkpt lat="47.374271" lon="12.558590">
 <ele>1158.83</ele>
 <time>2010-04-29T11:14:59Z</time>
 </trkpt>
 <trkpt lat="47.374397" lon="12.559362">
 <ele>1158.09</ele>
 <time>2010-04-29T11:15:05Z</time>
 </trkpt>
 <trkpt lat="47.374416" lon="12.559488">
 <ele>1158.02</ele>
 <time>2010-04-29T11:15:06Z</time>
 </trkpt>
 <trkpt lat="47.374439" lon="12.559615">
 <ele>1157.74</ele>
 <time>2010-04-29T11:15:07Z</time>
 </trkpt>
 <trkpt lat="47.374683" lon="12.560848">
 <ele>1155.18</ele>
 <time>2010-04-29T11:15:17Z</time>
 </trkpt>
 <trkpt lat="47.374897" lon="12.561395">
 <ele>1153.91</ele>
 <time>2010-04-29T11:15:22Z</time>
 </trkpt>
 <trkpt lat="47.375000" lon="12.561591">
 <ele>1153.42</ele>
 <time>2010-04-29T11:15:24Z</time>
 </trkpt>
 <trkpt lat="47.375057" lon="12.561683">
 <ele>1153.31</ele>
 <time>2010-04-29T11:15:25Z</time>
 </trkpt>
 <trkpt lat="47.375347" lon="12.562080">
 <ele>1152.93</ele>
 <time>2010-04-29T11:15:30Z</time>
 </trkpt>
 <trkpt lat="47.375443" lon="12.562234">
 <ele>1153.20</ele>
 <time>2010-04-29T11:15:32Z</time>
 </trkpt>
 <trkpt lat="47.375519" lon="12.562394">
 <ele>1153.70</ele>
 <time>2010-04-29T11:15:34Z</time>
 </trkpt>
 <trkpt lat="47.375603" lon="12.562728">
 <ele>1154.28</ele>
 <time>2010-04-29T11:15:38Z</time>
 </trkpt>
 <trkpt lat="47.375595" lon="12.563062">
 <ele>1154.78</ele>
 <time>2010-04-29T11:15:42Z</time>
 </trkpt>
 <trkpt lat="47.375515" lon="12.563875">
 <ele>1153.85</ele>
 <time>2010-04-29T11:15:51Z</time>
 </trkpt>
 <trkpt lat="47.375507" lon="12.564689">
 <ele>1152.54</ele>
 <time>2010-04-29T11:15:59Z</time>
 </trkpt>
 <trkpt lat="47.375443" lon="12.565309">
 <ele>1149.66</ele>
 <time>2010-04-29T11:16:04Z</time>
 </trkpt>
 <trkpt lat="47.375320" lon="12.565825">
 <ele>1146.80</ele>
 <time>2010-04-29T11:16:08Z</time>
 </trkpt>
 <trkpt lat="47.375168" lon="12.566342">
 <ele>1145.02</ele>
 <time>2010-04-29T11:16:12Z</time>
 </trkpt>
 <trkpt lat="47.375095" lon="12.566890">
 <ele>1143.34</ele>
 <time>2010-04-29T11:16:16Z</time>
 </trkpt>
 <trkpt lat="47.375107" lon="12.568197">
 <ele>1140.51</ele>
 <time>2010-04-29T11:16:25Z</time>
 </trkpt>
 <trkpt lat="47.375111" lon="12.568480">
 <ele>1140.06</ele>
 <time>2010-04-29T11:16:27Z</time>
 </trkpt>
 <trkpt lat="47.375111" lon="12.568623">
 <ele>1139.73</ele>
 <time>2010-04-29T11:16:28Z</time>
 </trkpt>
 <trkpt lat="47.375137" lon="12.570045">
 <ele>1136.61</ele>
 <time>2010-04-29T11:16:38Z</time>
 </trkpt>
 <trkpt lat="47.375237" lon="12.571208">
 <ele>1135.71</ele>
 <time>2010-04-29T11:16:47Z</time>
 </trkpt>
 <trkpt lat="47.375309" lon="12.571859">
 <ele>1134.68</ele>
 <time>2010-04-29T11:16:52Z</time>
 </trkpt>
 <trkpt lat="47.375340" lon="12.572120">
 <ele>1134.00</ele>
 <time>2010-04-29T11:16:54Z</time>
 </trkpt>
 <trkpt lat="47.375351" lon="12.572250">
 <ele>1133.77</ele>
 <time>2010-04-29T11:16:55Z</time>
 </trkpt>
 <trkpt lat="47.375427" lon="12.573161">
 <ele>1132.07</ele>
 <time>2010-04-29T11:17:02Z</time>
 </trkpt>
 <trkpt lat="47.375412" lon="12.573931">
 <ele>1130.93</ele>
 <time>2010-04-29T11:17:08Z</time>
 </trkpt>
 <trkpt lat="47.375381" lon="12.574310">
 <ele>1130.48</ele>
 <time>2010-04-29T11:17:11Z</time>
 </trkpt>
 <trkpt lat="47.375343" lon="12.574574">
 <ele>1129.93</ele>
 <time>2010-04-29T11:17:13Z</time>
 </trkpt>
 <trkpt lat="47.375320" lon="12.574708">
 <ele>1129.55</ele>
 <time>2010-04-29T11:17:14Z</time>
 </trkpt>
 <trkpt lat="47.375156" lon="12.575887">
 <ele>1128.11</ele>
 <time>2010-04-29T11:17:23Z</time>
 </trkpt>
 <trkpt lat="47.375118" lon="12.576293">
 <ele>1127.69</ele>
 <time>2010-04-29T11:17:26Z</time>
 </trkpt>
 <trkpt lat="47.375107" lon="12.576429">
 <ele>1127.56</ele>
 <time>2010-04-29T11:17:27Z</time>
 </trkpt>
 <trkpt lat="47.375076" lon="12.577351">
 <ele>1126.19</ele>
 <time>2010-04-29T11:17:34Z</time>
 </trkpt>
 <trkpt lat="47.375156" lon="12.577990">
 <ele>1125.68</ele>
 <time>2010-04-29T11:17:39Z</time>
 </trkpt>
 <trkpt lat="47.375328" lon="12.578893">
 <ele>1123.25</ele>
 <time>2010-04-29T11:17:46Z</time>
 </trkpt>
 <trkpt lat="47.375427" lon="12.579947">
 <ele>1121.58</ele>
 <time>2010-04-29T11:17:54Z</time>
 </trkpt>
 <trkpt lat="47.375526" lon="12.581202">
 <ele>1120.31</ele>
 <time>2010-04-29T11:18:04Z</time>
 </trkpt>
 <trkpt lat="47.375675" lon="12.582149">
 <ele>1119.50</ele>
 <time>2010-04-29T11:18:12Z</time>
 </trkpt>
 <trkpt lat="47.375942" lon="12.583341">
 <ele>1117.42</ele>
 <time>2010-04-29T11:18:22Z</time>
 </trkpt>
 <trkpt lat="47.376034" lon="12.583699">
 <ele>1116.72</ele>
 <time>2010-04-29T11:18:25Z</time>
 </trkpt>
 <trkpt lat="47.376087" lon="12.583939">
 <ele>1116.23</ele>
 <time>2010-04-29T11:18:27Z</time>
 </trkpt>
 <trkpt lat="47.376141" lon="12.584178">
 <ele>1115.51</ele>
 <time>2010-04-29T11:18:29Z</time>
 </trkpt>
 <trkpt lat="47.376163" lon="12.584295">
 <ele>1115.31</ele>
 <time>2010-04-29T11:18:30Z</time>
 </trkpt>
 <trkpt lat="47.376358" lon="12.585325">
 <ele>1114.02</ele>
 <time>2010-04-29T11:18:39Z</time>
 </trkpt>
 <trkpt lat="47.376438" lon="12.585801">
 <ele>1112.74</ele>
 <time>2010-04-29T11:18:43Z</time>
 </trkpt>
 <trkpt lat="47.376602" lon="12.586944">
 <ele>1110.55</ele>
 <time>2010-04-29T11:18:52Z</time>
 </trkpt>
 <trkpt lat="47.376732" lon="12.587867">
 <ele>1109.71</ele>
 <time>2010-04-29T11:19:00Z</time>
 </trkpt>
 <trkpt lat="47.376839" lon="12.588521">
 <ele>1109.32</ele>
 <time>2010-04-29T11:19:06Z</time>
 </trkpt>
 <trkpt lat="47.376991" lon="12.589099">
 <ele>1109.19</ele>
 <time>2010-04-29T11:19:12Z</time>
 </trkpt>
 <trkpt lat="47.377251" lon="12.589623">
 <ele>1108.88</ele>
 <time>2010-04-29T11:19:18Z</time>
 </trkpt>
 <trkpt lat="47.377548" lon="12.589965">
 <ele>1107.79</ele>
 <time>2010-04-29T11:19:23Z</time>
 </trkpt>
 <trkpt lat="47.377834" lon="12.590131">
 <ele>1107.86</ele>
 <time>2010-04-29T11:19:27Z</time>
 </trkpt>
 <trkpt lat="47.377975" lon="12.590203">
 <ele>1107.72</ele>
 <time>2010-04-29T11:19:29Z</time>
 </trkpt>
 <trkpt lat="47.381065" lon="12.601258">
 <ele>1092.85</ele>
 <time>2010-04-29T11:21:04Z</time>
 </trkpt>
 <trkpt lat="47.381168" lon="12.601840">
 <ele>1091.74</ele>
 <time>2010-04-29T11:21:09Z</time>
 </trkpt>
 <trkpt lat="47.381268" lon="12.602040">
 <ele>1091.14</ele>
 <time>2010-04-29T11:21:11Z</time>
 </trkpt>
 <trkpt lat="47.381664" lon="12.602823">
 <ele>1088.16</ele>
 <time>2010-04-29T11:21:19Z</time>
 </trkpt>
 <trkpt lat="47.381855" lon="12.603392">
 <ele>1086.98</ele>
 <time>2010-04-29T11:21:24Z</time>
 </trkpt>
 <trkpt lat="47.382015" lon="12.603960">
 <ele>1085.82</ele>
 <time>2010-04-29T11:21:29Z</time>
 </trkpt>
 <trkpt lat="47.382050" lon="12.604064">
 <ele>1085.88</ele>
 <time>2010-04-29T11:21:30Z</time>
 </trkpt>
 <trkpt lat="47.382183" lon="12.604327">
 <ele>1086.05</ele>
 <time>2010-04-29T11:21:33Z</time>
 </trkpt>
 <trkpt lat="47.382370" lon="12.604448">
 <ele>1085.77</ele>
 <time>2010-04-29T11:21:36Z</time>
 </trkpt>
 <trkpt lat="47.382622" lon="12.604531">
 <ele>1085.11</ele>
 <time>2010-04-29T11:21:40Z</time>
 </trkpt>
 <trkpt lat="47.382763" lon="12.604747">
 <ele>1084.41</ele>
 <time>2010-04-29T11:21:43Z</time>
 </trkpt>
 <trkpt lat="47.383076" lon="12.605583">
 <ele>1082.52</ele>
 <time>2010-04-29T11:21:52Z</time>
 </trkpt>
 <trkpt lat="47.383411" lon="12.606462">
 <ele>1081.12</ele>
 <time>2010-04-29T11:22:02Z</time>
 </trkpt>
 <trkpt lat="47.383644" lon="12.607155">
 <ele>1080.74</ele>
 <time>2010-04-29T11:22:10Z</time>
 </trkpt>
 <trkpt lat="47.383785" lon="12.607589">
 <ele>1080.53</ele>
 <time>2010-04-29T11:22:15Z</time>
 </trkpt>
 <trkpt lat="47.383835" lon="12.607767">
 <ele>1080.23</ele>
 <time>2010-04-29T11:22:17Z</time>
 </trkpt>
 <trkpt lat="47.383858" lon="12.607856">
 <ele>1080.05</ele>
 <time>2010-04-29T11:22:18Z</time>
 </trkpt>
 <trkpt lat="47.383881" lon="12.607946">
 <ele>1079.89</ele>
 <time>2010-04-29T11:22:19Z</time>
 </trkpt>
 <trkpt lat="47.384041" lon="12.608584">
 <ele>1079.78</ele>
 <time>2010-04-29T11:22:26Z</time>
 </trkpt>
 <trkpt lat="47.384220" lon="12.609424">
 <ele>1078.72</ele>
 <time>2010-04-29T11:22:35Z</time>
 </trkpt>
 <trkpt lat="47.384315" lon="12.610294">
 <ele>1078.30</ele>
 <time>2010-04-29T11:22:44Z</time>
 </trkpt>
 <trkpt lat="47.384342" lon="12.610591">
 <ele>1078.16</ele>
 <time>2010-04-29T11:22:47Z</time>
 </trkpt>
 <trkpt lat="47.384350" lon="12.610692">
 <ele>1078.24</ele>
 <time>2010-04-29T11:22:48Z</time>
 </trkpt>
 <trkpt lat="47.384357" lon="12.610793">
 <ele>1078.21</ele>
 <time>2010-04-29T11:22:49Z</time>
 </trkpt>
 <trkpt lat="47.384415" lon="12.611703">
 <ele>1076.83</ele>
 <time>2010-04-29T11:22:58Z</time>
 </trkpt>
 <trkpt lat="47.384491" lon="12.612412">
 <ele>1076.23</ele>
 <time>2010-04-29T11:23:05Z</time>
 </trkpt>
 <trkpt lat="47.384583" lon="12.612809">
 <ele>1075.07</ele>
 <time>2010-04-29T11:23:09Z</time>
 </trkpt>
 <trkpt lat="47.384819" lon="12.613429">
 <ele>1074.22</ele>
 <time>2010-04-29T11:23:16Z</time>
 </trkpt>
 <trkpt lat="47.385063" lon="12.613904">
 <ele>1073.34</ele>
 <time>2010-04-29T11:23:22Z</time>
 </trkpt>
 <trkpt lat="47.385159" lon="12.614045">
 <ele>1073.06</ele>
 <time>2010-04-29T11:23:24Z</time>
 </trkpt>
 <trkpt lat="47.385307" lon="12.614240">
 <ele>1072.83</ele>
 <time>2010-04-29T11:23:27Z</time>
 </trkpt>
 <trkpt lat="47.385468" lon="12.614415">
 <ele>1072.31</ele>
 <time>2010-04-29T11:23:30Z</time>
 </trkpt>
 <trkpt lat="47.385864" lon="12.614778">
 <ele>1071.41</ele>
 <time>2010-04-29T11:23:37Z</time>
 </trkpt>
 <trkpt lat="47.386173" lon="12.615178">
 <ele>1070.89</ele>
 <time>2010-04-29T11:23:43Z</time>
 </trkpt>
 <trkpt lat="47.386700" lon="12.616000">
 <ele>1069.98</ele>
 <time>2010-04-29T11:23:54Z</time>
 </trkpt>
 <trkpt lat="47.387150" lon="12.616781">
 <ele>1068.11</ele>
 <time>2010-04-29T11:24:04Z</time>
 </trkpt>
 <trkpt lat="47.387527" lon="12.617566">
 <ele>1068.34</ele>
 <time>2010-04-29T11:24:13Z</time>
 </trkpt>
 <trkpt lat="47.387730" lon="12.618265">
 <ele>1067.37</ele>
 <time>2010-04-29T11:24:20Z</time>
 </trkpt>
 <trkpt lat="47.387814" lon="12.618696">
 <ele>1066.32</ele>
 <time>2010-04-29T11:24:24Z</time>
 </trkpt>
 <trkpt lat="47.388000" lon="12.619762">
 <ele>1065.48</ele>
 <time>2010-04-29T11:24:34Z</time>
 </trkpt>
 <trkpt lat="47.388161" lon="12.620722">
 <ele>1064.39</ele>
 <time>2010-04-29T11:24:43Z</time>
 </trkpt>
 <trkpt lat="47.388218" lon="12.621037">
 <ele>1064.24</ele>
 <time>2010-04-29T11:24:46Z</time>
 </trkpt>
 <trkpt lat="47.388241" lon="12.621141">
 <ele>1064.29</ele>
 <time>2010-04-29T11:24:47Z</time>
 </trkpt>
 <trkpt lat="47.388309" lon="12.621447">
 <ele>1063.99</ele>
 <time>2010-04-29T11:24:50Z</time>
 </trkpt>
 <trkpt lat="47.388336" lon="12.621545">
 <ele>1063.88</ele>
 <time>2010-04-29T11:24:51Z</time>
 </trkpt>
 <trkpt lat="47.388630" lon="12.622499">
 <ele>1061.92</ele>
 <time>2010-04-29T11:25:01Z</time>
 </trkpt>
 <trkpt lat="47.388912" lon="12.623287">
 <ele>1061.40</ele>
 <time>2010-04-29T11:25:10Z</time>
 </trkpt>
 <trkpt lat="47.389095" lon="12.623684">
 <ele>1061.53</ele>
 <time>2010-04-29T11:25:15Z</time>
 </trkpt>
 <trkpt lat="47.389435" lon="12.624279">
 <ele>1062.19</ele>
 <time>2010-04-29T11:25:23Z</time>
 </trkpt>
 <trkpt lat="47.389603" lon="12.624755">
 <ele>1061.70</ele>
 <time>2010-04-29T11:25:28Z</time>
 </trkpt>
 <trkpt lat="47.389717" lon="12.625418">
 <ele>1060.14</ele>
 <time>2010-04-29T11:25:34Z</time>
 </trkpt>
 <trkpt lat="47.389896" lon="12.626149">
 <ele>1059.82</ele>
 <time>2010-04-29T11:25:41Z</time>
 </trkpt>
 <trkpt lat="47.390232" lon="12.627220">
 <ele>1058.38</ele>
 <time>2010-04-29T11:25:52Z</time>
 </trkpt>
 <trkpt lat="47.390472" lon="12.627978">
 <ele>1056.99</ele>
 <time>2010-04-29T11:25:59Z</time>
 </trkpt>
 <trkpt lat="47.390766" lon="12.629002">
 <ele>1055.06</ele>
 <time>2010-04-29T11:26:08Z</time>
 </trkpt>
 <trkpt lat="47.390785" lon="12.629119">
 <ele>1055.02</ele>
 <time>2010-04-29T11:26:09Z</time>
 </trkpt>
 <trkpt lat="47.390774" lon="12.629840">
 <ele>1054.10</ele>
 <time>2010-04-29T11:26:15Z</time>
 </trkpt>
 <trkpt lat="47.390709" lon="12.630925">
 <ele>1053.29</ele>
 <time>2010-04-29T11:26:24Z</time>
 </trkpt>
 <trkpt lat="47.390686" lon="12.631882">
 <ele>1051.39</ele>
 <time>2010-04-29T11:26:32Z</time>
 </trkpt>
 <trkpt lat="47.390690" lon="12.632229">
 <ele>1051.10</ele>
 <time>2010-04-29T11:26:35Z</time>
 </trkpt>
 <trkpt lat="47.390690" lon="12.632347">
 <ele>1051.13</ele>
 <time>2010-04-29T11:26:36Z</time>
 </trkpt>
 <trkpt lat="47.390686" lon="12.632581">
 <ele>1051.09</ele>
 <time>2010-04-29T11:26:38Z</time>
 </trkpt>
 <trkpt lat="47.390686" lon="12.632807">
 <ele>1051.09</ele>
 <time>2010-04-29T11:26:40Z</time>
 </trkpt>
 <trkpt lat="47.390675" lon="12.633029">
 <ele>1051.03</ele>
 <time>2010-04-29T11:26:42Z</time>
 </trkpt>
 <trkpt lat="47.390663" lon="12.633137">
 <ele>1051.06</ele>
 <time>2010-04-29T11:26:43Z</time>
 </trkpt>
 <trkpt lat="47.390472" lon="12.633730">
 <ele>1050.66</ele>
 <time>2010-04-29T11:26:49Z</time>
 </trkpt>
 <trkpt lat="47.390247" lon="12.634276">
 <ele>1050.60</ele>
 <time>2010-04-29T11:26:55Z</time>
 </trkpt>
 <trkpt lat="47.389942" lon="12.635023">
 <ele>1050.47</ele>
 <time>2010-04-29T11:27:03Z</time>
 </trkpt>
 <trkpt lat="47.389683" lon="12.635705">
 <ele>1049.64</ele>
 <time>2010-04-29T11:27:10Z</time>
 </trkpt>
 <trkpt lat="47.389591" lon="12.636024">
 <ele>1049.29</ele>
 <time>2010-04-29T11:27:13Z</time>
 </trkpt>
 <trkpt lat="47.389549" lon="12.636244">
 <ele>1048.81</ele>
 <time>2010-04-29T11:27:15Z</time>
 </trkpt>
 <trkpt lat="47.389526" lon="12.636352">
 <ele>1048.43</ele>
 <time>2010-04-29T11:27:16Z</time>
 </trkpt>
 <trkpt lat="47.389500" lon="12.636567">
 <ele>1047.87</ele>
 <time>2010-04-29T11:27:18Z</time>
 </trkpt>
 <trkpt lat="47.389519" lon="12.637196">
 <ele>1047.03</ele>
 <time>2010-04-29T11:27:24Z</time>
 </trkpt>
 <trkpt lat="47.389561" lon="12.637510">
 <ele>1046.31</ele>
 <time>2010-04-29T11:27:27Z</time>
 </trkpt>
 <trkpt lat="47.389591" lon="12.637718">
 <ele>1045.96</ele>
 <time>2010-04-29T11:27:29Z</time>
 </trkpt>
 <trkpt lat="47.389610" lon="12.637823">
 <ele>1045.86</ele>
 <time>2010-04-29T11:27:30Z</time>
 </trkpt>
 <trkpt lat="47.389664" lon="12.638145">
 <ele>1045.54</ele>
 <time>2010-04-29T11:27:33Z</time>
 </trkpt>
 <trkpt lat="47.389790" lon="12.639014">
 <ele>1044.72</ele>
 <time>2010-04-29T11:27:41Z</time>
 </trkpt>
 <trkpt lat="47.389744" lon="12.639454">
 <ele>1044.02</ele>
 <time>2010-04-29T11:27:45Z</time>
 </trkpt>
 <trkpt lat="47.389709" lon="12.639558">
 <ele>1043.89</ele>
 <time>2010-04-29T11:27:46Z</time>
 </trkpt>
 <trkpt lat="47.389446" lon="12.640129">
 <ele>1043.21</ele>
 <time>2010-04-29T11:27:52Z</time>
 </trkpt>
 <trkpt lat="47.389091" lon="12.640876">
 <ele>1042.55</ele>
 <time>2010-04-29T11:28:00Z</time>
 </trkpt>
 <trkpt lat="47.388874" lon="12.641618">
 <ele>1041.75</ele>
 <time>2010-04-29T11:28:07Z</time>
 </trkpt>
 <trkpt lat="47.388828" lon="12.642193">
 <ele>1041.26</ele>
 <time>2010-04-29T11:28:12Z</time>
 </trkpt>
 <trkpt lat="47.388744" lon="12.643136">
 <ele>1039.81</ele>
 <time>2010-04-29T11:28:20Z</time>
 </trkpt>
 <trkpt lat="47.388645" lon="12.644200">
 <ele>1039.15</ele>
 <time>2010-04-29T11:28:29Z</time>
 </trkpt>
 <trkpt lat="47.388523" lon="12.645362">
 <ele>1037.85</ele>
 <time>2010-04-29T11:28:39Z</time>
 </trkpt>
 <trkpt lat="47.388386" lon="12.645900">
 <ele>1037.39</ele>
 <time>2010-04-29T11:28:44Z</time>
 </trkpt>
 <trkpt lat="47.388119" lon="12.646581">
 <ele>1036.60</ele>
 <time>2010-04-29T11:28:51Z</time>
 </trkpt>
 <trkpt lat="47.387810" lon="12.647363">
 <ele>1035.57</ele>
 <time>2010-04-29T11:28:59Z</time>
 </trkpt>
 <trkpt lat="47.387405" lon="12.648509">
 <ele>1033.78</ele>
 <time>2010-04-29T11:29:10Z</time>
 </trkpt>
 <trkpt lat="47.386925" lon="12.649867">
 <ele>1032.29</ele>
 <time>2010-04-29T11:29:23Z</time>
 </trkpt>
 <trkpt lat="47.386673" lon="12.650566">
 <ele>1031.89</ele>
 <time>2010-04-29T11:29:30Z</time>
 </trkpt>
 <trkpt lat="47.386417" lon="12.651214">
 <ele>1031.21</ele>
 <time>2010-04-29T11:29:37Z</time>
 </trkpt>
 <trkpt lat="47.386158" lon="12.651933">
 <ele>1031.17</ele>
 <time>2010-04-29T11:29:45Z</time>
 </trkpt>
 <trkpt lat="47.385960" lon="12.652789">
 <ele>1029.36</ele>
 <time>2010-04-29T11:29:53Z</time>
 </trkpt>
 <trkpt lat="47.385841" lon="12.653328">
 <ele>1028.64</ele>
 <time>2010-04-29T11:29:58Z</time>
 </trkpt>
 <trkpt lat="47.385700" lon="12.654284">
 <ele>1028.34</ele>
 <time>2010-04-29T11:30:07Z</time>
 </trkpt>
 <trkpt lat="47.385696" lon="12.655067">
 <ele>1027.41</ele>
 <time>2010-04-29T11:30:14Z</time>
 </trkpt>
 <trkpt lat="47.385689" lon="12.656122">
 <ele>1025.60</ele>
 <time>2010-04-29T11:30:23Z</time>
 </trkpt>
 <trkpt lat="47.385582" lon="12.656823">
 <ele>1024.24</ele>
 <time>2010-04-29T11:30:29Z</time>
 </trkpt>
 <trkpt lat="47.385368" lon="12.657485">
 <ele>1023.50</ele>
 <time>2010-04-29T11:30:35Z</time>
 </trkpt>
 <trkpt lat="47.385025" lon="12.658158">
 <ele>1022.21</ele>
 <time>2010-04-29T11:30:42Z</time>
 </trkpt>
 <trkpt lat="47.384739" lon="12.658856">
 <ele>1021.17</ele>
 <time>2010-04-29T11:30:49Z</time>
 </trkpt>
 <trkpt lat="47.384457" lon="12.659853">
 <ele>1019.72</ele>
 <time>2010-04-29T11:30:58Z</time>
 </trkpt>
 <trkpt lat="47.384384" lon="12.660072">
 <ele>1019.02</ele>
 <time>2010-04-29T11:31:00Z</time>
 </trkpt>
 <trkpt lat="47.384346" lon="12.660180">
 <ele>1018.67</ele>
 <time>2010-04-29T11:31:01Z</time>
 </trkpt>
 <trkpt lat="47.383972" lon="12.661106">
 <ele>1017.13</ele>
 <time>2010-04-29T11:31:10Z</time>
 </trkpt>
 <trkpt lat="47.383720" lon="12.661839">
 <ele>1016.94</ele>
 <time>2010-04-29T11:31:17Z</time>
 </trkpt>
 <trkpt lat="47.383610" lon="12.662427">
 <ele>1016.39</ele>
 <time>2010-04-29T11:31:22Z</time>
 </trkpt>
 <trkpt lat="47.383560" lon="12.663290">
 <ele>1015.07</ele>
 <time>2010-04-29T11:31:29Z</time>
 </trkpt>
 <trkpt lat="47.383541" lon="12.664518">
 <ele>1013.27</ele>
 <time>2010-04-29T11:31:39Z</time>
 </trkpt>
 <trkpt lat="47.383438" lon="12.665354">
 <ele>1011.99</ele>
 <time>2010-04-29T11:31:46Z</time>
 </trkpt>
 <trkpt lat="47.383236" lon="12.666005">
 <ele>1011.13</ele>
 <time>2010-04-29T11:31:52Z</time>
 </trkpt>
 <trkpt lat="47.382950" lon="12.666577">
 <ele>1010.83</ele>
 <time>2010-04-29T11:31:58Z</time>
 </trkpt>
 <trkpt lat="47.382580" lon="12.667038">
 <ele>1010.08</ele>
 <time>2010-04-29T11:32:04Z</time>
 </trkpt>
 <trkpt lat="47.382301" lon="12.667293">
 <ele>1009.03</ele>
 <time>2010-04-29T11:32:08Z</time>
 </trkpt>
 <trkpt lat="47.382160" lon="12.667411">
 <ele>1008.53</ele>
 <time>2010-04-29T11:32:10Z</time>
 </trkpt>
 <trkpt lat="47.381943" lon="12.667585">
 <ele>1008.28</ele>
 <time>2010-04-29T11:32:13Z</time>
 </trkpt>
 <trkpt lat="47.381802" lon="12.667705">
 <ele>1007.91</ele>
 <time>2010-04-29T11:32:15Z</time>
 </trkpt>
 <trkpt lat="47.381733" lon="12.667768">
 <ele>1007.83</ele>
 <time>2010-04-29T11:32:16Z</time>
 </trkpt>
 <trkpt lat="47.381397" lon="12.668120">
 <ele>1006.37</ele>
 <time>2010-04-29T11:32:21Z</time>
 </trkpt>
 <trkpt lat="47.381271" lon="12.668284">
 <ele>1005.90</ele>
 <time>2010-04-29T11:32:23Z</time>
 </trkpt>
 <trkpt lat="47.381004" lon="12.668769">
 <ele>1004.82</ele>
 <time>2010-04-29T11:32:28Z</time>
 </trkpt>
 <trkpt lat="47.380745" lon="12.669463">
 <ele>1001.86</ele>
 <time>2010-04-29T11:32:34Z</time>
 </trkpt>
 <trkpt lat="47.380707" lon="12.669585">
 <ele>1001.58</ele>
 <time>2010-04-29T11:32:35Z</time>
 </trkpt>
 <trkpt lat="47.380466" lon="12.670536">
 <ele>999.16</ele>
 <time>2010-04-29T11:32:43Z</time>
 </trkpt>
 <trkpt lat="47.380264" lon="12.671410">
 <ele>998.14</ele>
 <time>2010-04-29T11:32:51Z</time>
 </trkpt>
 <trkpt lat="47.379993" lon="12.672548">
 <ele>996.53</ele>
 <time>2010-04-29T11:33:02Z</time>
 </trkpt>
 <trkpt lat="47.379696" lon="12.673769">
 <ele>995.44</ele>
 <time>2010-04-29T11:33:14Z</time>
 </trkpt>
 <trkpt lat="47.379475" lon="12.674806">
 <ele>994.35</ele>
 <time>2010-04-29T11:33:24Z</time>
 </trkpt>
 <trkpt lat="47.379368" lon="12.675657">
 <ele>993.27</ele>
 <time>2010-04-29T11:33:32Z</time>
 </trkpt>
 <trkpt lat="47.379276" lon="12.677162">
 <ele>991.64</ele>
 <time>2010-04-29T11:33:46Z</time>
 </trkpt>
 <trkpt lat="47.379185" lon="12.678088">
 <ele>990.38</ele>
 <time>2010-04-29T11:33:55Z</time>
 </trkpt>
 <trkpt lat="47.379131" lon="12.678396">
 <ele>990.19</ele>
 <time>2010-04-29T11:33:58Z</time>
 </trkpt>
 <trkpt lat="47.378975" lon="12.679168">
 <ele>989.47</ele>
 <time>2010-04-29T11:34:06Z</time>
 </trkpt>
 <trkpt lat="47.378773" lon="12.680030">
 <ele>988.48</ele>
 <time>2010-04-29T11:34:15Z</time>
 </trkpt>
 <trkpt lat="47.378525" lon="12.681018">
 <ele>987.64</ele>
 <time>2010-04-29T11:34:25Z</time>
 </trkpt>
 <trkpt lat="47.378277" lon="12.681604">
 <ele>986.80</ele>
 <time>2010-04-29T11:34:32Z</time>
 </trkpt>
 <trkpt lat="47.377949" lon="12.682025">
 <ele>987.56</ele>
 <time>2010-04-29T11:34:39Z</time>
 </trkpt>
 <trkpt lat="47.377563" lon="12.682339">
 <ele>988.63</ele>
 <time>2010-04-29T11:34:47Z</time>
 </trkpt>
 <trkpt lat="47.377136" lon="12.682674">
 <ele>989.59</ele>
 <time>2010-04-29T11:34:56Z</time>
 </trkpt>
 <trkpt lat="47.376831" lon="12.683058">
 <ele>989.48</ele>
 <time>2010-04-29T11:35:03Z</time>
 </trkpt>
 <trkpt lat="47.376579" lon="12.683514">
 <ele>988.56</ele>
 <time>2010-04-29T11:35:09Z</time>
 </trkpt>
 <trkpt lat="47.376293" lon="12.684072">
 <ele>986.53</ele>
 <time>2010-04-29T11:35:15Z</time>
 </trkpt>
 <trkpt lat="47.375832" lon="12.685000">
 <ele>982.77</ele>
 <time>2010-04-29T11:35:24Z</time>
 </trkpt>
 <trkpt lat="47.375397" lon="12.685997">
 <ele>979.84</ele>
 <time>2010-04-29T11:35:33Z</time>
 </trkpt>
 <trkpt lat="47.374943" lon="12.687225">
 <ele>976.82</ele>
 <time>2010-04-29T11:35:44Z</time>
 </trkpt>
 <trkpt lat="47.374710" lon="12.687860">
 <ele>975.66</ele>
 <time>2010-04-29T11:35:50Z</time>
 </trkpt>
 <trkpt lat="47.374386" lon="12.688797">
 <ele>974.50</ele>
 <time>2010-04-29T11:35:59Z</time>
 </trkpt>
 <trkpt lat="47.374203" lon="12.689440">
 <ele>973.71</ele>
 <time>2010-04-29T11:36:05Z</time>
 </trkpt>
 <trkpt lat="47.374134" lon="12.689657">
 <ele>973.55</ele>
 <time>2010-04-29T11:36:07Z</time>
 </trkpt>
 <trkpt lat="47.374100" lon="12.689766">
 <ele>973.41</ele>
 <time>2010-04-29T11:36:08Z</time>
 </trkpt>
 <trkpt lat="47.373810" lon="12.690472">
 <ele>971.66</ele>
 <time>2010-04-29T11:36:15Z</time>
 </trkpt>
 <trkpt lat="47.373608" lon="12.690819">
 <ele>971.43</ele>
 <time>2010-04-29T11:36:19Z</time>
 </trkpt>
 <trkpt lat="47.373180" lon="12.691444">
 <ele>970.33</ele>
 <time>2010-04-29T11:36:27Z</time>
 </trkpt>
 <trkpt lat="47.372765" lon="12.692057">
 <ele>970.30</ele>
 <time>2010-04-29T11:36:35Z</time>
 </trkpt>
 <trkpt lat="47.372372" lon="12.692800">
 <ele>968.81</ele>
 <time>2010-04-29T11:36:43Z</time>
 </trkpt>
 <trkpt lat="47.372265" lon="12.692983">
 <ele>968.09</ele>
 <time>2010-04-29T11:36:45Z</time>
 </trkpt>
 <trkpt lat="47.372063" lon="12.693491">
 <ele>966.24</ele>
 <time>2010-04-29T11:36:50Z</time>
 </trkpt>
 <trkpt lat="47.371632" lon="12.694441">
 <ele>964.28</ele>
 <time>2010-04-29T11:37:00Z</time>
 </trkpt>
 <trkpt lat="47.371429" lon="12.694765">
 <ele>963.34</ele>
 <time>2010-04-29T11:37:04Z</time>
 </trkpt>
 <trkpt lat="47.370945" lon="12.695409">
 <ele>962.09</ele>
 <time>2010-04-29T11:37:13Z</time>
 </trkpt>
 <trkpt lat="47.370590" lon="12.695863">
 <ele>961.57</ele>
 <time>2010-04-29T11:37:20Z</time>
 </trkpt>
 <trkpt lat="47.370068" lon="12.696566">
 <ele>960.03</ele>
 <time>2010-04-29T11:37:31Z</time>
 </trkpt>
 <trkpt lat="47.369759" lon="12.697006">
 <ele>959.88</ele>
 <time>2010-04-29T11:37:38Z</time>
 </trkpt>
 <trkpt lat="47.369343" lon="12.697716">
 <ele>958.59</ele>
 <time>2010-04-29T11:37:48Z</time>
 </trkpt>
 <trkpt lat="47.369061" lon="12.698224">
 <ele>957.54</ele>
 <time>2010-04-29T11:37:55Z</time>
 </trkpt>
 <trkpt lat="47.368855" lon="12.698821">
 <ele>957.26</ele>
 <time>2010-04-29T11:38:02Z</time>
 </trkpt>
 <trkpt lat="47.368732" lon="12.699375">
 <ele>957.01</ele>
 <time>2010-04-29T11:38:08Z</time>
 </trkpt>
 <trkpt lat="47.368683" lon="12.700031">
 <ele>956.46</ele>
 <time>2010-04-29T11:38:15Z</time>
 </trkpt>
 <trkpt lat="47.368671" lon="12.700310">
 <ele>956.02</ele>
 <time>2010-04-29T11:38:18Z</time>
 </trkpt>
 <trkpt lat="47.368591" lon="12.700533">
 <ele>956.39</ele>
 <time>2010-04-29T11:38:22Z</time>
 </trkpt>
 <trkpt lat="47.368553" lon="12.700547">
 <ele>956.51</ele>
 <time>2010-04-29T11:38:23Z</time>
 </trkpt>
 <trkpt lat="47.368385" lon="12.700717">
 <ele>955.95</ele>
 <time>2010-04-29T11:38:28Z</time>
 </trkpt>
 <trkpt lat="47.368404" lon="12.700865">
 <ele>955.85</ele>
 <time>2010-04-29T11:38:30Z</time>
 </trkpt>
 <trkpt lat="47.368530" lon="12.701448">
 <ele>954.19</ele>
 <time>2010-04-29T11:38:37Z</time>
 </trkpt>
 <trkpt lat="47.368683" lon="12.702009">
 <ele>953.28</ele>
 <time>2010-04-29T11:38:43Z</time>
 </trkpt>
 <trkpt lat="47.368843" lon="12.702621">
 <ele>952.80</ele>
 <time>2010-04-29T11:38:50Z</time>
 </trkpt>
 <trkpt lat="47.368858" lon="12.703227">
 <ele>953.01</ele>
 <time>2010-04-29T11:38:57Z</time>
 </trkpt>
 <trkpt lat="47.368786" lon="12.703686">
 <ele>952.74</ele>
 <time>2010-04-29T11:39:02Z</time>
 </trkpt>
 <trkpt lat="47.368607" lon="12.704219">
 <ele>951.72</ele>
 <time>2010-04-29T11:39:08Z</time>
 </trkpt>
 <trkpt lat="47.368572" lon="12.704304">
 <ele>951.35</ele>
 <time>2010-04-29T11:39:09Z</time>
 </trkpt>
 <trkpt lat="47.368263" lon="12.704859">
 <ele>950.10</ele>
 <time>2010-04-29T11:39:16Z</time>
 </trkpt>
 <trkpt lat="47.368141" lon="12.705093">
 <ele>949.69</ele>
 <time>2010-04-29T11:39:19Z</time>
 </trkpt>
 <trkpt lat="47.368011" lon="12.705565">
 <ele>948.90</ele>
 <time>2010-04-29T11:39:24Z</time>
 </trkpt>
 <trkpt lat="47.367897" lon="12.706015">
 <ele>948.18</ele>
 <time>2010-04-29T11:39:29Z</time>
 </trkpt>
 <trkpt lat="47.367859" lon="12.706415">
 <ele>948.43</ele>
 <time>2010-04-29T11:39:34Z</time>
 </trkpt>
 <trkpt lat="47.367847" lon="12.706509">
 <ele>947.91</ele>
 <time>2010-04-29T11:39:35Z</time>
 </trkpt>
 <trkpt lat="47.367783" lon="12.706773">
 <ele>945.51</ele>
 <time>2010-04-29T11:39:39Z</time>
 </trkpt>
 <trkpt lat="47.367847" lon="12.706870">
 <ele>946.16</ele>
 <time>2010-04-29T11:39:42Z</time>
 </trkpt>
 <trkpt lat="47.367916" lon="12.706890">
 <ele>946.34</ele>
 <time>2010-04-29T11:39:44Z</time>
 </trkpt>
 <trkpt lat="47.367928" lon="12.707038">
 <ele>945.84</ele>
 <time>2010-04-29T11:39:48Z</time>
 </trkpt>
 <trkpt lat="47.367817" lon="12.707401">
 <ele>944.81</ele>
 <time>2010-04-29T11:39:53Z</time>
 </trkpt>
 <trkpt lat="47.367607" lon="12.708114">
 <ele>942.89</ele>
 <time>2010-04-29T11:40:01Z</time>
 </trkpt>
 <trkpt lat="47.367367" lon="12.708742">
 <ele>941.69</ele>
 <time>2010-04-29T11:40:08Z</time>
 </trkpt>
 <trkpt lat="47.366993" lon="12.709241">
 <ele>940.63</ele>
 <time>2010-04-29T11:40:15Z</time>
 </trkpt>
 <trkpt lat="47.366676" lon="12.709502">
 <ele>939.45</ele>
 <time>2010-04-29T11:40:20Z</time>
 </trkpt>
 <trkpt lat="47.366501" lon="12.709831">
 <ele>938.73</ele>
 <time>2010-04-29T11:40:24Z</time>
 </trkpt>
 <trkpt lat="47.366489" lon="12.709939">
 <ele>938.65</ele>
 <time>2010-04-29T11:40:25Z</time>
 </trkpt>
 <trkpt lat="47.366474" lon="12.711183">
 <ele>936.72</ele>
 <time>2010-04-29T11:40:36Z</time>
 </trkpt>
 <trkpt lat="47.366390" lon="12.711719">
 <ele>936.63</ele>
 <time>2010-04-29T11:40:41Z</time>
 </trkpt>
 <trkpt lat="47.366161" lon="12.712514">
 <ele>935.69</ele>
 <time>2010-04-29T11:40:49Z</time>
 </trkpt>
 <trkpt lat="47.365940" lon="12.713338">
 <ele>934.70</ele>
 <time>2010-04-29T11:40:57Z</time>
 </trkpt>
 <trkpt lat="47.365726" lon="12.714377">
 <ele>933.29</ele>
 <time>2010-04-29T11:41:07Z</time>
 </trkpt>
 <trkpt lat="47.365501" lon="12.715322">
 <ele>931.48</ele>
 <time>2010-04-29T11:41:16Z</time>
 </trkpt>
 <trkpt lat="47.365414" lon="12.716001">
 <ele>930.45</ele>
 <time>2010-04-29T11:41:22Z</time>
 </trkpt>
 <trkpt lat="47.365368" lon="12.716894">
 <ele>930.09</ele>
 <time>2010-04-29T11:41:30Z</time>
 </trkpt>
 <trkpt lat="47.365379" lon="12.717867">
 <ele>928.52</ele>
 <time>2010-04-29T11:41:39Z</time>
 </trkpt>
 <trkpt lat="47.365360" lon="12.718693">
 <ele>927.23</ele>
 <time>2010-04-29T11:41:47Z</time>
 </trkpt>
 <trkpt lat="47.365402" lon="12.719108">
 <ele>926.59</ele>
 <time>2010-04-29T11:41:51Z</time>
 </trkpt>
 <trkpt lat="47.365440" lon="12.719199">
 <ele>926.40</ele>
 <time>2010-04-29T11:41:52Z</time>
 </trkpt>
 <trkpt lat="47.365734" lon="12.719829">
 <ele>926.65</ele>
 <time>2010-04-29T11:42:00Z</time>
 </trkpt>
 <trkpt lat="47.366020" lon="12.720524">
 <ele>926.12</ele>
 <time>2010-04-29T11:42:09Z</time>
 </trkpt>
 <trkpt lat="47.366344" lon="12.721148">
 <ele>925.22</ele>
 <time>2010-04-29T11:42:17Z</time>
 </trkpt>
 <trkpt lat="47.366543" lon="12.721588">
 <ele>923.84</ele>
 <time>2010-04-29T11:42:23Z</time>
 </trkpt>
 <trkpt lat="47.366592" lon="12.721706">
 <ele>923.74</ele>
 <time>2010-04-29T11:42:25Z</time>
 </trkpt>
 <trkpt lat="47.366627" lon="12.722037">
 <ele>923.06</ele>
 <time>2010-04-29T11:42:30Z</time>
 </trkpt>
 <trkpt lat="47.366642" lon="12.722608">
 <ele>921.64</ele>
 <time>2010-04-29T11:42:37Z</time>
 </trkpt>
 <trkpt lat="47.366646" lon="12.723298">
 <ele>921.38</ele>
 <time>2010-04-29T11:42:45Z</time>
 </trkpt>
 <trkpt lat="47.366547" lon="12.723820">
 <ele>920.51</ele>
 <time>2010-04-29T11:42:51Z</time>
 </trkpt>
 <trkpt lat="47.366470" lon="12.724100">
 <ele>920.14</ele>
 <time>2010-04-29T11:42:55Z</time>
 </trkpt>
 <trkpt lat="47.366364" lon="12.724557">
 <ele>919.90</ele>
 <time>2010-04-29T11:43:01Z</time>
 </trkpt>
 <trkpt lat="47.366261" lon="12.725181">
 <ele>919.60</ele>
 <time>2010-04-29T11:43:09Z</time>
 </trkpt>
 <trkpt lat="47.366222" lon="12.725701">
 <ele>919.18</ele>
 <time>2010-04-29T11:43:15Z</time>
 </trkpt>
 <trkpt lat="47.366219" lon="12.726519">
 <ele>917.68</ele>
 <time>2010-04-29T11:43:24Z</time>
 </trkpt>
 <trkpt lat="47.366238" lon="12.727343">
 <ele>917.18</ele>
 <time>2010-04-29T11:43:33Z</time>
 </trkpt>
 <trkpt lat="47.366226" lon="12.728048">
 <ele>915.73</ele>
 <time>2010-04-29T11:43:41Z</time>
 </trkpt>
 <trkpt lat="47.366226" lon="12.728365">
 <ele>915.46</ele>
 <time>2010-04-29T11:43:45Z</time>
 </trkpt>
 <trkpt lat="47.366299" lon="12.728744">
 <ele>916.32</ele>
 <time>2010-04-29T11:43:51Z</time>
 </trkpt>
 <trkpt lat="47.366287" lon="12.728980">
 <ele>916.36</ele>
 <time>2010-04-29T11:43:56Z</time>
 </trkpt>
 <trkpt lat="47.366245" lon="12.729336">
 <ele>916.12</ele>
 <time>2010-04-29T11:44:03Z</time>
 </trkpt>
 <trkpt lat="47.366180" lon="12.729792">
 <ele>914.64</ele>
 <time>2010-04-29T11:44:09Z</time>
 </trkpt>
 <trkpt lat="47.366089" lon="12.730562">
 <ele>913.22</ele>
 <time>2010-04-29T11:44:18Z</time>
 </trkpt>
 <trkpt lat="47.366028" lon="12.731325">
 <ele>912.15</ele>
 <time>2010-04-29T11:44:27Z</time>
 </trkpt>
 <trkpt lat="47.365993" lon="12.732204">
 <ele>910.85</ele>
 <time>2010-04-29T11:44:37Z</time>
 </trkpt>
 <trkpt lat="47.366024" lon="12.732949">
 <ele>910.53</ele>
 <time>2010-04-29T11:44:45Z</time>
 </trkpt>
 <trkpt lat="47.366070" lon="12.733802">
 <ele>908.49</ele>
 <time>2010-04-29T11:44:54Z</time>
 </trkpt>
 <trkpt lat="47.366047" lon="12.734612">
 <ele>908.25</ele>
 <time>2010-04-29T11:45:03Z</time>
 </trkpt>
 <trkpt lat="47.365971" lon="12.735232">
 <ele>908.89</ele>
 <time>2010-04-29T11:45:10Z</time>
 </trkpt>
 <trkpt lat="47.365879" lon="12.736106">
 <ele>908.81</ele>
 <time>2010-04-29T11:45:20Z</time>
 </trkpt>
 <trkpt lat="47.365871" lon="12.736935">
 <ele>907.87</ele>
 <time>2010-04-29T11:45:29Z</time>
 </trkpt>
 <trkpt lat="47.365932" lon="12.737812">
 <ele>906.86</ele>
 <time>2010-04-29T11:45:38Z</time>
 </trkpt>
 <trkpt lat="47.366058" lon="12.738697">
 <ele>904.11</ele>
 <time>2010-04-29T11:45:47Z</time>
 </trkpt>
 <trkpt lat="47.366199" lon="12.739603">
 <ele>902.87</ele>
 <time>2010-04-29T11:45:56Z</time>
 </trkpt>
 <trkpt lat="47.366215" lon="12.739704">
 <ele>902.62</ele>
 <time>2010-04-29T11:45:57Z</time>
 </trkpt>
 <trkpt lat="47.366230" lon="12.739805">
 <ele>902.47</ele>
 <time>2010-04-29T11:45:58Z</time>
 </trkpt>
 <trkpt lat="47.366390" lon="12.740922">
 <ele>901.33</ele>
 <time>2010-04-29T11:46:09Z</time>
 </trkpt>
 <trkpt lat="47.366489" lon="12.741936">
 <ele>900.16</ele>
 <time>2010-04-29T11:46:19Z</time>
 </trkpt>
 <trkpt lat="47.366459" lon="12.742434">
 <ele>900.05</ele>
 <time>2010-04-29T11:46:24Z</time>
 </trkpt>
 <trkpt lat="47.366337" lon="12.742987">
 <ele>899.85</ele>
 <time>2010-04-29T11:46:30Z</time>
 </trkpt>
 <trkpt lat="47.366070" lon="12.743615">
 <ele>899.65</ele>
 <time>2010-04-29T11:46:38Z</time>
 </trkpt>
 <trkpt lat="47.365742" lon="12.744426">
 <ele>899.20</ele>
 <time>2010-04-29T11:46:48Z</time>
 </trkpt>
 <trkpt lat="47.365566" lon="12.745170">
 <ele>898.21</ele>
 <time>2010-04-29T11:46:56Z</time>
 </trkpt>
 <trkpt lat="47.365448" lon="12.746000">
 <ele>896.13</ele>
 <time>2010-04-29T11:47:04Z</time>
 </trkpt>
 <trkpt lat="47.365311" lon="12.746963">
 <ele>893.95</ele>
 <time>2010-04-29T11:47:13Z</time>
 </trkpt>
 <trkpt lat="47.365093" lon="12.747902">
 <ele>892.39</ele>
 <time>2010-04-29T11:47:22Z</time>
 </trkpt>
 <trkpt lat="47.364849" lon="12.748620">
 <ele>891.48</ele>
 <time>2010-04-29T11:47:30Z</time>
 </trkpt>
 <trkpt lat="47.364670" lon="12.749164">
 <ele>891.17</ele>
 <time>2010-04-29T11:47:36Z</time>
 </trkpt>
 <trkpt lat="47.364441" lon="12.750000">
 <ele>890.27</ele>
 <time>2010-04-29T11:47:45Z</time>
 </trkpt>
 <trkpt lat="47.364277" lon="12.750979">
 <ele>888.85</ele>
 <time>2010-04-29T11:47:55Z</time>
 </trkpt>
 <trkpt lat="47.364201" lon="12.751890">
 <ele>887.51</ele>
 <time>2010-04-29T11:48:04Z</time>
 </trkpt>
 <trkpt lat="47.364128" lon="12.752877">
 <ele>886.19</ele>
 <time>2010-04-29T11:48:13Z</time>
 </trkpt>
 <trkpt lat="47.363964" lon="12.753620">
 <ele>884.97</ele>
 <time>2010-04-29T11:48:20Z</time>
 </trkpt>
 <trkpt lat="47.363930" lon="12.753715">
 <ele>884.84</ele>
 <time>2010-04-29T11:48:21Z</time>
 </trkpt>
 <trkpt lat="47.363625" lon="12.754648">
 <ele>884.25</ele>
 <time>2010-04-29T11:48:31Z</time>
 </trkpt>
 <trkpt lat="47.363529" lon="12.755286">
 <ele>883.51</ele>
 <time>2010-04-29T11:48:37Z</time>
 </trkpt>
 <trkpt lat="47.363537" lon="12.755960">
 <ele>882.29</ele>
 <time>2010-04-29T11:48:43Z</time>
 </trkpt>
 <trkpt lat="47.363647" lon="12.756641">
 <ele>880.70</ele>
 <time>2010-04-29T11:48:49Z</time>
 </trkpt>
 <trkpt lat="47.363804" lon="12.757451">
 <ele>878.98</ele>
 <time>2010-04-29T11:48:56Z</time>
 </trkpt>
 <trkpt lat="47.363834" lon="12.758126">
 <ele>878.08</ele>
 <time>2010-04-29T11:49:02Z</time>
 </trkpt>
 <trkpt lat="47.363899" lon="12.758873">
 <ele>877.85</ele>
 <time>2010-04-29T11:49:09Z</time>
 </trkpt>
 <trkpt lat="47.364067" lon="12.759474">
 <ele>876.78</ele>
 <time>2010-04-29T11:49:15Z</time>
 </trkpt>
 <trkpt lat="47.364338" lon="12.760002">
 <ele>876.22</ele>
 <time>2010-04-29T11:49:21Z</time>
 </trkpt>
 <trkpt lat="47.364761" lon="12.760697">
 <ele>874.81</ele>
 <time>2010-04-29T11:49:29Z</time>
 </trkpt>
 <trkpt lat="47.364983" lon="12.761334">
 <ele>873.53</ele>
 <time>2010-04-29T11:49:35Z</time>
 </trkpt>
 <trkpt lat="47.365086" lon="12.762016">
 <ele>872.63</ele>
 <time>2010-04-29T11:49:41Z</time>
 </trkpt>
 <trkpt lat="47.365147" lon="12.762827">
 <ele>871.80</ele>
 <time>2010-04-29T11:49:48Z</time>
 </trkpt>
 <trkpt lat="47.365234" lon="12.763941">
 <ele>870.22</ele>
 <time>2010-04-29T11:49:58Z</time>
 </trkpt>
 <trkpt lat="47.365299" lon="12.764905">
 <ele>869.65</ele>
 <time>2010-04-29T11:50:07Z</time>
 </trkpt>
 <trkpt lat="47.365273" lon="12.765759">
 <ele>868.68</ele>
 <time>2010-04-29T11:50:15Z</time>
 </trkpt>
 <trkpt lat="47.365158" lon="12.766797">
 <ele>868.49</ele>
 <time>2010-04-29T11:50:25Z</time>
 </trkpt>
 <trkpt lat="47.365170" lon="12.767537">
 <ele>866.93</ele>
 <time>2010-04-29T11:50:32Z</time>
 </trkpt>
 <trkpt lat="47.365276" lon="12.768180">
 <ele>866.06</ele>
 <time>2010-04-29T11:50:38Z</time>
 </trkpt>
 <trkpt lat="47.365494" lon="12.768914">
 <ele>863.46</ele>
 <time>2010-04-29T11:50:45Z</time>
 </trkpt>
 <trkpt lat="47.365936" lon="12.770159">
 <ele>861.12</ele>
 <time>2010-04-29T11:50:57Z</time>
 </trkpt>
 <trkpt lat="47.366173" lon="12.771013">
 <ele>859.64</ele>
 <time>2010-04-29T11:51:05Z</time>
 </trkpt>
 <trkpt lat="47.366291" lon="12.771804">
 <ele>858.86</ele>
 <time>2010-04-29T11:51:12Z</time>
 </trkpt>
 <trkpt lat="47.366287" lon="12.772496">
 <ele>857.95</ele>
 <time>2010-04-29T11:51:18Z</time>
 </trkpt>
 <trkpt lat="47.366177" lon="12.773137">
 <ele>857.75</ele>
 <time>2010-04-29T11:51:24Z</time>
 </trkpt>
 <trkpt lat="47.365963" lon="12.773695">
 <ele>857.89</ele>
 <time>2010-04-29T11:51:30Z</time>
 </trkpt>
 <trkpt lat="47.365623" lon="12.774478">
 <ele>857.42</ele>
 <time>2010-04-29T11:51:39Z</time>
 </trkpt>
 <trkpt lat="47.365475" lon="12.775084">
 <ele>856.33</ele>
 <time>2010-04-29T11:51:45Z</time>
 </trkpt>
 <trkpt lat="47.365406" lon="12.775879">
 <ele>854.70</ele>
 <time>2010-04-29T11:51:52Z</time>
 </trkpt>
 <trkpt lat="47.365292" lon="12.776990">
 <ele>852.98</ele>
 <time>2010-04-29T11:52:02Z</time>
 </trkpt>
 <trkpt lat="47.365120" lon="12.777730">
 <ele>852.19</ele>
 <time>2010-04-29T11:52:09Z</time>
 </trkpt>
 <trkpt lat="47.364807" lon="12.778825">
 <ele>850.49</ele>
 <time>2010-04-29T11:52:20Z</time>
 </trkpt>
 <trkpt lat="47.364651" lon="12.779724">
 <ele>850.74</ele>
 <time>2010-04-29T11:52:29Z</time>
 </trkpt>
 <trkpt lat="47.364643" lon="12.780423">
 <ele>849.50</ele>
 <time>2010-04-29T11:52:36Z</time>
 </trkpt>
 <trkpt lat="47.364735" lon="12.781103">
 <ele>849.61</ele>
 <time>2010-04-29T11:52:43Z</time>
 </trkpt>
 <trkpt lat="47.364834" lon="12.781881">
 <ele>848.78</ele>
 <time>2010-04-29T11:52:51Z</time>
 </trkpt>
 <trkpt lat="47.364815" lon="12.782529">
 <ele>848.33</ele>
 <time>2010-04-29T11:52:58Z</time>
 </trkpt>
 <trkpt lat="47.364689" lon="12.783131">
 <ele>848.06</ele>
 <time>2010-04-29T11:53:05Z</time>
 </trkpt>
 <trkpt lat="47.364426" lon="12.783990">
 <ele>846.20</ele>
 <time>2010-04-29T11:53:15Z</time>
 </trkpt>
 <trkpt lat="47.364162" lon="12.784829">
 <ele>844.66</ele>
 <time>2010-04-29T11:53:25Z</time>
 </trkpt>
 <trkpt lat="47.363911" lon="12.785774">
 <ele>843.70</ele>
 <time>2010-04-29T11:53:36Z</time>
 </trkpt>
 <trkpt lat="47.363712" lon="12.786808">
 <ele>842.53</ele>
 <time>2010-04-29T11:53:47Z</time>
 </trkpt>
 <trkpt lat="47.363590" lon="12.787784">
 <ele>841.68</ele>
 <time>2010-04-29T11:53:57Z</time>
 </trkpt>
 <trkpt lat="47.363503" lon="12.788818">
 <ele>840.72</ele>
 <time>2010-04-29T11:54:07Z</time>
 </trkpt>
 <trkpt lat="47.363407" lon="12.789878">
 <ele>838.93</ele>
 <time>2010-04-29T11:54:17Z</time>
 </trkpt>
 <trkpt lat="47.363297" lon="12.791044">
 <ele>837.79</ele>
 <time>2010-04-29T11:54:28Z</time>
 </trkpt>
 <trkpt lat="47.363144" lon="12.792078">
 <ele>836.55</ele>
 <time>2010-04-29T11:54:38Z</time>
 </trkpt>
 <trkpt lat="47.362923" lon="12.793042">
 <ele>835.36</ele>
 <time>2010-04-29T11:54:48Z</time>
 </trkpt>
 <trkpt lat="47.362591" lon="12.793916">
 <ele>833.80</ele>
 <time>2010-04-29T11:54:58Z</time>
 </trkpt>
 <trkpt lat="47.362206" lon="12.794607">
 <ele>832.98</ele>
 <time>2010-04-29T11:55:07Z</time>
 </trkpt>
 <trkpt lat="47.361813" lon="12.795130">
 <ele>832.47</ele>
 <time>2010-04-29T11:55:15Z</time>
 </trkpt>
 <trkpt lat="47.361359" lon="12.795714">
 <ele>832.08</ele>
 <time>2010-04-29T11:55:24Z</time>
 </trkpt>
 <trkpt lat="47.360981" lon="12.796331">
 <ele>831.47</ele>
 <time>2010-04-29T11:55:32Z</time>
 </trkpt>
 <trkpt lat="47.360767" lon="12.796879">
 <ele>830.51</ele>
 <time>2010-04-29T11:55:38Z</time>
 </trkpt>
 <trkpt lat="47.360641" lon="12.797325">
 <ele>830.09</ele>
 <time>2010-04-29T11:55:43Z</time>
 </trkpt>
 <trkpt lat="47.360523" lon="12.797515">
 <ele>830.55</ele>
 <time>2010-04-29T11:55:48Z</time>
 </trkpt>
 <trkpt lat="47.360493" lon="12.797544">
 <ele>830.86</ele>
 <time>2010-04-29T11:55:52Z</time>
 </trkpt>
 <trkpt lat="47.360535" lon="12.797495">
 <ele>830.23</ele>
 <time>2010-04-29T11:56:11Z</time>
 </trkpt>
 <trkpt lat="47.360546" lon="12.797616">
 <ele>829.91</ele>
 <time>2010-04-29T11:56:14Z</time>
 </trkpt>
 <trkpt lat="47.360542" lon="12.797661">
 <ele>829.80</ele>
 <time>2010-04-29T11:56:15Z</time>
 </trkpt>
 <trkpt lat="47.360535" lon="12.797833">
 <ele>829.81</ele>
 <time>2010-04-29T11:56:19Z</time>
 </trkpt>
 <trkpt lat="47.360462" lon="12.798268">
 <ele>828.99</ele>
 <time>2010-04-29T11:56:25Z</time>
 </trkpt>
 <trkpt lat="47.360374" lon="12.798966">
 <ele>827.85</ele>
 <time>2010-04-29T11:56:33Z</time>
 </trkpt>
 <trkpt lat="47.360332" lon="12.799799">
 <ele>825.52</ele>
 <time>2010-04-29T11:56:41Z</time>
 </trkpt>
 <trkpt lat="47.360332" lon="12.800246">
 <ele>824.76</ele>
 <time>2010-04-29T11:56:45Z</time>
 </trkpt>
 <trkpt lat="47.360325" lon="12.800862">
 <ele>825.18</ele>
 <time>2010-04-29T11:56:51Z</time>
 </trkpt>
 <trkpt lat="47.360313" lon="12.801430">
 <ele>826.27</ele>
 <time>2010-04-29T11:56:58Z</time>
 </trkpt>
 <trkpt lat="47.360321" lon="12.801743">
 <ele>826.70</ele>
 <time>2010-04-29T11:57:02Z</time>
 </trkpt>
 <trkpt lat="47.360279" lon="12.802061">
 <ele>826.61</ele>
 <time>2010-04-29T11:57:07Z</time>
 </trkpt>
 <trkpt lat="47.360291" lon="12.802335">
 <ele>826.39</ele>
 <time>2010-04-29T11:57:11Z</time>
 </trkpt>
 <trkpt lat="47.360382" lon="12.802848">
 <ele>825.98</ele>
 <time>2010-04-29T11:57:18Z</time>
 </trkpt>
 <trkpt lat="47.360466" lon="12.803069">
 <ele>825.77</ele>
 <time>2010-04-29T11:57:22Z</time>
 </trkpt>
 <trkpt lat="47.360489" lon="12.803200">
 <ele>825.82</ele>
 <time>2010-04-29T11:57:24Z</time>
 </trkpt>
 <trkpt lat="47.360619" lon="12.803875">
 <ele>824.69</ele>
 <time>2010-04-29T11:57:33Z</time>
 </trkpt>
 <trkpt lat="47.360741" lon="12.804496">
 <ele>824.32</ele>
 <time>2010-04-29T11:57:41Z</time>
 </trkpt>
 <trkpt lat="47.360912" lon="12.805159">
 <ele>823.91</ele>
 <time>2010-04-29T11:57:50Z</time>
 </trkpt>
 <trkpt lat="47.361050" lon="12.805646">
 <ele>823.77</ele>
 <time>2010-04-29T11:57:57Z</time>
 </trkpt>
 <trkpt lat="47.361095" lon="12.805954">
 <ele>823.02</ele>
 <time>2010-04-29T11:58:01Z</time>
 </trkpt>
 <trkpt lat="47.361107" lon="12.806193">
 <ele>822.67</ele>
 <time>2010-04-29T11:58:04Z</time>
 </trkpt>
 <trkpt lat="47.361034" lon="12.806905">
 <ele>822.19</ele>
 <time>2010-04-29T11:58:13Z</time>
 </trkpt>
 <trkpt lat="47.360943" lon="12.807300">
 <ele>822.30</ele>
 <time>2010-04-29T11:58:19Z</time>
 </trkpt>
 <trkpt lat="47.360825" lon="12.807631">
 <ele>821.98</ele>
 <time>2010-04-29T11:58:25Z</time>
 </trkpt>
 <trkpt lat="47.360744" lon="12.807916">
 <ele>822.22</ele>
 <time>2010-04-29T11:58:31Z</time>
 </trkpt>
 <trkpt lat="47.360794" lon="12.808015">
 <ele>822.53</ele>
 <time>2010-04-29T11:58:36Z</time>
 </trkpt>
 <trkpt lat="47.360794" lon="12.808014">
 <ele>822.61</ele>
 <time>2010-04-29T11:58:37Z</time>
 </trkpt>
 <trkpt lat="47.360783" lon="12.808045">
 <ele>822.20</ele>
 <time>2010-04-29T11:58:45Z</time>
 </trkpt>
 <trkpt lat="47.360695" lon="12.808066">
 <ele>822.37</ele>
 <time>2010-04-29T11:58:51Z</time>
 </trkpt>
 <trkpt lat="47.360634" lon="12.808194">
 <ele>822.12</ele>
 <time>2010-04-29T11:58:54Z</time>
 </trkpt>
 <trkpt lat="47.360619" lon="12.808251">
 <ele>821.99</ele>
 <time>2010-04-29T11:58:55Z</time>
 </trkpt>
 <trkpt lat="47.360516" lon="12.808509">
 <ele>821.67</ele>
 <time>2010-04-29T11:59:00Z</time>
 </trkpt>
 <trkpt lat="47.360409" lon="12.808708">
 <ele>821.49</ele>
 <time>2010-04-29T11:59:04Z</time>
 </trkpt>
 <trkpt lat="47.360291" lon="12.808964">
 <ele>821.36</ele>
 <time>2010-04-29T11:59:10Z</time>
 </trkpt>
 <trkpt lat="47.360302" lon="12.809117">
 <ele>821.58</ele>
 <time>2010-04-29T11:59:15Z</time>
 </trkpt>
 <trkpt lat="47.360352" lon="12.809387">
 <ele>821.11</ele>
 <time>2010-04-29T11:59:20Z</time>
 </trkpt>
 <trkpt lat="47.360359" lon="12.809516">
 <ele>821.00</ele>
 <time>2010-04-29T11:59:22Z</time>
 </trkpt>
 <trkpt lat="47.360416" lon="12.810053">
 <ele>820.44</ele>
 <time>2010-04-29T11:59:30Z</time>
 </trkpt>
 <trkpt lat="47.360439" lon="12.810582">
 <ele>820.12</ele>
 <time>2010-04-29T11:59:39Z</time>
 </trkpt>
 <trkpt lat="47.360447" lon="12.810875">
 <ele>819.99</ele>
 <time>2010-04-29T11:59:44Z</time>
 </trkpt>
 <trkpt lat="47.360500" lon="12.811209">
 <ele>818.57</ele>
 <time>2010-04-29T11:59:49Z</time>
 </trkpt>
 <trkpt lat="47.360516" lon="12.811345">
 <ele>817.47</ele>
 <time>2010-04-29T11:59:51Z</time>
 </trkpt>
 <trkpt lat="47.360512" lon="12.811590">
 <ele>816.81</ele>
 <time>2010-04-29T11:59:54Z</time>
 </trkpt>
 <trkpt lat="47.360504" lon="12.811659">
 <ele>816.79</ele>
 <time>2010-04-29T11:59:58Z</time>
 </trkpt>
 <trkpt lat="47.360531" lon="12.811714">
 <ele>817.10</ele>
 <time>2010-04-29T12:00:00Z</time>
 </trkpt>
 <trkpt lat="47.360535" lon="12.811991">
 <ele>818.57</ele>
 <time>2010-04-29T12:00:06Z</time>
 </trkpt>
 <trkpt lat="47.360508" lon="12.812434">
 <ele>818.09</ele>
 <time>2010-04-29T12:00:13Z</time>
 </trkpt>
 <trkpt lat="47.360481" lon="12.812955">
 <ele>817.75</ele>
 <time>2010-04-29T12:00:20Z</time>
 </trkpt>
 <trkpt lat="47.360439" lon="12.813509">
 <ele>817.27</ele>
 <time>2010-04-29T12:00:28Z</time>
 </trkpt>
 <trkpt lat="47.360405" lon="12.813949">
 <ele>816.82</ele>
 <time>2010-04-29T12:00:35Z</time>
 </trkpt>
 <trkpt lat="47.360416" lon="12.814198">
 <ele>816.84</ele>
 <time>2010-04-29T12:00:39Z</time>
 </trkpt>
 <trkpt lat="47.360561" lon="12.814805">
 <ele>816.12</ele>
 <time>2010-04-29T12:00:48Z</time>
 </trkpt>
 <trkpt lat="47.360703" lon="12.815453">
 <ele>815.78</ele>
 <time>2010-04-29T12:00:57Z</time>
 </trkpt>
 <trkpt lat="47.360729" lon="12.815985">
 <ele>815.36</ele>
 <time>2010-04-29T12:01:04Z</time>
 </trkpt>
 <trkpt lat="47.360722" lon="12.816746">
 <ele>815.39</ele>
 <time>2010-04-29T12:01:14Z</time>
 </trkpt>
 <trkpt lat="47.360672" lon="12.817446">
 <ele>814.92</ele>
 <time>2010-04-29T12:01:23Z</time>
 </trkpt>
 <trkpt lat="47.360672" lon="12.818050">
 <ele>814.74</ele>
 <time>2010-04-29T12:01:31Z</time>
 </trkpt>
 <trkpt lat="47.360626" lon="12.818459">
 <ele>814.60</ele>
 <time>2010-04-29T12:01:37Z</time>
 </trkpt>
 <trkpt lat="47.360527" lon="12.818647">
 <ele>815.08</ele>
 <time>2010-04-29T12:01:41Z</time>
 </trkpt>
 <trkpt lat="47.360374" lon="12.818701">
 <ele>816.66</ele>
 <time>2010-04-29T12:01:45Z</time>
 </trkpt>
 <trkpt lat="47.360207" lon="12.818702">
 <ele>817.08</ele>
 <time>2010-04-29T12:01:49Z</time>
 </trkpt>
 <trkpt lat="47.360035" lon="12.818780">
 <ele>817.00</ele>
 <time>2010-04-29T12:01:53Z</time>
 </trkpt>
 <trkpt lat="47.359821" lon="12.818952">
 <ele>817.01</ele>
 <time>2010-04-29T12:02:00Z</time>
 </trkpt>
 <trkpt lat="47.359772" lon="12.818998">
 <ele>816.31</ele>
 <time>2010-04-29T12:02:05Z</time>
 </trkpt>
 <trkpt lat="47.359749" lon="12.819032">
 <ele>816.03</ele>
 <time>2010-04-29T12:02:13Z</time>
 </trkpt>
 <trkpt lat="47.359634" lon="12.819004">
 <ele>816.20</ele>
 <time>2010-04-29T12:02:18Z</time>
 </trkpt>
 <trkpt lat="47.359375" lon="12.819041">
 <ele>815.27</ele>
 <time>2010-04-29T12:02:25Z</time>
 </trkpt>
 <trkpt lat="47.359043" lon="12.819057">
 <ele>815.09</ele>
 <time>2010-04-29T12:02:33Z</time>
 </trkpt>
 <trkpt lat="47.358685" lon="12.818931">
 <ele>815.57</ele>
 <time>2010-04-29T12:02:42Z</time>
 </trkpt>
 <trkpt lat="47.358437" lon="12.818695">
 <ele>815.99</ele>
 <time>2010-04-29T12:02:49Z</time>
 </trkpt>
 <trkpt lat="47.358109" lon="12.818377">
 <ele>817.53</ele>
 <time>2010-04-29T12:02:59Z</time>
 </trkpt>
 <trkpt lat="47.357758" lon="12.818130">
 <ele>818.93</ele>
 <time>2010-04-29T12:03:09Z</time>
 </trkpt>
 <trkpt lat="47.357449" lon="12.818014">
 <ele>820.68</ele>
 <time>2010-04-29T12:03:18Z</time>
 </trkpt>
 <trkpt lat="47.357204" lon="12.817997">
 <ele>823.28</ele>
 <time>2010-04-29T12:03:26Z</time>
 </trkpt>
 <trkpt lat="47.357006" lon="12.818036">
 <ele>825.20</ele>
 <time>2010-04-29T12:03:33Z</time>
 </trkpt>
 <trkpt lat="47.356682" lon="12.818170">
 <ele>827.15</ele>
 <time>2010-04-29T12:03:45Z</time>
 </trkpt>
 <trkpt lat="47.356441" lon="12.818358">
 <ele>827.98</ele>
 <time>2010-04-29T12:03:54Z</time>
 </trkpt>
 <trkpt lat="47.356407" lon="12.818381">
 <ele>827.76</ele>
 <time>2010-04-29T12:03:55Z</time>
 </trkpt>
 <trkpt lat="47.356209" lon="12.818389">
 <ele>826.22</ele>
 <time>2010-04-29T12:03:59Z</time>
 </trkpt>
 <trkpt lat="47.355919" lon="12.818287">
 <ele>825.05</ele>
 <time>2010-04-29T12:04:04Z</time>
 </trkpt>
 <trkpt lat="47.355499" lon="12.818004">
 <ele>824.29</ele>
 <time>2010-04-29T12:04:12Z</time>
 </trkpt>
 <trkpt lat="47.355293" lon="12.817911">
 <ele>824.86</ele>
 <time>2010-04-29T12:04:17Z</time>
 </trkpt>
 <trkpt lat="47.355034" lon="12.817910">
 <ele>822.78</ele>
 <time>2010-04-29T12:04:22Z</time>
 </trkpt>
 <trkpt lat="47.354939" lon="12.817879">
 <ele>821.89</ele>
 <time>2010-04-29T12:04:24Z</time>
 </trkpt>
 <trkpt lat="47.354832" lon="12.817783">
 <ele>821.52</ele>
 <time>2010-04-29T12:04:27Z</time>
 </trkpt>
 <trkpt lat="47.354614" lon="12.817471">
 <ele>820.81</ele>
 <time>2010-04-29T12:04:34Z</time>
 </trkpt>
 <trkpt lat="47.354450" lon="12.817279">
 <ele>821.93</ele>
 <time>2010-04-29T12:04:40Z</time>
 </trkpt>
 <trkpt lat="47.354343" lon="12.817084">
 <ele>821.55</ele>
 <time>2010-04-29T12:04:45Z</time>
 </trkpt>
 <trkpt lat="47.354332" lon="12.817055">
 <ele>821.66</ele>
 <time>2010-04-29T12:04:48Z</time>
 </trkpt>
 <trkpt lat="47.354305" lon="12.816875">
 <ele>821.17</ele>
 <time>2010-04-29T12:04:54Z</time>
 </trkpt>
 <trkpt lat="47.354225" lon="12.816652">
 <ele>820.70</ele>
 <time>2010-04-29T12:04:59Z</time>
 </trkpt>
 <trkpt lat="47.354183" lon="12.816491">
 <ele>820.41</ele>
 <time>2010-04-29T12:05:02Z</time>
 </trkpt>
 <trkpt lat="47.354137" lon="12.816286">
 <ele>819.55</ele>
 <time>2010-04-29T12:05:05Z</time>
 </trkpt>
 <trkpt lat="47.354095" lon="12.815861">
 <ele>817.91</ele>
 <time>2010-04-29T12:05:10Z</time>
 </trkpt>
 <trkpt lat="47.354088" lon="12.815182">
 <ele>816.02</ele>
 <time>2010-04-29T12:05:17Z</time>
 </trkpt>
 <trkpt lat="47.354076" lon="12.814467">
 <ele>815.85</ele>
 <time>2010-04-29T12:05:25Z</time>
 </trkpt>
 <trkpt lat="47.354080" lon="12.813820">
 <ele>815.70</ele>
 <time>2010-04-29T12:05:33Z</time>
 </trkpt>
 <trkpt lat="47.354084" lon="12.813593">
 <ele>815.98</ele>
 <time>2010-04-29T12:05:37Z</time>
 </trkpt>
 <trkpt lat="47.354092" lon="12.813566">
 <ele>816.19</ele>
 <time>2010-04-29T12:05:40Z</time>
 </trkpt>
 <trkpt lat="47.353996" lon="12.813500">
 <ele>815.56</ele>
 <time>2010-04-29T12:05:48Z</time>
 </trkpt>
 <trkpt lat="47.353794" lon="12.813518">
 <ele>815.51</ele>
 <time>2010-04-29T12:05:54Z</time>
 </trkpt>
 <trkpt lat="47.353626" lon="12.813516">
 <ele>815.47</ele>
 <time>2010-04-29T12:05:58Z</time>
 </trkpt>
 <trkpt lat="47.353447" lon="12.813565">
 <ele>815.52</ele>
 <time>2010-04-29T12:06:02Z</time>
 </trkpt>
 <trkpt lat="47.353100" lon="12.813794">
 <ele>815.77</ele>
 <time>2010-04-29T12:06:10Z</time>
 </trkpt>
 <trkpt lat="47.352722" lon="12.814109">
 <ele>816.57</ele>
 <time>2010-04-29T12:06:19Z</time>
 </trkpt>
 <trkpt lat="47.352371" lon="12.814329">
 <ele>817.19</ele>
 <time>2010-04-29T12:06:27Z</time>
 </trkpt>
 <trkpt lat="47.352024" lon="12.814492">
 <ele>818.45</ele>
 <time>2010-04-29T12:06:35Z</time>
 </trkpt>
 <trkpt lat="47.351982" lon="12.814508">
 <ele>818.60</ele>
 <time>2010-04-29T12:06:36Z</time>
 </trkpt>
 <trkpt lat="47.351658" lon="12.814574">
 <ele>818.94</ele>
 <time>2010-04-29T12:06:43Z</time>
 </trkpt>
 <trkpt lat="47.351295" lon="12.814636">
 <ele>818.09</ele>
 <time>2010-04-29T12:06:49Z</time>
 </trkpt>
 <trkpt lat="47.350842" lon="12.814750">
 <ele>817.04</ele>
 <time>2010-04-29T12:06:56Z</time>
 </trkpt>
 <trkpt lat="47.350391" lon="12.814875">
 <ele>814.75</ele>
 <time>2010-04-29T12:07:02Z</time>
 </trkpt>
 <trkpt lat="47.350105" lon="12.814968">
 <ele>813.91</ele>
 <time>2010-04-29T12:07:06Z</time>
 </trkpt>
 <trkpt lat="47.349533" lon="12.815132">
 <ele>813.27</ele>
 <time>2010-04-29T12:07:14Z</time>
 </trkpt>
 <trkpt lat="47.349422" lon="12.815166">
 <ele>814.38</ele>
 <time>2010-04-29T12:07:17Z</time>
 </trkpt>
 <trkpt lat="47.349396" lon="12.815157">
 <ele>815.22</ele>
 <time>2010-04-29T12:07:20Z</time>
 </trkpt>
 <trkpt lat="47.349312" lon="12.815242">
 <ele>814.48</ele>
 <time>2010-04-29T12:07:32Z</time>
 </trkpt>
 <trkpt lat="47.349094" lon="12.815424">
 <ele>813.31</ele>
 <time>2010-04-29T12:07:37Z</time>
 </trkpt>
 <trkpt lat="47.348660" lon="12.815752">
 <ele>812.70</ele>
 <time>2010-04-29T12:07:45Z</time>
 </trkpt>
 <trkpt lat="47.348343" lon="12.816056">
 <ele>812.73</ele>
 <time>2010-04-29T12:07:51Z</time>
 </trkpt>
 <trkpt lat="47.348042" lon="12.816193">
 <ele>812.78</ele>
 <time>2010-04-29T12:07:56Z</time>
 </trkpt>
 <trkpt lat="47.347553" lon="12.816066">
 <ele>813.33</ele>
 <time>2010-04-29T12:08:04Z</time>
 </trkpt>
 <trkpt lat="47.346970" lon="12.815884">
 <ele>812.55</ele>
 <time>2010-04-29T12:08:13Z</time>
 </trkpt>
 <trkpt lat="47.346245" lon="12.815661">
 <ele>811.92</ele>
 <time>2010-04-29T12:08:24Z</time>
 </trkpt>
 <trkpt lat="47.345776" lon="12.815671">
 <ele>811.56</ele>
 <time>2010-04-29T12:08:31Z</time>
 </trkpt>
 <trkpt lat="47.345573" lon="12.815702">
 <ele>811.45</ele>
 <time>2010-04-29T12:08:34Z</time>
 </trkpt>
 <trkpt lat="47.345322" lon="12.815834">
 <ele>811.04</ele>
 <time>2010-04-29T12:08:38Z</time>
 </trkpt>
 <trkpt lat="47.344894" lon="12.816087">
 <ele>811.01</ele>
 <time>2010-04-29T12:08:45Z</time>
 </trkpt>
 <trkpt lat="47.344574" lon="12.816110">
 <ele>811.27</ele>
 <time>2010-04-29T12:08:50Z</time>
 </trkpt>
 <trkpt lat="47.344509" lon="12.816095">
 <ele>811.24</ele>
 <time>2010-04-29T12:08:51Z</time>
 </trkpt>
 <trkpt lat="47.344063" lon="12.816073">
 <ele>811.43</ele>
 <time>2010-04-29T12:08:58Z</time>
 </trkpt>
 <trkpt lat="47.343647" lon="12.815995">
 <ele>810.66</ele>
 <time>2010-04-29T12:09:04Z</time>
 </trkpt>
 <trkpt lat="47.343277" lon="12.815966">
 <ele>809.57</ele>
 <time>2010-04-29T12:09:09Z</time>
 </trkpt>
 <trkpt lat="47.342464" lon="12.815897">
 <ele>809.06</ele>
 <time>2010-04-29T12:09:20Z</time>
 </trkpt>
 <trkpt lat="47.342056" lon="12.815793">
 <ele>809.21</ele>
 <time>2010-04-29T12:09:26Z</time>
 </trkpt>
 <trkpt lat="47.341461" lon="12.815620">
 <ele>809.55</ele>
 <time>2010-04-29T12:09:35Z</time>
 </trkpt>
 <trkpt lat="47.341175" lon="12.815683">
 <ele>810.51</ele>
 <time>2010-04-29T12:09:40Z</time>
 </trkpt>
 <trkpt lat="47.340839" lon="12.815889">
 <ele>811.36</ele>
 <time>2010-04-29T12:09:47Z</time>
 </trkpt>
 <trkpt lat="47.340660" lon="12.816009">
 <ele>811.85</ele>
 <time>2010-04-29T12:09:51Z</time>
 </trkpt>
 <trkpt lat="47.340382" lon="12.816221">
 <ele>813.26</ele>
 <time>2010-04-29T12:09:58Z</time>
 </trkpt>
 <trkpt lat="47.340221" lon="12.816325">
 <ele>812.41</ele>
 <time>2010-04-29T12:10:01Z</time>
 </trkpt>
 <trkpt lat="47.339966" lon="12.816402">
 <ele>810.84</ele>
 <time>2010-04-29T12:10:05Z</time>
 </trkpt>
 <trkpt lat="47.339703" lon="12.816332">
 <ele>809.86</ele>
 <time>2010-04-29T12:10:09Z</time>
 </trkpt>
 <trkpt lat="47.339645" lon="12.816279">
 <ele>809.63</ele>
 <time>2010-04-29T12:10:10Z</time>
 </trkpt>
 <trkpt lat="47.339291" lon="12.816053">
 <ele>809.30</ele>
 <time>2010-04-29T12:10:16Z</time>
 </trkpt>
 <trkpt lat="47.339233" lon="12.816048">
 <ele>809.38</ele>
 <time>2010-04-29T12:10:17Z</time>
 </trkpt>
 <trkpt lat="47.338676" lon="12.816000">
 <ele>809.50</ele>
 <time>2010-04-29T12:10:27Z</time>
 </trkpt>
 <trkpt lat="47.338318" lon="12.815955">
 <ele>809.80</ele>
 <time>2010-04-29T12:10:34Z</time>
 </trkpt>
 <trkpt lat="47.338188" lon="12.815862">
 <ele>809.93</ele>
 <time>2010-04-29T12:10:38Z</time>
 </trkpt>
 <trkpt lat="47.338062" lon="12.815490">
 <ele>808.59</ele>
 <time>2010-04-29T12:10:44Z</time>
 </trkpt>
 <trkpt lat="47.337982" lon="12.815270">
 <ele>806.83</ele>
 <time>2010-04-29T12:10:49Z</time>
 </trkpt>
 <trkpt lat="47.337902" lon="12.815014">
 <ele>805.96</ele>
 <time>2010-04-29T12:10:54Z</time>
 </trkpt>
 <trkpt lat="47.337875" lon="12.814726">
 <ele>805.64</ele>
 <time>2010-04-29T12:10:59Z</time>
 </trkpt>
 <trkpt lat="47.338028" lon="12.814393">
 <ele>805.17</ele>
 <time>2010-04-29T12:11:05Z</time>
 </trkpt>
 <trkpt lat="47.338333" lon="12.813789">
 <ele>805.12</ele>
 <time>2010-04-29T12:11:15Z</time>
 </trkpt>
 <trkpt lat="47.338638" lon="12.813181">
 <ele>805.24</ele>
 <time>2010-04-29T12:11:25Z</time>
 </trkpt>
 <trkpt lat="47.338757" lon="12.812892">
 <ele>805.34</ele>
 <time>2010-04-29T12:11:30Z</time>
 </trkpt>
 <trkpt lat="47.338692" lon="12.812720">
 <ele>805.17</ele>
 <time>2010-04-29T12:11:34Z</time>
 </trkpt>
 <trkpt lat="47.338619" lon="12.812638">
 <ele>804.96</ele>
 <time>2010-04-29T12:11:36Z</time>
 </trkpt>
 <trkpt lat="47.338543" lon="12.812551">
 <ele>804.61</ele>
 <time>2010-04-29T12:11:38Z</time>
 </trkpt>
 <trkpt lat="47.338509" lon="12.812348">
 <ele>804.32</ele>
 <time>2010-04-29T12:11:42Z</time>
 </trkpt>
 <trkpt lat="47.338699" lon="12.811987">
 <ele>804.05</ele>
 <time>2010-04-29T12:11:49Z</time>
 </trkpt>
 <trkpt lat="47.338825" lon="12.811693">
 <ele>803.88</ele>
 <time>2010-04-29T12:11:54Z</time>
 </trkpt>
 <trkpt lat="47.338993" lon="12.811371">
 <ele>804.56</ele>
 <time>2010-04-29T12:12:01Z</time>
 </trkpt>
 <trkpt lat="47.339035" lon="12.811086">
 <ele>804.51</ele>
 <time>2010-04-29T12:12:06Z</time>
 </trkpt>
 <trkpt lat="47.339073" lon="12.810613">
 <ele>803.99</ele>
 <time>2010-04-29T12:12:13Z</time>
 </trkpt>
 <trkpt lat="47.339073" lon="12.810339">
 <ele>803.91</ele>
 <time>2010-04-29T12:12:17Z</time>
 </trkpt>
 <trkpt lat="47.339153" lon="12.809814">
 <ele>804.17</ele>
 <time>2010-04-29T12:12:25Z</time>
 </trkpt>
 <trkpt lat="47.339153" lon="12.809356">
 <ele>804.95</ele>
 <time>2010-04-29T12:12:33Z</time>
 </trkpt>
 <trkpt lat="47.339169" lon="12.809176">
 <ele>804.98</ele>
 <time>2010-04-29T12:12:37Z</time>
 </trkpt>
 <trkpt lat="47.339256" lon="12.808800">
 <ele>804.45</ele>
 <time>2010-04-29T12:12:43Z</time>
 </trkpt>
 <trkpt lat="47.339348" lon="12.808230">
 <ele>804.19</ele>
 <time>2010-04-29T12:12:51Z</time>
 </trkpt>
 <trkpt lat="47.339378" lon="12.807712">
 <ele>804.34</ele>
 <time>2010-04-29T12:12:58Z</time>
 </trkpt>
 <trkpt lat="47.339394" lon="12.807488">
 <ele>804.36</ele>
 <time>2010-04-29T12:13:01Z</time>
 </trkpt>
 <trkpt lat="47.339489" lon="12.807174">
 <ele>804.30</ele>
 <time>2010-04-29T12:13:06Z</time>
 </trkpt>
 <trkpt lat="47.339607" lon="12.807117">
 <ele>804.40</ele>
 <time>2010-04-29T12:13:09Z</time>
 </trkpt>
 <trkpt lat="47.339695" lon="12.807113">
 <ele>804.28</ele>
 <time>2010-04-29T12:13:11Z</time>
 </trkpt>
 <trkpt lat="47.339790" lon="12.806960">
 <ele>804.23</ele>
 <time>2010-04-29T12:13:15Z</time>
 </trkpt>
 <trkpt lat="47.339794" lon="12.806838">
 <ele>804.24</ele>
 <time>2010-04-29T12:13:17Z</time>
 </trkpt>
 <trkpt lat="47.339817" lon="12.806268">
 <ele>804.30</ele>
 <time>2010-04-29T12:13:25Z</time>
 </trkpt>
 <trkpt lat="47.339798" lon="12.805576">
 <ele>804.00</ele>
 <time>2010-04-29T12:13:34Z</time>
 </trkpt>
 <trkpt lat="47.339714" lon="12.804972">
 <ele>804.12</ele>
 <time>2010-04-29T12:13:42Z</time>
 </trkpt>
 <trkpt lat="47.339661" lon="12.804426">
 <ele>803.88</ele>
 <time>2010-04-29T12:13:49Z</time>
 </trkpt>
 <trkpt lat="47.339680" lon="12.803707">
 <ele>804.11</ele>
 <time>2010-04-29T12:13:58Z</time>
 </trkpt>
 <trkpt lat="47.339695" lon="12.803321">
 <ele>804.25</ele>
 <time>2010-04-29T12:14:03Z</time>
 </trkpt>
 <trkpt lat="47.339600" lon="12.802791">
 <ele>804.09</ele>
 <time>2010-04-29T12:14:10Z</time>
 </trkpt>
 <trkpt lat="47.339584" lon="12.802712">
 <ele>803.96</ele>
 <time>2010-04-29T12:14:11Z</time>
 </trkpt>
 <trkpt lat="47.339558" lon="12.802330">
 <ele>803.68</ele>
 <time>2010-04-29T12:14:16Z</time>
 </trkpt>
 <trkpt lat="47.339470" lon="12.801898">
 <ele>803.62</ele>
 <time>2010-04-29T12:14:22Z</time>
 </trkpt>
 <trkpt lat="47.339363" lon="12.801301">
 <ele>803.72</ele>
 <time>2010-04-29T12:14:30Z</time>
 </trkpt>
 <trkpt lat="47.339279" lon="12.800685">
 <ele>804.19</ele>
 <time>2010-04-29T12:14:38Z</time>
 </trkpt>
 <trkpt lat="47.339157" lon="12.799858">
 <ele>803.94</ele>
 <time>2010-04-29T12:14:49Z</time>
 </trkpt>
 <trkpt lat="47.339062" lon="12.799357">
 <ele>804.03</ele>
 <time>2010-04-29T12:14:56Z</time>
 </trkpt>
 <trkpt lat="47.338917" lon="12.798701">
 <ele>804.17</ele>
 <time>2010-04-29T12:15:05Z</time>
 </trkpt>
 <trkpt lat="47.338745" lon="12.798293">
 <ele>804.32</ele>
 <time>2010-04-29T12:15:11Z</time>
 </trkpt>
 <trkpt lat="47.338718" lon="12.798228">
 <ele>804.51</ele>
 <time>2010-04-29T12:15:12Z</time>
 </trkpt>
 <trkpt lat="47.338490" lon="12.797844">
 <ele>804.92</ele>
 <time>2010-04-29T12:15:19Z</time>
 </trkpt>
 <trkpt lat="47.338280" lon="12.797656">
 <ele>805.03</ele>
 <time>2010-04-29T12:15:24Z</time>
 </trkpt>
 <trkpt lat="47.337776" lon="12.797443">
 <ele>804.97</ele>
 <time>2010-04-29T12:15:34Z</time>
 </trkpt>
 <trkpt lat="47.337463" lon="12.797364">
 <ele>804.65</ele>
 <time>2010-04-29T12:15:40Z</time>
 </trkpt>
 <trkpt lat="47.337013" lon="12.797373">
 <ele>804.29</ele>
 <time>2010-04-29T12:15:48Z</time>
 </trkpt>
 <trkpt lat="47.336597" lon="12.797488">
 <ele>804.74</ele>
 <time>2010-04-29T12:15:56Z</time>
 </trkpt>
 <trkpt lat="47.336102" lon="12.797705">
 <ele>804.83</ele>
 <time>2010-04-29T12:16:06Z</time>
 </trkpt>
 <trkpt lat="47.335522" lon="12.797941">
 <ele>804.55</ele>
 <time>2010-04-29T12:16:17Z</time>
 </trkpt>
 <trkpt lat="47.334999" lon="12.797962">
 <ele>804.03</ele>
 <time>2010-04-29T12:16:26Z</time>
 </trkpt>
 <trkpt lat="47.334763" lon="12.797931">
 <ele>803.93</ele>
 <time>2010-04-29T12:16:31Z</time>
 </trkpt>
 <trkpt lat="47.334423" lon="12.797856">
 <ele>804.20</ele>
 <time>2010-04-29T12:16:38Z</time>
 </trkpt>
 <trkpt lat="47.334072" lon="12.797722">
 <ele>804.09</ele>
 <time>2010-04-29T12:16:45Z</time>
 </trkpt>
 <trkpt lat="47.333706" lon="12.797510">
 <ele>805.23</ele>
 <time>2010-04-29T12:16:53Z</time>
 </trkpt>
 <trkpt lat="47.333382" lon="12.797304">
 <ele>804.62</ele>
 <time>2010-04-29T12:17:00Z</time>
 </trkpt>
 <trkpt lat="47.332939" lon="12.797114">
 <ele>803.47</ele>
 <time>2010-04-29T12:17:08Z</time>
 </trkpt>
 <trkpt lat="47.332561" lon="12.797053">
 <ele>803.74</ele>
 <time>2010-04-29T12:17:15Z</time>
 </trkpt>
 <trkpt lat="47.332195" lon="12.797091">
 <ele>803.96</ele>
 <time>2010-04-29T12:17:22Z</time>
 </trkpt>
 <trkpt lat="47.331833" lon="12.797161">
 <ele>804.15</ele>
 <time>2010-04-29T12:17:29Z</time>
 </trkpt>
 <trkpt lat="47.331348" lon="12.797238">
 <ele>804.20</ele>
 <time>2010-04-29T12:17:38Z</time>
 </trkpt>
 <trkpt lat="47.330948" lon="12.797204">
 <ele>803.90</ele>
 <time>2010-04-29T12:17:45Z</time>
 </trkpt>
 <trkpt lat="47.330524" lon="12.797082">
 <ele>803.29</ele>
 <time>2010-04-29T12:17:52Z</time>
 </trkpt>
 <trkpt lat="47.330162" lon="12.796929">
 <ele>803.98</ele>
 <time>2010-04-29T12:17:59Z</time>
 </trkpt>
 <trkpt lat="47.330059" lon="12.796897">
 <ele>804.13</ele>
 <time>2010-04-29T12:18:01Z</time>
 </trkpt>
 <trkpt lat="47.329704" lon="12.796820">
 <ele>804.48</ele>
 <time>2010-04-29T12:18:08Z</time>
 </trkpt>
 <trkpt lat="47.329308" lon="12.796703">
 <ele>805.02</ele>
 <time>2010-04-29T12:18:16Z</time>
 </trkpt>
 <trkpt lat="47.329262" lon="12.796698">
 <ele>804.92</ele>
 <time>2010-04-29T12:18:17Z</time>
 </trkpt>
 <trkpt lat="47.329041" lon="12.796705">
 <ele>804.37</ele>
 <time>2010-04-29T12:18:21Z</time>
 </trkpt>
 <trkpt lat="47.328812" lon="12.796699">
 <ele>804.00</ele>
 <time>2010-04-29T12:18:25Z</time>
 </trkpt>
 <trkpt lat="47.328381" lon="12.796886">
 <ele>803.18</ele>
 <time>2010-04-29T12:18:33Z</time>
 </trkpt>
 <trkpt lat="47.328117" lon="12.797051">
 <ele>803.56</ele>
 <time>2010-04-29T12:18:39Z</time>
 </trkpt>
 <trkpt lat="47.327778" lon="12.797387">
 <ele>804.03</ele>
 <time>2010-04-29T12:18:48Z</time>
 </trkpt>
 <trkpt lat="47.327545" lon="12.797713">
 <ele>804.49</ele>
 <time>2010-04-29T12:18:55Z</time>
 </trkpt>
 <trkpt lat="47.327332" lon="12.798045">
 <ele>803.41</ele>
 <time>2010-04-29T12:19:01Z</time>
 </trkpt>
 <trkpt lat="47.327026" lon="12.798492">
 <ele>803.36</ele>
 <time>2010-04-29T12:19:09Z</time>
 </trkpt>
 <trkpt lat="47.326828" lon="12.798801">
 <ele>803.27</ele>
 <time>2010-04-29T12:19:15Z</time>
 </trkpt>
 <trkpt lat="47.326576" lon="12.799171">
 <ele>804.03</ele>
 <time>2010-04-29T12:19:23Z</time>
 </trkpt>
 <trkpt lat="47.326393" lon="12.799406">
 <ele>805.82</ele>
 <time>2010-04-29T12:19:29Z</time>
 </trkpt>
 <trkpt lat="47.326099" lon="12.799716">
 <ele>806.25</ele>
 <time>2010-04-29T12:19:37Z</time>
 </trkpt>
 <trkpt lat="47.325844" lon="12.799902">
 <ele>806.43</ele>
 <time>2010-04-29T12:19:44Z</time>
 </trkpt>
 <trkpt lat="47.325626" lon="12.800031">
 <ele>806.49</ele>
 <time>2010-04-29T12:19:51Z</time>
 </trkpt>
 <trkpt lat="47.325562" lon="12.800052">
 <ele>806.24</ele>
 <time>2010-04-29T12:19:53Z</time>
 </trkpt>
 <trkpt lat="47.325493" lon="12.799948">
 <ele>806.47</ele>
 <time>2010-04-29T12:19:58Z</time>
 </trkpt>
 <trkpt lat="47.325459" lon="12.799792">
 <ele>806.58</ele>
 <time>2010-04-29T12:20:03Z</time>
 </trkpt>
 <trkpt lat="47.325405" lon="12.799634">
 <ele>807.91</ele>
 <time>2010-04-29T12:20:09Z</time>
 </trkpt>
 <trkpt lat="47.325279" lon="12.799581">
 <ele>808.13</ele>
 <time>2010-04-29T12:20:14Z</time>
 </trkpt>
 <trkpt lat="47.325199" lon="12.799598">
 <ele>808.05</ele>
 <time>2010-04-29T12:20:16Z</time>
 </trkpt>
 <trkpt lat="47.324932" lon="12.799521">
 <ele>807.48</ele>
 <time>2010-04-29T12:20:22Z</time>
 </trkpt>
 <trkpt lat="47.324764" lon="12.799426">
 <ele>807.36</ele>
 <time>2010-04-29T12:20:26Z</time>
 </trkpt>
 <trkpt lat="47.324551" lon="12.799469">
 <ele>807.05</ele>
 <time>2010-04-29T12:20:31Z</time>
 </trkpt>
 <trkpt lat="47.324348" lon="12.799615">
 <ele>807.33</ele>
 <time>2010-04-29T12:20:37Z</time>
 </trkpt>
 <trkpt lat="47.324158" lon="12.799702">
 <ele>807.93</ele>
 <time>2010-04-29T12:20:42Z</time>
 </trkpt>
 <trkpt lat="47.324001" lon="12.799784">
 <ele>807.97</ele>
 <time>2010-04-29T12:20:47Z</time>
 </trkpt>
 <trkpt lat="47.323933" lon="12.799798">
 <ele>807.60</ele>
 <time>2010-04-29T12:20:49Z</time>
 </trkpt>
 <trkpt lat="47.323753" lon="12.799807">
 <ele>806.79</ele>
 <time>2010-04-29T12:20:53Z</time>
 </trkpt>
 <trkpt lat="47.323631" lon="12.799854">
 <ele>806.48</ele>
 <time>2010-04-29T12:20:56Z</time>
 </trkpt>
 <trkpt lat="47.323189" lon="12.799875">
 <ele>805.36</ele>
 <time>2010-04-29T12:21:04Z</time>
 </trkpt>
 <trkpt lat="47.323078" lon="12.799865">
 <ele>804.94</ele>
 <time>2010-04-29T12:21:06Z</time>
 </trkpt>
 <trkpt lat="47.322701" lon="12.799688">
 <ele>804.79</ele>
 <time>2010-04-29T12:21:13Z</time>
 </trkpt>
 <trkpt lat="47.322605" lon="12.799613">
 <ele>805.07</ele>
 <time>2010-04-29T12:21:15Z</time>
 </trkpt>
 <trkpt lat="47.322372" lon="12.799331">
 <ele>805.39</ele>
 <time>2010-04-29T12:21:21Z</time>
 </trkpt>
 <trkpt lat="47.322342" lon="12.799290">
 <ele>805.41</ele>
 <time>2010-04-29T12:21:22Z</time>
 </trkpt>
 <trkpt lat="47.322231" lon="12.799315">
 <ele>805.31</ele>
 <time>2010-04-29T12:21:26Z</time>
 </trkpt>
 <trkpt lat="47.322212" lon="12.799338">
 <ele>805.35</ele>
 <time>2010-04-29T12:21:27Z</time>
 </trkpt>
 <trkpt lat="47.322113" lon="12.799405">
 <ele>805.02</ele>
 <time>2010-04-29T12:21:32Z</time>
 </trkpt>
 <trkpt lat="47.321960" lon="12.799335">
 <ele>804.21</ele>
 <time>2010-04-29T12:21:37Z</time>
 </trkpt>
 <trkpt lat="47.321804" lon="12.799137">
 <ele>804.76</ele>
 <time>2010-04-29T12:21:44Z</time>
 </trkpt>
 <trkpt lat="47.321701" lon="12.798871">
 <ele>805.29</ele>
 <time>2010-04-29T12:21:50Z</time>
 </trkpt>
 <trkpt lat="47.321674" lon="12.798828">
 <ele>805.21</ele>
 <time>2010-04-29T12:21:51Z</time>
 </trkpt>
 <trkpt lat="47.321537" lon="12.798686">
 <ele>804.86</ele>
 <time>2010-04-29T12:21:55Z</time>
 </trkpt>
 <trkpt lat="47.321304" lon="12.798484">
 <ele>804.22</ele>
 <time>2010-04-29T12:22:01Z</time>
 </trkpt>
 <trkpt lat="47.321064" lon="12.798143">
 <ele>803.75</ele>
 <time>2010-04-29T12:22:08Z</time>
 </trkpt>
 <trkpt lat="47.320866" lon="12.797875">
 <ele>803.75</ele>
 <time>2010-04-29T12:22:14Z</time>
 </trkpt>
 <trkpt lat="47.320835" lon="12.797828">
 <ele>803.77</ele>
 <time>2010-04-29T12:22:15Z</time>
 </trkpt>
 <trkpt lat="47.320770" lon="12.797544">
 <ele>804.05</ele>
 <time>2010-04-29T12:22:20Z</time>
 </trkpt>
 <trkpt lat="47.320686" lon="12.797341">
 <ele>804.30</ele>
 <time>2010-04-29T12:22:24Z</time>
 </trkpt>
 <trkpt lat="47.320545" lon="12.797116">
 <ele>804.23</ele>
 <time>2010-04-29T12:22:29Z</time>
 </trkpt>
 <trkpt lat="47.320454" lon="12.796983">
 <ele>804.24</ele>
 <time>2010-04-29T12:22:32Z</time>
 </trkpt>
 <trkpt lat="47.320396" lon="12.796883">
 <ele>804.28</ele>
 <time>2010-04-29T12:22:34Z</time>
 </trkpt>
 <trkpt lat="47.320133" lon="12.796424">
 <ele>804.57</ele>
 <time>2010-04-29T12:22:43Z</time>
 </trkpt>
 <trkpt lat="47.320030" lon="12.796257">
 <ele>804.64</ele>
 <time>2010-04-29T12:22:47Z</time>
 </trkpt>
 <trkpt lat="47.319962" lon="12.796290">
 <ele>804.57</ele>
 <time>2010-04-29T12:22:51Z</time>
 </trkpt>
 <trkpt lat="47.319958" lon="12.796350">
 <ele>803.85</ele>
 <time>2010-04-29T12:22:56Z</time>
 </trkpt>
 <trkpt lat="47.319965" lon="12.796361">
 <ele>803.62</ele>
 <time>2010-04-29T12:23:02Z</time>
 </trkpt>
 <trkpt lat="47.319908" lon="12.796305">
 <ele>803.82</ele>
 <time>2010-04-29T12:31:34Z</time>
 </trkpt>
 <trkpt lat="47.319931" lon="12.796273">
 <ele>803.74</ele>
 <time>2010-04-29T12:31:37Z</time>
 </trkpt>
 <trkpt lat="47.319965" lon="12.796251">
 <ele>803.88</ele>
 <time>2010-04-29T12:31:40Z</time>
 </trkpt>
 <trkpt lat="47.319935" lon="12.796110">
 <ele>804.33</ele>
 <time>2010-04-29T12:31:45Z</time>
 </trkpt>
 <trkpt lat="47.319916" lon="12.796078">
 <ele>804.34</ele>
 <time>2010-04-29T12:31:46Z</time>
 </trkpt>
 <trkpt lat="47.319759" lon="12.795817">
 <ele>804.11</ele>
 <time>2010-04-29T12:31:53Z</time>
 </trkpt>
 <trkpt lat="47.319546" lon="12.795510">
 <ele>803.39</ele>
 <time>2010-04-29T12:32:00Z</time>
 </trkpt>
 <trkpt lat="47.319302" lon="12.795176">
 <ele>802.93</ele>
 <time>2010-04-29T12:32:07Z</time>
 </trkpt>
 <trkpt lat="47.319267" lon="12.795125">
 <ele>802.89</ele>
 <time>2010-04-29T12:32:08Z</time>
 </trkpt>
 <trkpt lat="47.319214" lon="12.795018">
 <ele>802.72</ele>
 <time>2010-04-29T12:32:10Z</time>
 </trkpt>
 <trkpt lat="47.319050" lon="12.794832">
 <ele>802.70</ele>
 <time>2010-04-29T12:32:15Z</time>
 </trkpt>
 <trkpt lat="47.318714" lon="12.794689">
 <ele>802.45</ele>
 <time>2010-04-29T12:32:23Z</time>
 </trkpt>
 <trkpt lat="47.318478" lon="12.794655">
 <ele>802.26</ele>
 <time>2010-04-29T12:32:28Z</time>
 </trkpt>
 <trkpt lat="47.318169" lon="12.794560">
 <ele>802.29</ele>
 <time>2010-04-29T12:32:35Z</time>
 </trkpt>
 <trkpt lat="47.317886" lon="12.794541">
 <ele>802.72</ele>
 <time>2010-04-29T12:32:41Z</time>
 </trkpt>
 <trkpt lat="47.317486" lon="12.794516">
 <ele>802.54</ele>
 <time>2010-04-29T12:32:49Z</time>
 </trkpt>
 <trkpt lat="47.317074" lon="12.794463">
 <ele>802.41</ele>
 <time>2010-04-29T12:32:57Z</time>
 </trkpt>
 <trkpt lat="47.316692" lon="12.794437">
 <ele>802.17</ele>
 <time>2010-04-29T12:33:05Z</time>
 </trkpt>
 <trkpt lat="47.316292" lon="12.794438">
 <ele>802.67</ele>
 <time>2010-04-29T12:33:15Z</time>
 </trkpt>
 <trkpt lat="47.316147" lon="12.794494">
 <ele>802.65</ele>
 <time>2010-04-29T12:33:20Z</time>
 </trkpt>
 <trkpt lat="47.316010" lon="12.794582">
 <ele>802.24</ele>
 <time>2010-04-29T12:33:24Z</time>
 </trkpt>
 <trkpt lat="47.315750" lon="12.794843">
 <ele>802.28</ele>
 <time>2010-04-29T12:33:32Z</time>
 </trkpt>
 <trkpt lat="47.315613" lon="12.794847">
 <ele>802.52</ele>
 <time>2010-04-29T12:33:36Z</time>
 </trkpt>
 <trkpt lat="47.315449" lon="12.794721">
 <ele>802.49</ele>
 <time>2010-04-29T12:33:41Z</time>
 </trkpt>
 <trkpt lat="47.315384" lon="12.794654">
 <ele>802.48</ele>
 <time>2010-04-29T12:33:43Z</time>
 </trkpt>
 <trkpt lat="47.315220" lon="12.794455">
 <ele>802.97</ele>
 <time>2010-04-29T12:33:49Z</time>
 </trkpt>
 <trkpt lat="47.315117" lon="12.794401">
 <ele>803.36</ele>
 <time>2010-04-29T12:33:53Z</time>
 </trkpt>
 <trkpt lat="47.314781" lon="12.794399">
 <ele>802.80</ele>
 <time>2010-04-29T12:34:01Z</time>
 </trkpt>
 <trkpt lat="47.314594" lon="12.794396">
 <ele>802.84</ele>
 <time>2010-04-29T12:34:05Z</time>
 </trkpt>
 <trkpt lat="47.314240" lon="12.794379">
 <ele>802.54</ele>
 <time>2010-04-29T12:34:12Z</time>
 </trkpt>
 <trkpt lat="47.313843" lon="12.794414">
 <ele>802.39</ele>
 <time>2010-04-29T12:34:20Z</time>
 </trkpt>
 <trkpt lat="47.313393" lon="12.794544">
 <ele>802.86</ele>
 <time>2010-04-29T12:34:29Z</time>
 </trkpt>
 <trkpt lat="47.313007" lon="12.794705">
 <ele>803.08</ele>
 <time>2010-04-29T12:34:37Z</time>
 </trkpt>
 <trkpt lat="47.312729" lon="12.794845">
 <ele>805.04</ele>
 <time>2010-04-29T12:34:44Z</time>
 </trkpt>
 <trkpt lat="47.312466" lon="12.794939">
 <ele>805.85</ele>
 <time>2010-04-29T12:34:51Z</time>
 </trkpt>
 <trkpt lat="47.312313" lon="12.794974">
 <ele>805.02</ele>
 <time>2010-04-29T12:34:54Z</time>
 </trkpt>
 <trkpt lat="47.312096" lon="12.795061">
 <ele>804.37</ele>
 <time>2010-04-29T12:34:58Z</time>
 </trkpt>
 <trkpt lat="47.311821" lon="12.795085">
 <ele>804.00</ele>
 <time>2010-04-29T12:35:03Z</time>
 </trkpt>
 <trkpt lat="47.311436" lon="12.795035">
 <ele>803.79</ele>
 <time>2010-04-29T12:35:10Z</time>
 </trkpt>
 <trkpt lat="47.310871" lon="12.794897">
 <ele>802.91</ele>
 <time>2010-04-29T12:35:20Z</time>
 </trkpt>
 <trkpt lat="47.310310" lon="12.794733">
 <ele>803.17</ele>
 <time>2010-04-29T12:35:30Z</time>
 </trkpt>
 <trkpt lat="47.309715" lon="12.794554">
 <ele>803.72</ele>
 <time>2010-04-29T12:35:41Z</time>
 </trkpt>
 <trkpt lat="47.309284" lon="12.794431">
 <ele>803.50</ele>
 <time>2010-04-29T12:35:49Z</time>
 </trkpt>
 <trkpt lat="47.308689" lon="12.794273">
 <ele>803.49</ele>
 <time>2010-04-29T12:36:00Z</time>
 </trkpt>
 <trkpt lat="47.308323" lon="12.794252">
 <ele>803.88</ele>
 <time>2010-04-29T12:36:07Z</time>
 </trkpt>
 <trkpt lat="47.308254" lon="12.794259">
 <ele>804.13</ele>
 <time>2010-04-29T12:36:11Z</time>
 </trkpt>
 <trkpt lat="47.308254" lon="12.794258">
 <ele>804.25</ele>
 <time>2010-04-29T12:36:12Z</time>
 </trkpt>
 <trkpt lat="47.308178" lon="12.794262">
 <ele>804.05</ele>
 <time>2010-04-29T12:36:17Z</time>
 </trkpt>
 <trkpt lat="47.308060" lon="12.794248">
 <ele>803.66</ele>
 <time>2010-04-29T12:36:20Z</time>
 </trkpt>
 <trkpt lat="47.307934" lon="12.794253">
 <ele>803.52</ele>
 <time>2010-04-29T12:36:23Z</time>
 </trkpt>
 <trkpt lat="47.307503" lon="12.794366">
 <ele>803.60</ele>
 <time>2010-04-29T12:36:32Z</time>
 </trkpt>
 <trkpt lat="47.307037" lon="12.794514">
 <ele>803.65</ele>
 <time>2010-04-29T12:36:41Z</time>
 </trkpt>
 <trkpt lat="47.306412" lon="12.794710">
 <ele>803.89</ele>
 <time>2010-04-29T12:36:53Z</time>
 </trkpt>
 <trkpt lat="47.305874" lon="12.794882">
 <ele>803.95</ele>
 <time>2010-04-29T12:37:03Z</time>
 </trkpt>
 <trkpt lat="47.305340" lon="12.795084">
 <ele>804.19</ele>
 <time>2010-04-29T12:37:13Z</time>
 </trkpt>
 <trkpt lat="47.304970" lon="12.795205">
 <ele>803.99</ele>
 <time>2010-04-29T12:37:20Z</time>
 </trkpt>
 <trkpt lat="47.304714" lon="12.795313">
 <ele>803.83</ele>
 <time>2010-04-29T12:37:25Z</time>
 </trkpt>
 <trkpt lat="47.304516" lon="12.795542">
 <ele>804.20</ele>
 <time>2010-04-29T12:37:30Z</time>
 </trkpt>
 <trkpt lat="47.304340" lon="12.795828">
 <ele>804.18</ele>
 <time>2010-04-29T12:37:36Z</time>
 </trkpt>
 <trkpt lat="47.304031" lon="12.796124">
 <ele>803.94</ele>
 <time>2010-04-29T12:37:43Z</time>
 </trkpt>
 <trkpt lat="47.303680" lon="12.796478">
 <ele>803.71</ele>
 <time>2010-04-29T12:37:51Z</time>
 </trkpt>
 <trkpt lat="47.303246" lon="12.796931">
 <ele>803.33</ele>
 <time>2010-04-29T12:38:00Z</time>
 </trkpt>
 <trkpt lat="47.302868" lon="12.797324">
 <ele>803.68</ele>
 <time>2010-04-29T12:38:08Z</time>
 </trkpt>
 <trkpt lat="47.302319" lon="12.797848">
 <ele>803.63</ele>
 <time>2010-04-29T12:38:19Z</time>
 </trkpt>
 <trkpt lat="47.301983" lon="12.798173">
 <ele>803.47</ele>
 <time>2010-04-29T12:38:27Z</time>
 </trkpt>
 <trkpt lat="47.301689" lon="12.798468">
 <ele>803.30</ele>
 <time>2010-04-29T12:38:34Z</time>
 </trkpt>
 <trkpt lat="47.301376" lon="12.798793">
 <ele>803.32</ele>
 <time>2010-04-29T12:38:41Z</time>
 </trkpt>
 <trkpt lat="47.301025" lon="12.799143">
 <ele>803.50</ele>
 <time>2010-04-29T12:38:49Z</time>
 </trkpt>
 <trkpt lat="47.300884" lon="12.799288">
 <ele>803.74</ele>
 <time>2010-04-29T12:38:54Z</time>
 </trkpt>
 <trkpt lat="47.300694" lon="12.799473">
 <ele>803.61</ele>
 <time>2010-04-29T12:38:59Z</time>
 </trkpt>
 <trkpt lat="47.300385" lon="12.799777">
 <ele>803.19</ele>
 <time>2010-04-29T12:39:07Z</time>
 </trkpt>
 <trkpt lat="47.300159" lon="12.800011">
 <ele>803.13</ele>
 <time>2010-04-29T12:39:13Z</time>
 </trkpt>
 <trkpt lat="47.299931" lon="12.800236">
 <ele>802.86</ele>
 <time>2010-04-29T12:39:19Z</time>
 </trkpt>
 <trkpt lat="47.299686" lon="12.800493">
 <ele>802.97</ele>
 <time>2010-04-29T12:39:26Z</time>
 </trkpt>
 <trkpt lat="47.299511" lon="12.800677">
 <ele>803.26</ele>
 <time>2010-04-29T12:39:31Z</time>
 </trkpt>
 <trkpt lat="47.299286" lon="12.800918">
 <ele>803.16</ele>
 <time>2010-04-29T12:39:38Z</time>
 </trkpt>
 <trkpt lat="47.299084" lon="12.801127">
 <ele>803.03</ele>
 <time>2010-04-29T12:39:44Z</time>
 </trkpt>
 <trkpt lat="47.298798" lon="12.801396">
 <ele>803.32</ele>
 <time>2010-04-29T12:39:51Z</time>
 </trkpt>
 <trkpt lat="47.298489" lon="12.801701">
 <ele>803.25</ele>
 <time>2010-04-29T12:39:58Z</time>
 </trkpt>
 <trkpt lat="47.298183" lon="12.802009">
 <ele>802.99</ele>
 <time>2010-04-29T12:40:05Z</time>
 </trkpt>
 <trkpt lat="47.297817" lon="12.802377">
 <ele>802.70</ele>
 <time>2010-04-29T12:40:13Z</time>
 </trkpt>
 <trkpt lat="47.297455" lon="12.802738">
 <ele>802.68</ele>
 <time>2010-04-29T12:40:21Z</time>
 </trkpt>
 <trkpt lat="47.297142" lon="12.803060">
 <ele>802.82</ele>
 <time>2010-04-29T12:40:28Z</time>
 </trkpt>
 <trkpt lat="47.296680" lon="12.803526">
 <ele>802.59</ele>
 <time>2010-04-29T12:40:38Z</time>
 </trkpt>
 <trkpt lat="47.296329" lon="12.803900">
 <ele>802.86</ele>
 <time>2010-04-29T12:40:46Z</time>
 </trkpt>
 <trkpt lat="47.295921" lon="12.804305">
 <ele>802.76</ele>
 <time>2010-04-29T12:40:55Z</time>
 </trkpt>
 <trkpt lat="47.295490" lon="12.804716">
 <ele>803.11</ele>
 <time>2010-04-29T12:41:04Z</time>
 </trkpt>
 <trkpt lat="47.295132" lon="12.805086">
 <ele>803.43</ele>
 <time>2010-04-29T12:41:12Z</time>
 </trkpt>
 <trkpt lat="47.294765" lon="12.805453">
 <ele>803.53</ele>
 <time>2010-04-29T12:41:20Z</time>
 </trkpt>
 <trkpt lat="47.294376" lon="12.805844">
 <ele>802.72</ele>
 <time>2010-04-29T12:41:28Z</time>
 </trkpt>
 <trkpt lat="47.293957" lon="12.806267">
 <ele>802.86</ele>
 <time>2010-04-29T12:41:37Z</time>
 </trkpt>
 <trkpt lat="47.293636" lon="12.806582">
 <ele>803.00</ele>
 <time>2010-04-29T12:41:44Z</time>
 </trkpt>
 <trkpt lat="47.293331" lon="12.806897">
 <ele>803.17</ele>
 <time>2010-04-29T12:41:51Z</time>
 </trkpt>
 <trkpt lat="47.292938" lon="12.807293">
 <ele>803.57</ele>
 <time>2010-04-29T12:42:00Z</time>
 </trkpt>
 <trkpt lat="47.292477" lon="12.807766">
 <ele>803.56</ele>
 <time>2010-04-29T12:42:10Z</time>
 </trkpt>
 <trkpt lat="47.292015" lon="12.808232">
 <ele>803.38</ele>
 <time>2010-04-29T12:42:20Z</time>
 </trkpt>
 <trkpt lat="47.291515" lon="12.808750">
 <ele>803.75</ele>
 <time>2010-04-29T12:42:31Z</time>
 </trkpt>
 <trkpt lat="47.291149" lon="12.809131">
 <ele>803.47</ele>
 <time>2010-04-29T12:42:40Z</time>
 </trkpt>
 <trkpt lat="47.290993" lon="12.809210">
 <ele>803.51</ele>
 <time>2010-04-29T12:42:44Z</time>
 </trkpt>
 <trkpt lat="47.290901" lon="12.809206">
 <ele>803.41</ele>
 <time>2010-04-29T12:42:46Z</time>
 </trkpt>
 <trkpt lat="47.290703" lon="12.809269">
 <ele>803.80</ele>
 <time>2010-04-29T12:42:51Z</time>
 </trkpt>
 <trkpt lat="47.290619" lon="12.809281">
 <ele>804.66</ele>
 <time>2010-04-29T12:42:54Z</time>
 </trkpt>
 <trkpt lat="47.290554" lon="12.809453">
 <ele>804.71</ele>
 <time>2010-04-29T12:42:58Z</time>
 </trkpt>
 <trkpt lat="47.290554" lon="12.809861">
 <ele>804.53</ele>
 <time>2010-04-29T12:43:04Z</time>
 </trkpt>
 <trkpt lat="47.290440" lon="12.810436">
 <ele>804.31</ele>
 <time>2010-04-29T12:43:12Z</time>
 </trkpt>
 <trkpt lat="47.290257" lon="12.810915">
 <ele>804.21</ele>
 <time>2010-04-29T12:43:19Z</time>
 </trkpt>
 <trkpt lat="47.290020" lon="12.811414">
 <ele>804.35</ele>
 <time>2010-04-29T12:43:27Z</time>
 </trkpt>
 <trkpt lat="47.289867" lon="12.811664">
 <ele>804.72</ele>
 <time>2010-04-29T12:43:33Z</time>
 </trkpt>
 <trkpt lat="47.289841" lon="12.811670">
 <ele>805.00</ele>
 <time>2010-04-29T12:43:37Z</time>
 </trkpt>
 <trkpt lat="47.289703" lon="12.811823">
 <ele>804.90</ele>
 <time>2010-04-29T12:43:58Z</time>
 </trkpt>
 <trkpt lat="47.289581" lon="12.812009">
 <ele>804.06</ele>
 <time>2010-04-29T12:44:02Z</time>
 </trkpt>
 <trkpt lat="47.289284" lon="12.812350">
 <ele>804.02</ele>
 <time>2010-04-29T12:44:10Z</time>
 </trkpt>
 <trkpt lat="47.288898" lon="12.812637">
 <ele>804.44</ele>
 <time>2010-04-29T12:44:18Z</time>
 </trkpt>
 <trkpt lat="47.288403" lon="12.813016">
 <ele>804.78</ele>
 <time>2010-04-29T12:44:28Z</time>
 </trkpt>
 <trkpt lat="47.288261" lon="12.813157">
 <ele>804.55</ele>
 <time>2010-04-29T12:44:31Z</time>
 </trkpt>
 <trkpt lat="47.287998" lon="12.813631">
 <ele>804.82</ele>
 <time>2010-04-29T12:44:38Z</time>
 </trkpt>
 <trkpt lat="47.287842" lon="12.814139">
 <ele>804.70</ele>
 <time>2010-04-29T12:44:44Z</time>
 </trkpt>
 <trkpt lat="47.287704" lon="12.814775">
 <ele>804.53</ele>
 <time>2010-04-29T12:44:51Z</time>
 </trkpt>
 <trkpt lat="47.287590" lon="12.815607">
 <ele>804.46</ele>
 <time>2010-04-29T12:45:00Z</time>
 </trkpt>
 <trkpt lat="47.287575" lon="12.816534">
 <ele>804.54</ele>
 <time>2010-04-29T12:45:10Z</time>
 </trkpt>
 <trkpt lat="47.287643" lon="12.817669">
 <ele>804.93</ele>
 <time>2010-04-29T12:45:22Z</time>
 </trkpt>
 <trkpt lat="47.287792" lon="12.818298">
 <ele>804.75</ele>
 <time>2010-04-29T12:45:29Z</time>
 </trkpt>
 <trkpt lat="47.288017" lon="12.819066">
 <ele>804.33</ele>
 <time>2010-04-29T12:45:38Z</time>
 </trkpt>
 <trkpt lat="47.288219" lon="12.819749">
 <ele>804.27</ele>
 <time>2010-04-29T12:45:46Z</time>
 </trkpt>
 <trkpt lat="47.288380" lon="12.820349">
 <ele>804.23</ele>
 <time>2010-04-29T12:45:53Z</time>
 </trkpt>
 <trkpt lat="47.288582" lon="12.821201">
 <ele>804.10</ele>
 <time>2010-04-29T12:46:03Z</time>
 </trkpt>
 <trkpt lat="47.288609" lon="12.821810">
 <ele>803.99</ele>
 <time>2010-04-29T12:46:10Z</time>
 </trkpt>
 <trkpt lat="47.288551" lon="12.822487">
 <ele>804.28</ele>
 <time>2010-04-29T12:46:18Z</time>
 </trkpt>
 <trkpt lat="47.288437" lon="12.823030">
 <ele>804.93</ele>
 <time>2010-04-29T12:46:25Z</time>
 </trkpt>
 <trkpt lat="47.288303" lon="12.823296">
 <ele>805.67</ele>
 <time>2010-04-29T12:46:29Z</time>
 </trkpt>
 <trkpt lat="47.287907" lon="12.823867">
 <ele>806.04</ele>
 <time>2010-04-29T12:46:39Z</time>
 </trkpt>
 <trkpt lat="47.287621" lon="12.824359">
 <ele>805.82</ele>
 <time>2010-04-29T12:46:47Z</time>
 </trkpt>
 <trkpt lat="47.287544" lon="12.824476">
 <ele>805.40</ele>
 <time>2010-04-29T12:46:49Z</time>
 </trkpt>
 <trkpt lat="47.287338" lon="12.824574">
 <ele>804.84</ele>
 <time>2010-04-29T12:46:53Z</time>
 </trkpt>
 <trkpt lat="47.287209" lon="12.824474">
 <ele>805.04</ele>
 <time>2010-04-29T12:46:56Z</time>
 </trkpt>
 <trkpt lat="47.287018" lon="12.824252">
 <ele>805.13</ele>
 <time>2010-04-29T12:47:01Z</time>
 </trkpt>
 <trkpt lat="47.286678" lon="12.823762">
 <ele>804.68</ele>
 <time>2010-04-29T12:47:10Z</time>
 </trkpt>
 <trkpt lat="47.286648" lon="12.823715">
 <ele>804.83</ele>
 <time>2010-04-29T12:47:11Z</time>
 </trkpt>
 <trkpt lat="47.286533" lon="12.823610">
 <ele>805.43</ele>
 <time>2010-04-29T12:47:14Z</time>
 </trkpt>
 <trkpt lat="47.286373" lon="12.823537">
 <ele>806.71</ele>
 <time>2010-04-29T12:47:18Z</time>
 </trkpt>
 <trkpt lat="47.286064" lon="12.823466">
 <ele>808.42</ele>
 <time>2010-04-29T12:47:25Z</time>
 </trkpt>
 <trkpt lat="47.285660" lon="12.823390">
 <ele>808.91</ele>
 <time>2010-04-29T12:47:34Z</time>
 </trkpt>
 <trkpt lat="47.285427" lon="12.823349">
 <ele>809.46</ele>
 <time>2010-04-29T12:47:40Z</time>
 </trkpt>
 <trkpt lat="47.285362" lon="12.823338">
 <ele>809.64</ele>
 <time>2010-04-29T12:47:43Z</time>
 </trkpt>
 <trkpt lat="47.285248" lon="12.823335">
 <ele>809.37</ele>
 <time>2010-04-29T12:47:48Z</time>
 </trkpt>
 <trkpt lat="47.284954" lon="12.823318">
 <ele>807.79</ele>
 <time>2010-04-29T12:47:54Z</time>
 </trkpt>
 <trkpt lat="47.284821" lon="12.823449">
 <ele>807.23</ele>
 <time>2010-04-29T12:47:58Z</time>
 </trkpt>
 <trkpt lat="47.284817" lon="12.823498">
 <ele>807.23</ele>
 <time>2010-04-29T12:47:59Z</time>
 </trkpt>
 <trkpt lat="47.284824" lon="12.823925">
 <ele>809.02</ele>
 <time>2010-04-29T12:48:07Z</time>
 </trkpt>
 <trkpt lat="47.284843" lon="12.824373">
 <ele>809.16</ele>
 <time>2010-04-29T12:48:14Z</time>
 </trkpt>
 <trkpt lat="47.284855" lon="12.825014">
 <ele>809.16</ele>
 <time>2010-04-29T12:48:23Z</time>
 </trkpt>
 <trkpt lat="47.284866" lon="12.825536">
 <ele>809.65</ele>
 <time>2010-04-29T12:48:30Z</time>
 </trkpt>
 <trkpt lat="47.284889" lon="12.826347">
 <ele>809.55</ele>
 <time>2010-04-29T12:48:41Z</time>
 </trkpt>
 <trkpt lat="47.284901" lon="12.826870">
 <ele>809.47</ele>
 <time>2010-04-29T12:48:48Z</time>
 </trkpt>
 <trkpt lat="47.284912" lon="12.827574">
 <ele>809.90</ele>
 <time>2010-04-29T12:48:58Z</time>
 </trkpt>
 <trkpt lat="47.284920" lon="12.828033">
 <ele>810.38</ele>
 <time>2010-04-29T12:49:06Z</time>
 </trkpt>
 <trkpt lat="47.284935" lon="12.828215">
 <ele>810.55</ele>
 <time>2010-04-29T12:49:11Z</time>
 </trkpt>
 <trkpt lat="47.284935" lon="12.828225">
 <ele>810.68</ele>
 <time>2010-04-29T12:49:14Z</time>
 </trkpt>
 <trkpt lat="47.284912" lon="12.828232">
 <ele>810.49</ele>
 <time>2010-04-29T12:49:19Z</time>
 </trkpt>
 <trkpt lat="47.284889" lon="12.828226">
 <ele>810.34</ele>
 <time>2010-04-29T12:49:21Z</time>
 </trkpt>
 </trkseg>
 </trk>
</gpx>
